GFSGBSN_925_spd_000.txt.gz
Wind_Speed
9 8 9 10 12 16 18 19 19 18 17 16 15 15 15 15 15 15 13 11 11 12 12 10 10 10 2 6 2 6 6 4 5 7 13 12 14 14 9 8 8 7 5 8 8 6 1
8 7 7 10 13 16 19 18 16 15 13 13 12 13 13 13 14 13 12 12 13 13 12 9 8 7 3 10 3 1 5 9 8 13 10 7 5 5 4 7 7 8 8 9 9 6 4
8 6 7 10 12 16 17 15 13 10 10 10 10 10 11 12 12 12 13 13 14 12 8 7 8 0 7 6 2 2 3 6 6 11 7 5 10 6 3 3 2 7 9 7 7 8 5
9 6 7 9 12 15 15 12 9 8 7 6 6 8 10 11 13 15 15 13 11 8 6 7 6 2 6 1 7 5 4 6 3 4 4 2 6 9 6 8 5 9 10 10 12 9 6
8 6 7 8 11 13 12 9 7 6 5 4 4 4 8 11 13 12 10 9 7 6 6 5 3 5 6 4 6 2 4 9 4 2 2 1 6 5 2 9 9 9 10 9 9 7 1
8 6 6 7 10 12 10 7 6 5 4 2 2 5 7 8 8 9 9 8 6 5 4 4 13 7 4 2 2 2 3 5 4 3 5 6 6 8 10 8 3 10 11 6 4 9 6
7 6 5 5 8 10 9 5 4 4 2 1 3 4 6 7 9 10 10 3 5 3 10 7 10 2 6 7 6 3 3 7 6 6 10 5 8 7 12 8 7 10 7 7 14 7 3
6 6 4 4 6 8 9 5 4 3 2 2 3 4 6 8 8 8 8 6 7 6 6 4 6 5 2 4 6 7 3 6 4 11 0 5 6 8 6 7 6 6 5 6 6 5 5
6 5 3 3 5 7 8 5 4 3 3 3 3 4 7 8 8 7 11 6 5 9 5 4 5 5 2 2 6 3 8 5 8 8 5 13 10 4 4 5 8 3 6 9 8 7 8
6 5 3 3 5 7 8 5 4 3 4 4 4 6 8 10 4 7 4 2 5 7 4 7 5 4 3 1 4 2 5 5 3 5 8 8 4 3 1 5 8 3 6 5 8 7 7
7 5 3 2 4 7 8 7 5 5 6 6 5 4 5 7 11 7 3 4 5 3 3 3 5 1 4 3 5 6 2 6 2 3 4 5 4 5 4 6 6 6 5 6 8 9 10
7 5 3 1 4 7 9 8 6 7 8 8 5 3 6 2 2 4 2 3 3 3 2 5 5 7 6 3 2 4 3 5 4 3 11 7 3 7 6 4 2 6 9 9 8 9 3
8 6 3 1 2 6 9 7 6 8 9 9 7 5 2 4 3 1 2 3 3 2 6 7 9 7 8 5 6 6 5 5 3 4 5 8 6 5 7 10 5 8 8 4 2 2 3
8 6 4 1 2 5 8 6 5 9 11 10 8 5 3 3 1 2 3 6 6 3 6 8 9 10 8 6 5 1 10 9 9 12 5 7 6 5 7 7 7 5 6 3 3 4 2
9 7 4 1 1 5 7 5 5 9 12 13 11 5 5 1 1 3 5 2 6 6 7 8 10 7 5 4 2 6 12 8 8 11 7 5 7 6 7 5 8 7 5 3 1 2 1
11 8 5 2 1 3 6 4 6 10 14 17 9 8 7 4 1 3 4 5 1 7 5 10 8 3 7 7 8 5 4 5 4 9 6 4 3 5 3 3 4 5 1 2 3 2 3
12 9 6 3 1 3 6 4 7 12 17 18 5 6 5 7 3 5 4 5 1 2 8 5 2 5 5 4 3 3 5 6 7 6 6 7 4 3 5 8 8 0 2 2 3 1 2
13 10 6 3 1 2 5 6 7 13 17 10 7 5 7 10 6 7 8 2 1 7 1 4 5 4 4 4 2 5 8 8 5 5 4 4 3 2 8 5 3 3 5 3 1 1 2
14 10 7 4 1 2 5 7 5 14 17 6 6 4 5 6 4 2 3 6 3 6 7 4 2 1 2 5 3 7 8 5 5 7 4 5 2 2 7 5 3 3 3 1 6 2 3
14 11 7 4 0 2 4 6 3 11 16 4 4 3 4 5 8 10 7 7 5 4 4 2 5 4 5 5 5 6 9 4 5 7 4 3 1 2 2 5 7 7 8 8 8 3 5
15 11 8 5 1 2 4 5 5 4 11 5 3 4 7 5 5 6 10 9 10 6 4 6 5 5 7 2 6 5 11 8 4 2 1 3 3 6 8 9 9 10 11 11 12 10 8
15 11 8 5 2 2 3 4 6 1 8 4 3 2 3 6 10 8 4 6 10 8 8 7 5 7 7 6 4 6 6 4 3 3 2 5 2 3 3 4 9 12 14 14 15 14 9
16 12 8 6 3 1 3 5 6 3 5 6 2 2 2 2 4 6 5 8 9 9 4 7 7 8 12 13 13 11 11 8 6 3 4 3 2 1 2 9 9 2 4 5 4 6 9
15 12 8 6 3 1 4 5 6 5 0 3 2 2 3 1 3 6 10 8 11 9 6 9 9 8 9 15 12 11 13 10 7 6 6 5 2 2 2 5 3 3 12 12 9 7 7
15 12 9 6 4 2 3 5 6 6 4 4 1 4 3 2 6 9 9 8 12 7 11 13 10 12 10 3 3 3 2 4 4 5 7 4 2 3 1 3 9 11 4 6 5 10 10
15 12 9 6 4 2 3 5 6 6 6 5 4 3 2 4 3 8 8 12 7 8 6 5 6 5 2 2 2 3 2 2 5 6 8 5 5 1 2 2 3 2 7 6 8 8 8
15 13 9 7 5 3 2 4 5 6 6 5 2 3 3 2 4 4 7 9 8 7 5 7 5 2 1 2 3 3 3 2 5 6 4 2 1 3 4 4 6 9 4 4 3 2 5
15 12 9 6 4 3 1 2 4 5 5 6 2 6 3 3 3 5 1 8 4 6 5 8 4 2 2 3 3 2 2 4 2 3 6 7 7 4 3 3 6 2 2 1 4 6 4
13 11 8 6 4 2 1 1 3 4 4 3 0 6 8 3 4 5 6 6 6 8 5 8 3 6 4 3 2 1 2 2 2 3 8 4 6 4 9 5 8 2 5 4 2 3 2

GFSGBSN_925_spd_003.txt.gz
Wind_Speed
17 14 14 11 12 14 16 17 18 17 16 16 14 13 12 12 13 14 13 13 12 13 12 11 11 9 1 2 8 8 4 9 11 10 14 8 9 5 6 6 4 8 7 7 6 5 7
15 14 14 11 12 14 16 18 16 15 13 12 11 10 10 12 12 12 12 12 12 12 11 10 10 4 1 5 5 2 7 8 17 16 11 16 8 12 7 7 6 6 9 8 5 3 2
13 13 13 11 13 13 16 16 13 11 10 9 8 9 9 11 11 11 11 11 11 9 8 10 8 1 4 11 13 4 9 8 10 9 5 6 9 7 3 6 4 9 6 8 6 8 5
14 12 12 11 13 13 15 13 9 8 8 6 6 7 9 9 10 12 11 9 7 7 8 9 3 3 6 10 7 5 10 6 5 10 10 11 10 6 4 4 4 4 5 5 6 9 6
13 12 10 10 12 12 13 10 7 6 7 6 4 4 5 9 10 7 6 7 7 8 8 4 2 3 6 6 4 2 4 10 5 4 5 6 5 1 6 5 1 2 5 5 6 11 6
13 12 9 10 10 11 10 7 6 6 6 5 1 2 4 5 6 8 8 7 5 6 4 2 7 4 8 4 5 1 3 7 3 4 3 2 1 2 5 5 3 5 6 7 8 5 4
13 10 9 8 8 9 8 5 4 5 5 2 1 2 5 7 9 8 4 1 2 1 5 8 9 5 5 7 7 9 6 6 5 3 4 6 6 3 3 3 4 5 5 12 5 5 2
13 10 8 7 6 7 7 5 4 4 3 2 2 4 7 8 7 7 6 3 4 4 4 14 2 2 1 5 5 5 5 1 3 6 7 4 5 3 5 2 4 4 6 6 3 4 3
13 10 8 5 5 5 6 5 3 3 2 1 2 4 8 7 5 6 11 11 10 10 3 2 3 4 3 4 3 3 4 5 7 6 7 7 2 4 3 8 9 7 5 5 3 6 6
14 10 7 5 5 3 5 4 3 3 3 3 3 4 9 9 4 7 5 3 6 6 4 4 3 2 3 4 3 1 2 3 2 5 9 7 1 3 5 7 6 4 6 5 6 3 3
14 10 8 5 4 3 5 5 3 5 5 4 4 4 7 9 9 2 4 3 6 4 4 5 3 2 2 2 7 1 1 5 4 3 7 2 7 8 8 4 5 3 0 3 3 4 3
14 11 8 5 3 3 5 5 3 6 6 6 5 3 7 3 6 5 8 4 3 6 0 2 4 5 4 4 2 4 2 1 2 8 8 4 5 4 5 5 3 5 4 5 3 2 2
15 12 8 6 3 2 4 4 4 7 8 7 5 5 5 2 0 7 8 4 5 5 4 4 4 5 7 0 6 6 4 6 4 3 2 5 4 3 3 4 1 4 5 3 4 4 3
15 12 8 6 3 2 4 4 4 8 9 10 8 6 3 2 1 5 5 5 1 2 4 6 5 5 6 3 3 2 7 5 9 6 1 5 4 6 7 5 2 5 4 4 1 1 4
16 12 8 5 3 1 3 4 3 9 11 12 10 5 2 1 3 4 5 3 7 3 6 6 4 5 4 1 1 6 7 4 6 7 5 3 3 3 6 4 3 4 5 2 5 4 3
16 13 8 5 2 1 4 4 4 10 13 15 8 6 5 3 2 3 4 5 2 4 3 5 6 5 7 7 4 4 5 5 2 7 4 5 4 3 2 2 4 5 2 6 4 2 2
16 13 9 5 2 1 4 4 5 11 16 18 2 3 7 8 2 4 2 5 3 8 7 2 2 1 4 7 6 4 4 5 8 4 8 5 3 2 2 5 4 5 3 4 3 4 4
16 13 9 6 3 1 3 4 6 12 16 14 2 1 9 10 3 3 3 4 1 2 4 5 6 6 4 5 6 6 4 5 8 6 3 3 4 3 3 3 2 2 3 4 4 3 1
16 12 9 6 3 2 3 4 4 14 19 6 3 3 4 2 3 3 6 3 3 5 2 2 5 5 5 4 5 10 5 6 8 5 1 3 2 3 5 4 4 2 3 5 6 3 3
16 13 9 6 3 2 2 4 2 13 19 0 1 2 3 1 2 4 4 2 3 6 4 5 5 2 6 5 5 4 4 3 5 3 3 3 3 5 5 3 1 3 4 3 6 4 4
16 12 9 6 3 2 2 3 3 7 10 5 1 4 7 3 4 5 5 8 6 1 1 3 1 4 5 4 5 5 5 4 2 1 3 3 3 5 4 6 5 4 5 6 4 6 6
17 13 10 7 4 2 3 3 4 4 9 5 1 3 2 5 4 2 4 5 9 7 5 5 4 6 8 4 2 6 8 5 4 5 2 5 1 2 3 7 9 5 8 8 7 7 6
16 13 10 7 5 3 3 4 4 4 10 4 6 2 5 3 3 4 3 1 2 7 4 5 8 13 14 6 10 7 8 7 6 4 3 4 4 3 2 4 5 5 4 3 2 2 2
16 13 11 8 5 4 4 5 5 4 4 2 3 3 4 3 3 5 5 2 7 6 5 6 9 8 3 4 6 9 11 12 9 8 5 5 4 3 2 3 2 5 4 3 6 6 7
16 13 11 8 6 5 5 6 6 4 3 2 2 3 3 1 3 1 4 6 13 14 9 11 8 7 7 6 5 5 5 7 6 5 7 5 4 3 2 1 5 7 2 3 4 4 9
17 14 11 9 6 5 5 6 7 6 4 4 4 4 4 5 4 5 4 11 5 4 5 5 6 7 7 3 4 4 4 5 3 3 8 6 5 4 2 4 6 7 4 6 4 2 4
17 14 11 9 7 5 5 6 7 7 6 4 5 4 2 3 3 5 3 6 6 5 4 3 1 5 6 3 3 2 3 3 5 7 4 3 3 4 4 3 7 8 2 5 5 6 5
16 14 11 9 6 4 4 5 7 7 7 6 6 9 3 3 3 7 7 5 4 5 5 5 4 4 3 3 3 3 2 4 3 6 6 7 6 4 2 2 7 6 2 7 5 4 6
15 12 10 7 6 3 4 4 5 6 6 7 5 9 8 5 3 6 11 11 7 3 6 3 6 4 5 4 1 2 1 1 3 3 4 2 7 6 8 6 7 6 6 5 6 6 5

GFSGBSN_925_spd_006.txt.gz
Wind_Speed
18 17 17 16 15 14 15 16 18 19 19 17 16 16 14 13 14 14 13 12 11 8 7 8 4 6 2 2 9 7 10 10 14 12 10 6 6 7 6 4 5 7 4 5 8 7 5
18 17 17 15 15 14 15 16 18 18 16 14 14 13 13 11 12 12 12 10 9 7 6 5 4 4 1 4 4 11 14 12 13 15 11 11 8 8 7 9 6 5 8 6 6 4 3
19 17 15 14 15 14 15 16 16 14 12 11 11 11 11 10 10 11 11 9 7 5 5 3 3 1 2 12 6 11 8 13 10 17 4 7 10 3 1 7 7 9 6 4 1 3 2
19 17 15 14 15 13 15 14 13 10 9 9 8 9 9 10 10 10 9 7 6 4 4 3 1 4 6 13 14 15 7 7 6 2 5 6 5 2 4 2 5 5 6 3 4 5 2
19 18 15 14 14 13 13 12 10 8 7 6 7 8 8 8 6 6 7 6 4 2 2 1 2 3 8 12 4 8 3 5 9 4 7 9 5 3 7 4 5 7 3 3 3 7 3
20 19 15 14 14 12 11 9 8 6 5 5 5 6 6 7 7 8 7 5 1 1 2 2 2 2 7 4 5 2 3 6 2 6 7 7 6 5 5 5 2 5 4 5 7 6 4
21 19 15 14 12 11 10 7 5 4 3 2 3 4 6 8 8 8 6 3 1 2 4 7 4 4 4 5 4 3 4 4 3 5 2 6 6 3 3 4 4 3 3 7 3 5 5
23 19 16 14 11 10 8 6 4 4 2 1 4 6 9 9 8 7 5 2 2 1 5 11 11 8 15 2 2 4 1 2 2 2 3 6 2 3 4 5 5 4 7 5 5 7 5
25 20 16 13 11 10 7 5 4 4 3 4 5 7 9 10 8 6 5 8 7 9 2 3 4 4 2 2 2 2 3 2 3 2 3 6 4 2 5 7 7 5 7 3 2 2 8
25 21 17 14 11 9 7 5 4 4 4 4 5 7 10 10 5 1 4 6 5 3 4 4 3 2 3 3 3 1 3 2 5 7 7 5 6 5 5 4 1 2 2 4 3 3 6
26 21 17 15 11 9 7 5 5 6 5 5 6 7 10 12 3 5 4 9 8 2 4 4 1 3 2 2 4 2 0 4 0 3 6 4 4 6 5 0 2 3 1 2 1 3 3
27 21 18 15 12 10 7 6 6 7 7 8 7 7 8 6 5 3 9 10 1 6 1 3 4 4 2 1 1 3 2 7 2 6 6 4 2 3 1 3 1 1 1 6 4 3 3
27 22 19 15 12 10 7 6 8 9 10 9 6 7 10 2 1 5 8 3 5 5 2 3 4 4 4 2 2 4 5 6 4 5 3 5 4 5 4 4 5 8 5 4 4 4 4
26 23 19 15 12 10 7 6 9 11 12 11 9 10 4 3 2 4 4 5 2 4 4 3 5 4 4 3 6 4 3 4 6 4 3 4 4 4 6 2 1 3 5 5 4 2 3
27 23 19 15 12 10 6 6 10 13 14 13 11 6 2 2 2 3 5 3 6 6 4 6 5 5 2 2 6 6 4 2 2 1 5 4 0 2 1 2 1 3 4 4 6 3 3
27 24 19 15 12 9 6 6 11 14 16 15 10 5 3 4 2 6 5 5 3 2 2 5 6 5 4 5 4 4 2 3 2 6 1 2 4 2 3 5 5 5 2 4 4 2 1
28 23 19 15 12 9 6 7 13 16 18 18 6 3 5 6 2 5 3 5 2 3 5 4 3 4 6 7 5 3 3 3 5 4 6 2 4 4 4 3 1 5 3 5 4 3 4
27 23 18 15 12 9 5 7 14 18 19 16 5 3 4 8 3 1 2 4 3 3 4 5 3 3 5 4 5 3 3 4 7 2 3 2 5 3 1 3 1 1 3 4 4 2 2
26 22 17 15 12 9 6 7 15 19 22 9 4 2 3 1 3 2 5 4 2 2 2 2 3 3 3 4 6 3 4 2 7 4 2 2 2 3 6 6 6 4 2 5 6 3 3
24 21 17 14 12 9 7 7 13 21 20 7 3 2 4 3 1 5 2 1 2 4 3 4 3 6 5 4 6 4 3 3 4 3 2 2 3 4 6 4 3 0 2 3 5 3 4
23 20 16 13 12 9 7 7 11 18 23 4 2 4 6 3 3 3 3 3 2 2 2 4 4 3 5 4 3 4 3 2 4 3 3 3 4 2 2 3 1 1 2 1 4 4 5
23 19 16 13 11 9 8 8 11 18 19 4 3 3 2 3 6 4 4 6 9 3 3 1 2 4 6 5 6 7 7 3 4 1 3 4 2 1 0 5 6 3 5 5 4 4 4
21 19 16 12 11 9 8 8 10 20 18 3 3 1 5 3 4 4 4 6 8 8 2 3 12 7 10 2 5 5 5 6 5 5 3 4 4 3 3 5 6 5 4 3 1 4 3
21 18 15 12 11 9 8 9 10 16 16 7 4 3 4 2 4 6 3 4 5 1 7 3 5 7 4 6 3 7 11 12 12 8 4 5 4 3 2 4 1 5 5 4 9 3 10
21 18 14 12 10 9 10 10 9 11 11 9 4 3 3 1 2 0 6 9 8 7 6 5 5 2 7 5 5 5 5 7 5 7 6 4 4 3 3 3 5 6 4 6 5 3 4
20 17 14 12 10 9 9 9 10 9 8 7 6 6 5 5 4 2 6 7 6 4 6 4 5 5 7 4 4 4 4 4 2 1 5 6 6 4 3 4 6 6 2 4 5 4 9
20 17 14 11 9 9 9 9 10 8 7 8 6 5 5 4 3 2 4 6 6 4 4 1 0 4 4 3 3 3 3 5 5 6 4 3 3 4 3 2 8 7 7 2 5 7 8
19 16 13 11 8 8 8 9 10 9 8 8 8 7 3 3 2 4 3 5 4 3 5 5 4 4 3 4 3 4 3 5 2 4 6 7 6 4 3 2 7 7 5 7 6 3 7
18 15 13 11 8 8 8 9 9 9 8 8 6 7 9 4 3 6 11 8 0 8 6 1 6 4 5 4 1 3 1 1 3 3 3 2 7 5 9 7 5 6 6 2 6 5 6

GFSGBSN_925_spd_009.txt.gz
Wind_Speed
23 23 22 21 19 19 19 18 18 20 22 22 20 19 17 17 14 12 11 11 10 10 9 8 5 6 1 3 8 5 6 5 13 19 16 7 6 6 5 5 1 3 3 1 6 8 6
24 26 23 22 19 18 18 18 19 20 21 20 18 17 14 14 12 10 10 10 10 10 7 6 4 2 2 4 6 3 13 9 11 19 9 12 8 7 3 7 7 7 1 4 4 6 5
26 26 23 21 20 18 18 18 19 19 19 16 16 13 12 11 11 10 10 10 10 7 5 3 2 2 2 13 2 15 16 13 18 21 6 20 19 4 5 4 4 7 5 4 2 1 3
28 26 23 22 20 17 18 18 18 17 16 15 13 11 10 9 10 9 10 9 8 5 3 3 3 3 7 7 15 16 12 10 12 17 21 8 15 6 2 4 7 5 5 3 5 2 3
27 27 24 23 20 18 17 18 17 14 14 13 11 9 9 8 8 7 7 7 5 3 1 2 2 2 8 11 8 8 6 5 5 8 12 3 6 4 6 5 5 6 3 2 4 6 2
28 27 25 23 20 18 17 16 15 13 11 11 9 7 7 8 8 7 7 6 3 2 3 2 2 2 6 3 5 3 3 4 2 2 5 9 6 4 4 5 3 3 2 3 6 5 4
30 28 26 24 21 18 17 13 13 11 9 9 7 7 7 8 10 11 12 5 1 1 4 7 4 3 5 6 4 4 4 5 5 8 5 4 6 2 4 1 4 2 3 5 4 1 8
32 30 27 24 21 18 16 13 12 9 9 8 6 8 9 11 13 11 7 3 3 1 4 10 6 6 12 10 2 3 2 4 5 2 1 7 2 1 6 5 3 5 4 2 4 8 11
33 30 28 25 22 19 16 14 12 9 9 8 7 9 12 13 12 9 7 7 4 9 1 6 5 5 4 8 2 1 2 2 3 2 3 5 2 3 5 6 5 4 2 3 6 8 6
34 31 30 25 22 20 16 14 12 10 10 8 8 12 13 13 8 4 5 3 6 2 4 5 2 3 2 3 3 1 2 3 4 5 6 6 5 5 5 5 3 3 2 3 9 5 4
36 33 31 26 23 21 17 14 11 12 11 10 10 14 13 11 4 3 1 5 2 3 4 4 3 2 3 4 3 4 7 3 4 4 5 4 2 5 5 1 2 3 2 2 2 4 4
37 34 31 27 24 21 18 14 11 13 12 12 10 13 14 11 4 2 5 4 4 6 2 1 2 1 3 3 1 2 5 8 3 6 7 3 1 3 1 1 0 2 5 6 4 3 3
38 35 31 28 25 22 18 14 13 13 14 13 12 13 13 7 1 3 4 4 5 4 1 4 4 3 2 2 5 5 4 6 4 5 3 5 4 5 2 2 2 5 5 3 3 4 4
38 36 32 28 25 22 18 14 14 15 16 14 13 14 9 5 1 3 4 5 1 3 5 2 4 3 3 4 4 4 3 3 5 4 3 3 5 4 5 1 2 3 4 5 5 3 2
40 37 32 28 25 21 18 14 15 16 18 16 14 12 3 4 2 2 5 3 6 6 4 6 4 4 2 3 5 5 3 2 3 3 5 4 1 3 1 2 2 1 3 3 6 3 3
41 36 32 28 25 21 18 15 16 19 20 18 12 7 3 7 3 6 4 5 4 4 1 4 5 3 5 4 4 4 2 3 2 4 2 5 4 2 4 3 4 4 4 3 4 3 1
41 36 32 28 24 21 17 15 17 21 23 21 7 3 3 7 4 5 3 5 4 4 1 3 5 4 4 6 4 3 1 3 3 4 5 2 3 4 2 3 1 4 2 6 5 3 4
40 35 31 26 24 20 16 16 19 23 25 20 6 3 1 7 3 1 3 4 4 3 6 4 4 3 5 4 4 3 4 0 5 1 2 1 5 3 1 5 3 1 2 4 4 3 1
39 34 29 26 22 18 16 16 21 26 28 11 4 2 3 2 4 2 4 4 1 1 3 2 3 2 2 5 6 2 3 1 3 3 3 2 2 3 6 6 5 2 3 5 6 3 4
37 33 29 25 21 18 15 16 23 28 28 11 4 2 4 4 1 7 3 4 1 4 3 3 3 5 5 5 6 4 3 1 2 3 3 5 3 5 6 4 3 3 2 3 4 3 3
36 32 27 22 20 17 14 16 24 30 26 8 2 4 5 3 2 4 5 2 3 2 1 3 4 3 5 4 3 4 2 2 3 2 4 4 3 1 3 4 2 1 3 5 6 4 5
34 30 25 21 18 15 14 16 22 30 22 3 4 4 3 2 6 6 3 5 7 2 3 1 6 2 2 6 6 8 6 2 3 5 4 4 3 1 1 6 6 3 5 6 5 4 6
31 27 23 20 17 15 13 15 24 31 22 4 3 2 5 3 4 5 5 6 8 5 6 3 9 5 5 2 4 5 5 6 5 5 3 4 5 3 3 4 5 6 7 6 4 3 6
30 25 22 19 17 14 12 15 24 31 26 5 4 4 4 2 3 6 6 2 6 4 7 1 5 6 3 5 5 7 12 12 12 8 4 5 4 3 2 3 2 6 4 6 4 1 3
28 24 21 19 16 13 11 14 22 32 22 6 4 4 4 2 2 4 7 6 6 6 5 3 5 1 9 5 5 5 5 6 5 7 6 3 5 3 4 3 5 6 5 6 6 7 5
27 23 21 18 15 12 11 12 17 24 21 14 7 6 3 6 3 6 5 3 5 4 5 3 5 9 7 4 4 4 4 4 2 1 4 5 6 4 2 4 6 6 3 4 4 5 10
26 22 20 17 14 12 11 13 14 19 25 15 4 4 4 4 2 4 4 6 6 4 4 1 3 3 3 3 3 3 3 3 4 5 3 2 3 4 3 3 8 7 4 2 5 7 8
24 21 19 16 13 11 12 11 11 14 13 10 7 4 3 3 2 1 2 6 4 3 5 5 4 4 3 4 3 4 3 5 2 4 5 7 6 4 3 1 8 7 4 7 6 1 9
23 20 17 15 13 11 11 12 11 15 18 11 6 11 12 5 3 4 10 7 1 7 6 2 5 4 5 4 1 3 2 2 2 3 2 3 7 5 9 6 4 6 5 4 6 6 7

GFSGBSN_925_spd_015.txt.gz
Wind_Speed
29 26 24 22 19 21 21 20 20 20 20 20 19 21 20 18 16 14 13 11 9 9 8 8 8 7 3 1 8 3 6 17 22 18 16 7 5 5 4 4 4 3 4 4 1 6 6
30 29 26 24 22 21 23 22 21 20 20 20 20 21 18 18 16 14 11 9 7 8 6 7 6 4 1 3 3 6 7 10 18 20 11 8 6 5 2 2 4 2 4 4 4 7 4
31 31 29 27 25 23 23 23 21 21 20 21 20 20 16 17 14 13 11 7 6 6 5 5 3 0 0 12 3 7 11 7 17 24 7 13 9 3 3 2 2 4 4 4 4 3 4
33 32 31 29 27 23 23 23 22 20 20 21 19 18 15 16 13 11 8 5 4 4 4 4 2 1 7 5 7 15 14 9 11 21 12 9 15 2 1 2 4 2 3 4 1 3 3
36 34 32 31 28 25 25 22 22 20 21 19 19 15 14 13 11 8 6 4 3 3 2 2 2 2 8 8 7 3 6 3 9 12 12 8 11 4 3 4 2 7 4 3 4 7 4
39 35 34 33 29 26 25 23 21 20 21 18 17 13 12 11 9 7 6 4 2 2 2 2 1 2 7 3 5 5 1 1 3 8 5 3 2 3 2 3 5 4 5 2 5 5 11
26 38 36 35 31 28 26 24 22 20 20 16 15 11 11 9 8 10 10 6 3 1 4 7 3 3 5 9 5 2 1 3 2 4 3 2 3 3 3 1 2 5 3 4 3 2 7
32 38 38 36 33 30 27 25 22 20 19 14 13 10 10 9 10 12 10 2 5 2 3 11 5 7 11 4 3 4 3 4 2 5 5 4 3 2 4 5 5 4 6 4 4 3 6
34 27 40 38 35 31 28 26 23 20 19 15 10 10 9 11 13 10 9 12 1 4 1 3 5 5 4 8 4 3 1 2 6 4 3 4 2 2 4 3 6 2 6 4 5 7 7
34 34 41 40 37 33 29 28 25 21 19 15 10 11 12 15 10 7 7 6 6 6 3 4 3 3 3 3 2 2 3 3 5 4 4 5 3 4 3 3 2 4 2 8 12 2 3
33 32 33 43 39 35 31 28 25 23 19 17 13 14 17 17 7 5 1 3 4 2 3 4 2 2 2 4 4 3 6 5 5 4 2 1 1 3 5 1 1 3 6 8 3 4 4
34 34 33 45 40 36 33 29 26 23 20 16 15 16 18 22 9 8 4 2 3 6 3 2 1 2 4 5 4 4 4 6 4 4 5 3 2 3 2 2 4 9 5 6 3 2 1
37 36 34 46 41 38 34 30 27 24 20 17 17 19 24 14 3 2 4 3 4 4 2 2 3 2 3 2 4 3 3 4 2 4 4 5 3 2 2 4 2 3 4 1 1 0 4
34 34 35 43 41 39 35 31 28 24 20 17 18 19 24 23 10 3 3 4 3 3 5 1 3 3 4 2 3 4 3 3 5 4 3 3 1 3 4 2 3 2 3 4 5 3 1
33 34 33 38 43 40 35 32 28 24 20 15 17 15 10 25 22 17 4 4 6 6 4 6 3 4 1 2 4 4 3 2 1 2 4 3 1 2 3 1 1 3 2 2 6 2 0
34 34 33 40 44 41 36 33 29 25 20 20 16 12 7 10 10 9 4 5 4 4 2 2 4 2 3 2 3 3 1 1 2 2 1 5 3 1 1 1 6 1 6 3 2 3 3
35 35 33 43 46 43 36 33 29 25 21 23 8 3 7 12 11 4 4 5 5 6 5 5 5 4 3 5 3 2 4 1 1 1 2 3 2 2 1 1 4 3 2 5 4 1 2
36 35 36 47 48 43 38 33 29 25 20 28 5 3 6 14 3 0 4 5 3 4 3 4 4 4 4 3 3 3 6 1 1 1 4 1 4 2 1 0 2 1 3 4 3 4 1
35 33 34 47 47 43 40 36 30 26 30 16 4 3 2 5 4 1 2 2 2 2 1 3 3 3 2 4 4 2 3 2 1 3 5 5 1 3 3 2 1 2 2 4 5 2 5
34 29 39 41 44 42 40 36 32 28 33 10 3 3 2 3 1 8 5 3 1 3 2 3 5 4 4 3 4 5 3 2 2 3 6 4 2 4 7 3 1 4 4 5 3 3 4
30 27 35 48 45 43 39 35 32 30 36 4 1 3 3 3 1 5 4 5 4 2 1 2 3 2 5 4 2 3 2 2 3 1 3 2 4 2 1 1 2 2 4 8 7 4 6
29 41 40 45 43 40 38 34 31 31 39 3 4 4 3 2 5 6 2 6 6 2 1 1 6 3 2 5 6 8 6 4 4 2 2 2 4 1 4 1 3 3 6 7 8 4 10
33 33 38 41 40 38 35 33 32 34 38 6 3 3 5 3 3 6 6 6 7 6 2 4 6 4 4 1 3 4 6 8 5 5 3 2 5 3 3 2 2 5 9 11 5 6 7
31 41 40 39 37 35 33 30 29 34 39 5 5 5 4 2 2 6 8 4 6 6 6 3 4 4 1 11 9 8 12 13 13 10 3 5 4 2 2 1 2 4 2 2 10 6 13
38 37 38 35 34 31 29 28 29 37 42 5 7 5 3 3 3 3 6 5 7 4 4 3 4 1 9 3 4 4 4 5 5 7 6 3 4 3 2 3 5 5 3 5 6 6 12
35 35 32 30 30 28 26 27 31 38 45 5 7 10 5 6 5 6 5 5 5 4 3 3 4 6 5 3 3 4 3 4 1 1 2 4 5 3 3 2 5 5 2 3 3 4 2
34 31 29 27 25 24 25 27 33 40 46 9 7 8 6 4 0 5 4 6 5 4 4 4 5 1 3 2 3 3 3 1 3 4 2 2 3 3 2 4 7 6 1 2 3 4 1
31 28 26 22 21 21 22 27 34 41 44 13 7 8 3 3 1 0 4 5 3 2 5 5 4 2 2 3 3 3 3 4 2 3 5 5 5 3 3 1 6 5 3 5 4 2 2
28 25 24 22 19 17 19 25 33 40 42 16 6 6 8 4 3 5 10 7 1 6 6 1 3 4 4 4 1 3 2 1 2 3 1 3 5 3 8 5 3 5 4 1 1 3 2

GFSGBSN_925_spd_018.txt.gz
Wind_Speed
30 27 25 23 22 21 19 19 19 19 18 16 16 17 17 17 16 14 13 13 10 10 12 10 9 8 3 5 7 7 7 23 21 16 16 12 11 8 11 11 9 12 2 3 5 6 11
32 30 27 25 24 22 20 20 20 20 19 18 16 18 17 15 15 13 11 10 8 8 10 8 8 4 3 6 1 4 8 18 14 15 12 11 5 6 4 3 10 2 4 1 4 11 6
26 35 29 28 25 24 21 21 19 20 20 18 17 18 16 14 13 11 9 8 6 9 8 7 5 2 5 10 2 8 8 7 14 17 13 14 6 5 3 4 3 7 7 5 6 12 6
28 24 34 29 27 25 22 22 20 20 20 18 17 18 16 14 11 9 6 4 6 8 7 5 2 1 7 3 4 10 11 8 9 15 12 5 8 8 6 1 4 7 7 8 6 11 4
28 28 30 32 29 27 24 22 21 21 20 18 18 17 14 12 9 6 4 4 5 6 5 2 1 2 5 3 5 6 10 4 7 10 8 2 9 5 5 8 6 7 8 8 9 2 7
33 29 27 35 31 28 26 23 21 22 20 18 17 15 12 9 6 4 4 3 4 3 3 4 5 4 8 1 2 1 7 11 4 12 8 3 4 6 6 9 9 8 8 13 12 4 8
30 31 28 31 34 30 28 25 22 21 19 18 17 13 10 8 5 8 6 3 4 5 7 6 2 5 4 9 3 5 5 9 8 6 4 6 6 6 11 8 3 6 6 11 8 4 5
34 36 31 28 36 32 30 27 24 21 19 18 16 11 9 5 7 9 6 5 6 4 5 16 12 10 11 5 3 4 3 5 2 8 2 4 4 3 5 5 4 5 9 8 5 3 4
33 34 36 31 36 34 31 29 26 22 19 17 14 11 7 8 11 9 11 15 3 7 4 4 7 6 4 8 3 6 3 4 4 3 7 8 5 2 4 6 6 4 4 10 6 7 3
35 35 35 34 31 37 34 31 27 23 20 17 14 11 9 15 7 6 8 12 15 7 4 5 4 4 5 4 4 2 2 1 2 6 5 3 3 4 6 5 3 5 1 9 13 12 8
37 37 37 35 33 38 36 32 28 24 21 18 15 12 17 16 3 6 1 3 5 3 5 6 5 4 3 5 6 3 4 2 6 6 4 3 5 5 5 2 1 3 7 9 7 4 5
37 39 38 35 34 35 38 33 30 25 22 19 16 13 20 18 7 10 3 4 5 3 4 6 5 6 7 3 3 3 2 5 3 4 3 4 2 2 3 5 2 11 10 6 3 2 6
38 38 38 36 35 33 39 36 31 26 23 19 16 15 27 11 4 4 5 6 4 6 2 7 9 7 9 5 4 3 4 7 5 8 8 6 3 4 3 9 6 6 9 4 5 6 8
38 37 38 39 36 35 38 37 32 27 23 19 16 16 27 18 8 1 4 5 6 3 7 2 5 8 9 5 3 3 7 8 2 4 8 9 7 4 2 3 3 7 6 4 5 5 4
37 35 36 38 38 36 38 39 33 28 24 19 13 15 10 18 19 3 4 5 7 5 6 8 8 13 6 5 4 5 3 5 2 1 4 5 4 4 2 2 2 5 6 2 2 1 3
38 36 35 37 38 35 42 40 34 30 26 23 14 10 13 13 17 10 5 7 5 3 3 8 12 10 12 10 8 8 8 3 4 1 3 3 3 2 4 1 6 3 8 3 3 3 4
35 36 34 35 37 34 43 41 36 32 29 23 12 5 9 17 17 6 8 9 4 6 5 9 9 7 10 9 7 9 8 4 3 4 0 5 3 5 3 6 6 4 4 1 0 2 3
32 34 37 36 38 33 43 40 38 35 29 30 11 8 12 22 8 5 11 7 3 4 4 6 4 5 11 10 8 7 9 2 3 3 4 3 1 4 6 4 2 3 4 7 4 4 0
28 32 36 34 35 33 42 42 41 39 39 18 8 4 5 7 9 6 5 7 4 5 6 8 8 3 3 7 4 5 5 2 3 4 5 6 4 4 5 5 5 7 8 4 5 1 6
29 30 34 33 35 32 49 44 44 41 40 23 8 8 5 6 3 15 12 13 10 3 3 3 4 3 6 4 1 7 7 3 3 2 3 2 3 5 7 1 1 6 11 11 10 4 4
29 30 32 32 31 37 45 44 45 44 43 17 5 7 10 10 9 14 16 13 15 6 4 5 3 6 7 5 5 5 5 5 4 4 2 3 5 4 1 1 3 4 8 13 15 13 8
27 31 30 32 28 38 44 44 46 44 43 13 7 5 4 14 13 13 12 11 16 7 6 7 6 8 6 5 7 10 9 7 4 6 4 1 2 1 3 2 2 7 11 12 16 16 14
29 29 32 31 38 29 39 44 44 46 44 9 5 2 9 4 12 13 10 14 14 11 2 2 7 7 5 3 4 8 7 7 5 6 5 2 5 4 2 2 2 6 15 17 13 12 14
29 31 27 30 36 36 42 43 44 46 40 18 6 4 6 6 9 13 14 11 13 10 7 4 4 4 5 15 16 14 14 12 10 9 3 5 5 1 1 2 3 1 1 2 13 16 16
28 30 37 30 42 44 45 43 42 42 39 10 6 4 4 4 9 10 13 12 9 6 5 6 4 3 16 3 3 3 2 2 4 7 5 1 3 3 3 4 7 11 4 4 5 6 5
31 39 34 30 35 41 41 41 40 40 45 7 6 6 3 7 7 7 16 12 6 5 5 4 6 12 1 2 2 4 4 2 4 4 3 4 3 2 3 3 4 3 4 1 2 6 6
36 33 33 30 35 37 37 38 39 41 50 8 6 8 4 3 3 9 12 12 5 5 6 6 8 3 2 2 2 2 3 1 4 5 4 2 0 4 4 4 6 2 1 3 3 3 5
27 26 29 33 34 34 35 36 37 43 52 7 6 7 2 3 5 2 4 6 5 6 6 8 6 2 2 2 2 3 2 4 3 2 4 5 6 3 2 3 4 5 5 3 4 3 5
26 29 31 31 31 31 32 34 37 44 52 10 6 9 11 5 4 5 6 3 1 3 7 12 1 6 6 3 1 3 2 1 1 2 3 3 3 1 6 1 2 7 6 3 3 8 8

GFSGBSN_925_spd_021.txt.gz
Wind_Speed
21 19 30 25 24 22 20 19 18 16 16 16 16 16 18 17 16 15 14 13 12 11 11 11 10 11 7 7 12 9 2 17 20 14 13 11 11 13 11 12 14 10 3 3 4 5 12
25 22 20 31 26 24 22 20 19 16 16 16 15 16 18 16 16 14 13 12 11 9 10 9 7 6 5 10 2 3 11 17 15 16 13 13 8 8 8 6 10 8 8 5 7 7 13
26 26 23 23 30 26 24 22 20 17 16 17 15 15 18 16 15 13 11 10 9 9 9 7 5 4 8 15 2 5 9 10 11 14 11 10 10 8 3 7 7 5 6 9 9 10 8
24 27 26 25 27 28 26 23 21 20 18 16 16 15 18 15 14 11 7 7 8 8 7 5 2 2 8 4 8 9 10 8 11 13 13 5 7 10 7 4 6 8 9 10 8 15 6
27 25 28 25 26 29 27 25 23 21 19 18 16 16 17 14 13 9 5 7 7 7 5 2 1 4 6 4 9 7 13 7 8 9 8 5 7 8 5 10 7 6 13 13 9 13 9
27 28 27 29 26 28 29 27 25 22 19 18 17 16 16 13 9 6 6 5 8 1 1 2 8 6 10 6 1 3 7 9 5 9 9 7 8 7 8 10 8 16 17 12 13 11 12
33 28 29 30 26 28 29 28 27 24 20 18 17 17 14 10 8 7 4 2 6 6 7 11 4 8 3 5 6 9 7 9 7 12 8 8 2 9 8 12 8 10 6 10 12 5 10
32 32 31 30 32 26 30 30 28 26 21 18 17 16 13 8 7 8 6 8 8 6 8 21 18 11 12 5 6 8 10 10 7 9 4 5 12 6 2 4 4 3 5 12 8 9 7
34 33 32 33 32 31 28 30 28 27 22 18 17 15 11 6 6 8 13 15 2 12 6 10 12 10 7 10 10 12 10 10 12 15 6 10 8 0 4 8 10 4 5 7 10 12 14
36 35 36 34 33 32 29 31 30 28 23 20 18 15 10 10 6 9 9 11 14 5 5 11 8 7 8 7 9 2 4 3 10 7 4 6 8 10 1 3 3 9 2 8 4 12 14
38 37 37 35 34 34 30 29 32 28 25 21 19 16 14 15 4 7 3 0 2 4 5 15 11 6 5 10 13 8 3 5 12 3 5 3 10 11 12 2 5 13 4 6 8 13 7
42 40 37 40 36 33 31 30 34 29 26 22 20 18 13 14 9 10 3 2 4 5 6 8 9 10 11 11 8 12 9 4 3 10 15 9 5 4 7 2 3 4 4 5 7 11 7
40 40 39 37 39 36 33 31 33 30 27 24 22 19 22 13 4 4 6 5 5 11 7 11 14 11 14 10 13 11 14 11 10 11 12 12 10 5 4 6 4 8 8 7 8 6 9
31 40 38 38 39 37 34 31 32 32 28 24 21 19 20 17 11 3 8 7 11 15 11 5 15 13 12 10 13 16 11 15 12 14 11 12 10 12 8 11 4 9 12 7 6 7 11
32 28 40 38 39 37 35 31 32 34 29 25 20 14 11 19 19 5 8 9 14 9 10 10 12 13 12 10 5 14 17 16 16 14 13 9 7 6 1 3 6 5 9 6 5 1 6
36 32 37 39 39 36 36 33 32 36 32 29 19 9 20 15 21 10 8 15 21 3 6 11 15 15 14 14 10 13 13 7 5 4 5 2 3 3 5 4 6 8 3 4 6 5 9
37 34 32 39 40 36 36 35 34 38 36 31 21 6 15 23 23 7 11 17 19 8 8 11 16 12 13 12 14 15 11 7 6 7 6 6 7 6 4 10 10 7 9 7 5 3 4
38 40 31 40 38 36 35 35 35 43 39 33 20 11 22 33 11 11 14 22 9 11 8 8 7 9 12 11 12 11 13 6 8 6 10 4 4 7 11 5 5 10 8 10 5 6 2
33 35 35 40 40 35 32 33 37 46 47 32 13 8 16 26 13 12 19 23 13 11 11 12 11 8 9 10 10 11 9 5 3 7 4 6 7 7 7 6 8 9 10 9 4 1 7
32 36 40 38 37 36 34 33 38 51 49 33 12 10 6 9 16 19 23 21 18 8 8 12 12 9 10 7 6 8 8 4 4 3 3 1 11 10 10 5 3 11 13 11 12 7 9
31 31 37 38 40 37 36 34 38 52 51 27 13 12 14 16 18 20 23 18 22 13 10 13 11 15 12 8 9 7 9 6 5 5 5 4 8 12 14 6 6 9 9 12 16 16 14
27 31 30 30 32 36 37 31 45 52 51 22 11 12 14 18 24 19 21 23 24 19 15 15 11 16 13 9 11 10 11 9 7 9 8 5 4 2 5 8 8 11 12 14 14 16 17
31 30 30 28 32 33 37 34 43 50 52 16 15 10 13 16 24 18 17 21 23 16 2 4 13 9 11 6 7 9 9 4 3 7 9 5 4 4 3 4 5 6 15 16 17 16 13
28 27 26 29 31 32 38 39 45 55 58 26 13 7 10 14 17 18 21 20 20 16 10 5 7 9 6 13 13 11 11 8 6 5 4 5 4 2 1 1 1 2 1 4 7 13 15
27 27 27 30 35 35 33 40 50 56 59 30 12 9 7 5 14 24 21 21 16 10 11 11 5 4 16 8 4 4 2 2 2 3 3 3 4 2 2 6 8 11 6 1 3 6 9
29 29 31 33 30 32 36 39 55 52 60 34 16 10 9 9 12 22 19 19 11 11 7 4 8 8 3 2 2 5 5 5 5 6 2 3 1 4 3 3 4 4 4 1 1 5 8
28 30 30 31 33 32 34 43 48 51 53 39 6 12 8 8 14 14 15 14 13 10 6 7 7 4 3 2 2 3 4 2 5 5 4 3 2 5 6 3 5 2 2 2 5 3 7
28 27 30 34 30 47 47 45 44 47 48 45 6 5 7 6 7 3 7 12 13 12 7 9 7 2 3 3 3 3 1 4 2 2 5 6 6 3 3 3 5 5 6 1 5 6 7
28 32 32 35 41 41 42 40 43 45 42 42 5 4 8 4 6 5 5 6 2 7 7 12 4 10 7 4 1 2 2 2 0 3 3 4 4 1 6 1 4 4 4 5 5 8 8

GFSGBSN_925_spd_024.txt.gz
Wind_Speed
23 23 19 17 23 23 21 21 20 19 17 16 17 17 17 17 19 17 17 16 15 13 12 11 13 10 8 7 9 6 2 11 14 10 15 13 10 11 15 15 11 13 13 4 7 4 19
20 24 25 21 19 24 24 22 21 19 18 17 17 17 17 17 19 16 17 16 13 12 13 11 12 5 6 9 4 6 5 14 11 11 13 12 10 10 11 13 13 8 11 6 5 7 3
21 23 23 25 22 21 25 24 22 20 19 18 17 17 17 17 19 16 16 14 12 11 11 10 8 4 10 13 7 3 8 9 11 15 11 8 12 7 6 8 6 5 7 3 5 11 7
24 22 22 21 25 21 22 25 23 22 21 19 17 17 18 17 20 16 15 13 10 11 11 8 4 3 8 6 10 12 10 7 9 9 15 12 9 9 11 13 3 7 2 8 10 5 5
25 24 24 23 22 24 22 24 24 23 22 20 18 17 17 17 19 16 14 11 10 11 8 2 4 5 7 2 10 14 13 11 4 8 12 7 4 10 12 7 8 3 7 12 9 17 11
27 27 27 25 23 25 24 24 24 24 23 20 19 18 17 17 17 13 12 9 9 7 4 6 11 8 10 10 14 5 10 8 5 5 4 8 5 8 9 7 5 9 12 11 11 11 14
30 30 29 27 26 25 25 24 25 25 24 21 19 18 16 17 14 11 7 6 5 5 11 9 2 9 6 2 5 10 9 8 6 9 9 9 7 4 9 13 12 15 13 15 12 12 10
30 30 30 28 31 28 26 23 25 24 23 21 18 17 15 15 11 7 6 6 8 8 9 21 18 15 17 9 7 14 13 10 9 6 15 6 2 7 14 13 13 15 10 8 8 5 7
34 32 32 31 29 32 30 26 25 25 24 22 19 17 14 12 6 7 14 18 11 17 6 11 18 14 15 16 14 14 12 12 4 3 2 6 5 17 19 9 12 13 3 8 6 9 9
35 34 33 33 31 31 32 31 27 24 25 22 19 17 13 8 5 9 9 14 18 9 5 9 13 10 16 9 15 15 18 11 12 12 15 9 22 23 6 13 10 6 11 4 11 11 7
37 34 34 33 33 32 31 30 28 26 26 23 21 18 16 13 8 12 9 4 4 4 4 11 16 13 16 15 12 9 2 14 15 10 15 11 10 12 9 2 12 3 15 12 16 8 4
37 37 37 36 34 34 32 30 28 26 27 24 22 19 15 9 14 15 8 8 3 3 6 7 10 10 13 15 17 17 10 10 9 11 7 6 10 2 6 9 13 12 10 13 9 8 2
42 39 38 36 36 36 35 32 29 26 27 25 24 21 22 11 3 7 8 6 5 7 7 8 12 14 16 14 14 14 16 13 10 10 9 10 11 6 12 10 3 8 9 6 6 6 4
39 39 41 40 39 38 37 36 31 27 26 26 24 21 21 20 13 8 7 7 10 12 20 4 14 15 16 14 16 15 14 13 16 16 8 7 8 9 7 11 6 17 11 2 4 3 11
41 43 38 35 39 41 39 37 32 27 26 28 23 16 14 19 21 6 7 11 9 13 20 10 14 13 16 13 9 15 17 17 16 18 4 6 4 18 5 3 4 6 2 3 9 14 3
43 43 39 34 32 41 41 38 34 29 27 31 20 12 19 20 19 10 8 18 14 21 11 12 14 14 14 15 9 13 15 13 8 8 18 9 5 27 8 4 7 6 7 3 2 2 4
41 41 39 39 25 39 40 38 34 31 29 35 21 6 12 25 23 7 12 17 18 24 7 6 16 15 15 12 14 12 11 11 15 12 5 5 18 6 6 7 9 6 6 7 8 4 1
40 36 32 38 34 33 42 38 35 33 33 39 17 9 33 41 10 11 14 22 21 22 10 9 16 16 15 12 13 12 14 13 11 8 5 6 3 4 10 2 6 8 9 10 3 4 2
36 36 35 35 36 29 39 39 38 37 40 29 11 8 29 27 13 12 18 25 24 24 14 15 15 16 10 11 7 10 5 5 6 3 1 1 2 4 8 7 8 8 11 10 5 3 5
36 34 36 37 38 29 37 39 40 40 43 30 10 10 5 9 12 19 23 20 24 23 17 14 16 13 8 10 9 9 6 4 3 3 4 4 5 8 6 10 4 7 12 10 10 3 3
36 35 36 38 38 32 37 38 40 40 43 29 7 11 11 13 17 19 20 18 25 21 19 15 16 17 11 8 11 7 7 7 3 3 2 2 7 10 13 15 3 10 11 8 12 10 10
34 34 36 35 34 36 40 38 37 38 41 25 10 10 12 9 19 21 20 25 24 22 17 15 15 13 14 9 9 10 11 8 8 7 7 5 1 3 3 11 14 12 14 13 15 13 14
32 33 34 36 37 40 42 40 38 38 44 11 19 14 9 12 22 20 20 22 24 18 19 18 18 14 17 5 10 10 11 8 4 9 9 6 3 2 2 5 6 5 9 16 15 14 12
31 28 32 33 44 41 40 39 37 37 43 22 25 10 5 15 19 23 25 23 23 21 12 10 12 14 9 14 13 12 12 10 8 6 7 3 3 1 1 1 1 7 3 5 5 8 10
31 26 28 29 33 36 36 37 39 33 45 40 24 4 4 9 17 25 27 22 23 19 13 10 7 7 14 9 4 4 2 3 1 3 4 6 4 2 2 4 7 11 2 2 1 3 11
29 28 26 26 27 31 33 36 39 40 32 48 32 13 6 10 17 30 23 20 13 6 3 5 10 6 4 2 2 4 4 5 6 6 2 3 4 1 3 2 4 0 4 2 2 2 9
26 25 24 24 27 30 36 37 40 39 41 32 23 25 9 5 13 20 18 14 11 9 6 11 5 3 3 2 2 2 3 6 5 6 4 2 1 4 3 2 5 3 5 1 2 3 4
25 24 24 24 29 35 34 34 32 37 38 33 34 39 9 3 11 18 16 15 8 11 7 8 6 3 3 2 3 2 2 3 2 6 6 6 6 3 2 2 5 5 5 3 4 4 7
28 25 25 28 30 33 33 34 32 27 33 35 18 38 38 10 5 15 15 11 4 7 6 9 5 9 5 3 1 3 2 2 3 2 10 3 4 2 7 4 5 3 3 3 5 4 4

GFSGBSN_925_spd_027.txt.gz
Wind_Speed
18 20 22 23 17 17 19 20 19 18 17 16 17 15 16 18 19 21 21 20 20 18 18 16 16 14 6 4 8 5 2 7 10 9 11 8 8 6 7 5 8 6 8 6 9 17 9
20 20 20 23 24 19 17 20 21 19 17 16 16 15 17 18 20 21 23 21 19 16 15 14 15 10 4 5 2 4 5 10 7 9 10 14 8 7 8 7 6 7 7 2 2 24 15
21 21 21 20 19 22 19 18 21 20 18 17 16 16 16 18 19 21 23 21 17 14 13 13 13 7 5 15 3 1 4 8 10 11 7 20 13 8 8 8 13 5 5 2 4 10 7
24 25 23 21 19 19 21 21 20 21 19 18 17 16 17 18 19 22 21 20 16 13 12 11 10 3 7 11 7 11 12 13 16 15 15 14 12 4 2 8 8 4 4 2 2 7 6
28 26 25 23 21 20 19 21 19 21 20 18 17 17 16 17 19 21 20 18 14 11 11 7 6 4 8 13 8 16 13 16 18 12 7 12 5 1 6 4 5 2 0 5 6 9 6
29 29 28 26 25 22 20 20 19 21 20 20 17 17 16 16 18 21 19 15 11 11 6 3 10 6 9 5 11 15 18 17 3 3 2 1 2 1 4 1 1 3 5 8 5 7 5
31 29 28 28 26 24 22 21 22 19 18 19 17 17 16 15 16 19 16 7 2 1 5 9 6 6 2 16 6 2 10 7 2 5 2 6 1 3 4 2 4 9 6 10 9 6 9
35 33 31 29 28 28 26 23 21 19 18 18 18 17 15 14 15 15 7 5 4 6 8 18 19 16 26 15 3 8 12 5 4 3 1 6 2 3 1 8 8 13 9 14 5 7 5
36 36 33 31 30 28 25 28 23 21 20 19 18 18 15 12 13 10 12 20 16 15 3 8 13 7 7 11 6 10 11 6 5 4 4 2 6 4 8 10 13 4 4 8 3 2 3
40 36 34 32 31 29 27 27 27 24 21 20 18 18 14 11 6 7 7 10 5 4 3 6 10 6 8 8 7 13 11 6 2 4 2 2 10 5 7 14 3 4 6 5 4 5 1
43 38 36 35 34 31 30 27 26 26 23 21 18 19 17 13 8 4 10 13 7 4 3 6 11 7 8 8 1 6 9 3 4 6 3 4 4 9 8 14 4 7 4 3 2 2 1
43 40 36 34 34 34 31 29 29 25 24 23 19 20 16 12 14 18 11 15 3 1 6 4 9 10 9 7 7 7 5 3 3 8 6 7 6 2 7 7 3 7 2 3 3 2 2
41 40 40 36 32 34 35 32 30 27 25 25 20 23 23 14 5 9 8 5 2 3 5 7 11 8 9 7 9 9 8 6 5 2 5 7 8 5 2 3 5 5 5 3 5 6 4
40 41 40 38 33 34 37 35 32 28 26 24 22 25 26 26 21 10 6 1 6 11 10 3 10 10 9 8 10 12 11 9 8 6 3 3 3 4 4 3 4 4 5 4 4 2 4
40 44 37 36 35 38 35 39 35 31 26 23 21 26 15 28 24 10 2 9 8 7 9 4 7 7 9 11 7 8 7 10 9 8 7 4 1 5 10 4 2 4 1 6 6 4 4
44 38 36 33 34 37 39 41 39 34 28 25 21 13 12 25 16 10 5 8 7 14 3 4 8 8 8 9 8 10 8 6 7 3 9 5 2 3 8 7 12 4 3 1 3 4 4
42 40 37 36 40 40 39 42 44 38 32 29 13 5 13 26 16 4 12 10 11 19 12 6 8 8 9 7 10 4 8 10 7 9 11 5 4 5 3 5 12 1 3 2 3 5 4
43 41 39 38 39 41 33 42 45 40 35 35 7 7 26 40 6 4 13 12 10 17 12 11 2 3 7 6 8 9 11 2 7 9 9 10 5 4 15 15 6 4 5 5 5 5 2
43 40 38 38 40 42 31 38 46 44 44 32 6 5 27 31 12 11 7 14 17 20 17 6 2 2 3 3 6 8 4 4 6 5 6 2 0 2 7 6 5 3 4 4 4 3 4
44 41 37 38 35 43 41 25 44 46 48 27 5 8 5 8 10 18 16 17 21 13 20 17 7 6 6 4 14 7 4 2 5 4 3 4 3 6 6 7 2 3 3 5 5 4 3
44 41 37 36 39 34 34 40 37 46 50 26 4 7 8 13 16 13 18 14 17 17 16 7 8 9 7 4 1 5 5 4 2 2 2 4 4 1 3 5 5 4 3 6 5 6 6
43 41 39 35 39 38 33 40 34 46 48 30 4 8 6 4 16 16 19 21 24 20 15 17 10 10 7 5 6 7 7 5 5 1 4 1 1 2 2 6 7 4 6 7 7 6 2
41 41 41 40 40 39 37 37 29 45 46 8 10 8 8 7 19 17 21 22 22 15 10 11 8 5 6 3 6 4 5 6 9 8 6 5 5 3 3 4 5 6 7 7 5 4 4
40 39 39 40 38 37 36 39 34 43 49 17 15 5 4 8 13 23 21 22 25 23 11 9 8 8 3 10 7 8 13 11 10 7 5 5 5 3 3 3 1 8 1 5 5 5 8
38 37 33 37 40 40 37 39 38 41 42 35 17 4 1 3 15 17 20 24 16 16 17 3 2 7 11 6 4 4 5 5 3 4 6 4 5 2 4 4 5 7 3 2 3 4 5
31 32 29 37 36 37 36 38 42 40 35 34 34 21 2 2 14 22 24 20 12 7 3 2 7 8 6 3 4 4 4 6 4 3 8 6 5 4 2 4 6 6 3 5 4 2 4
25 27 30 35 33 40 40 38 39 39 36 29 15 20 5 3 5 9 22 21 11 5 5 5 5 5 3 3 3 3 3 7 6 9 4 3 3 5 2 2 7 6 5 2 6 6 4
23 25 26 29 28 38 39 38 38 34 38 31 21 24 4 3 5 5 13 8 6 7 7 7 5 5 2 4 4 3 3 5 4 7 7 6 6 3 3 3 6 6 3 6 6 3 6
24 26 26 27 27 31 35 36 37 38 36 39 12 22 21 2 6 25 13 5 9 10 8 5 7 9 6 4 2 4 2 2 3 3 3 1 6 5 6 6 7 3 7 6 7 6 5

GFSGBSN_925_spd_030.txt.gz
Wind_Speed
18 18 19 21 23 21 17 16 20 18 16 15 15 15 15 15 17 18 19 22 23 20 17 16 16 16 6 3 8 9 3 8 11 8 5 3 1 1 3 3 5 6 14 3 9 11 6
21 21 20 20 20 22 23 18 17 20 19 17 15 15 15 15 17 18 19 22 22 19 15 14 14 10 3 4 4 2 4 9 8 10 4 4 4 5 5 4 3 6 3 8 10 6 4
23 23 22 21 20 18 18 21 18 19 20 20 16 15 15 16 17 19 19 21 21 18 13 12 11 6 1 13 2 3 3 4 9 9 4 7 8 3 2 6 7 4 3 12 6 7 3
27 26 25 25 23 21 17 17 20 17 17 20 17 15 15 16 17 19 19 22 20 16 11 9 7 3 7 7 15 15 16 11 9 11 12 10 7 3 0 3 7 6 5 5 9 8 9
30 30 27 26 25 22 19 18 18 19 19 19 18 15 15 16 17 18 20 22 20 14 9 5 3 1 9 11 9 15 13 14 15 14 18 13 3 2 6 3 5 5 1 2 3 9 7
32 31 31 29 28 26 23 20 19 19 17 17 19 16 14 15 16 18 20 21 15 11 2 1 4 5 8 3 7 11 15 15 5 4 3 3 5 3 3 4 1 2 2 3 3 4 5
35 33 31 30 28 28 26 23 20 19 19 17 18 15 14 13 14 16 19 7 2 1 2 8 5 4 6 10 9 10 15 7 3 6 2 2 4 2 5 5 2 2 5 7 13 9 5
41 37 35 33 31 28 28 26 22 20 19 17 16 15 13 12 13 14 13 1 4 2 8 16 17 11 22 9 5 6 12 5 3 4 0 4 2 3 4 2 4 5 7 8 12 8 6
45 42 40 35 33 31 29 28 25 23 19 18 16 16 13 11 11 12 7 10 9 14 4 8 7 6 6 11 7 6 8 5 4 3 4 5 5 3 2 3 4 6 5 6 5 4 6
46 44 42 39 37 33 32 30 26 24 21 18 18 16 14 9 6 4 6 12 9 9 3 6 7 7 6 5 5 8 10 7 3 8 3 3 1 2 3 3 4 7 6 5 6 4 0
48 46 44 40 37 35 33 30 28 24 23 21 18 17 17 13 2 4 0 16 6 3 3 4 6 6 9 8 3 3 10 4 7 6 4 6 5 3 2 7 2 9 4 2 2 4 3
46 48 45 45 40 36 34 33 30 25 23 22 22 19 18 14 14 14 17 16 3 2 8 4 7 7 6 6 4 1 5 3 5 4 2 4 3 5 7 6 5 5 3 6 5 3 2
49 45 47 46 44 38 35 34 33 28 24 22 24 20 25 16 5 5 7 2 3 5 5 5 7 8 9 7 5 7 4 4 5 4 3 4 4 6 3 2 3 3 5 3 4 4 5
47 46 51 45 43 42 35 33 33 30 26 22 23 20 28 25 18 5 2 2 9 7 7 3 7 11 9 7 9 6 7 6 4 4 3 4 4 3 3 4 2 5 5 5 4 2 4
51 49 50 48 44 41 37 31 30 31 28 23 21 19 16 30 22 6 2 9 8 6 5 4 4 8 5 7 7 6 8 9 9 9 7 5 4 5 5 4 5 4 2 4 6 4 2
49 50 46 48 45 40 40 37 32 32 29 25 21 13 13 24 21 8 5 14 6 9 5 4 7 7 9 9 8 8 9 6 7 8 6 7 1 5 6 3 4 6 4 1 3 3 3
50 50 47 45 39 40 36 37 38 32 31 27 18 6 17 25 20 3 12 11 14 21 6 4 3 5 9 8 10 7 9 6 9 5 6 6 4 3 2 3 7 2 0 2 4 4 4
53 51 47 46 46 42 37 35 35 36 33 31 9 7 30 38 7 4 15 13 11 20 6 7 4 10 9 9 8 9 11 9 7 12 10 8 5 3 10 8 2 4 6 6 5 4 1
54 53 53 48 43 43 40 39 37 40 42 30 5 5 27 31 12 13 8 19 19 12 7 4 5 7 2 6 5 5 1 1 2 10 9 7 1 2 7 6 4 5 6 4 4 4 6
54 52 50 50 47 44 43 42 37 44 46 37 6 9 6 9 10 20 18 16 19 14 18 10 9 7 2 3 2 4 4 2 3 4 4 8 4 7 7 6 3 2 1 3 5 3 4
55 52 50 49 46 43 42 42 40 42 51 42 6 7 8 15 17 15 20 14 21 14 11 7 9 17 9 4 4 6 5 2 4 3 3 4 5 4 4 4 1 1 5 4 5 5 5
56 53 50 48 45 43 41 39 38 36 51 35 6 4 7 5 17 20 21 23 26 19 11 18 14 12 8 7 8 8 8 4 5 2 3 2 3 1 2 3 3 3 6 5 5 3 5
54 52 49 46 44 42 41 40 43 45 46 10 22 7 7 6 18 17 23 24 26 20 11 23 11 14 5 9 5 5 6 8 11 9 5 5 6 3 4 4 4 5 7 7 6 3 4
51 49 47 45 43 43 39 32 46 42 33 14 22 4 5 9 15 23 24 24 27 22 20 14 22 10 3 9 7 8 13 10 9 6 5 6 5 3 3 3 2 7 5 3 9 5 6
48 47 46 44 41 40 40 41 35 38 32 32 8 7 2 5 13 13 25 24 13 18 14 21 4 6 12 5 4 5 5 6 5 7 5 3 4 2 4 3 5 6 4 5 5 1 1
45 45 43 43 42 40 39 41 38 39 33 43 24 13 3 3 12 12 20 22 18 10 12 5 1 2 4 3 4 5 5 6 3 4 6 7 6 4 3 4 7 7 4 3 5 1 5
43 42 42 40 38 37 38 40 36 35 36 37 16 23 1 3 4 17 14 18 13 4 8 4 5 3 3 3 3 3 3 7 6 9 5 4 3 5 2 3 7 8 6 2 5 6 6
37 37 36 35 36 37 38 40 33 39 38 36 10 16 7 3 7 6 7 14 9 11 9 5 4 2 3 4 3 4 3 5 4 7 7 7 6 3 3 2 7 6 4 7 6 4 7
31 33 33 34 38 39 37 36 37 35 39 34 5 22 16 4 4 15 14 18 26 9 6 3 4 6 5 4 1 4 2 2 4 3 3 2 7 6 8 6 5 2 3 4 6 7 4

GFSGBSN_925_spd_033.txt.gz
Wind_Speed
21 20 20 20 21 23 22 19 17 17 19 18 15 15 14 14 15 16 18 19 20 20 20 18 17 15 7 3 7 8 8 5 11 8 4 3 2 3 2 4 2 4 5 5 5 8 4
22 23 24 22 22 22 20 22 22 18 18 20 19 16 15 15 15 17 18 19 20 20 18 15 14 11 3 4 3 4 3 8 6 6 7 5 5 5 4 5 3 2 6 4 2 8 5
25 24 25 25 23 22 21 19 19 21 18 18 19 18 16 15 15 17 18 19 21 20 17 12 9 7 1 12 1 3 4 4 5 11 4 5 4 1 2 7 2 4 3 3 3 1 4
29 28 28 26 25 24 23 21 18 19 21 18 18 18 18 16 15 17 19 19 21 20 15 8 5 3 7 4 6 15 12 17 10 11 11 8 8 4 2 5 7 4 4 3 2 2 3
32 30 28 29 27 26 24 23 20 18 20 19 17 18 17 15 15 17 19 21 23 19 9 4 1 1 9 9 9 13 12 10 2 10 9 9 3 1 5 2 5 6 2 3 1 5 2
36 34 32 30 30 28 26 25 22 20 18 19 19 18 17 15 13 16 19 22 16 7 1 1 1 4 7 2 3 7 12 13 6 3 3 4 5 3 3 3 2 3 4 3 3 3 6
41 38 36 33 30 29 28 27 26 23 19 19 18 17 17 14 12 15 17 7 3 1 2 7 4 4 4 12 8 6 7 9 2 5 0 3 4 2 4 4 2 3 2 2 4 5 5
41 43 39 37 34 30 28 25 24 22 20 18 18 17 16 13 11 13 12 2 3 1 7 12 15 8 15 4 5 4 9 5 4 4 1 4 1 5 5 7 4 6 5 10 9 7 8
43 40 43 40 39 35 31 28 26 25 23 20 17 16 15 12 9 11 7 7 15 9 3 7 6 6 5 12 7 6 8 5 4 5 5 4 5 1 1 2 1 2 3 7 8 4 4
45 41 41 43 43 37 35 31 29 26 25 22 17 16 15 12 5 6 5 3 11 12 2 6 5 7 7 7 5 11 9 6 1 9 5 4 3 2 2 2 4 5 3 6 4 1 2
49 47 42 43 44 43 40 35 31 27 26 21 19 17 17 18 3 4 5 11 5 2 3 3 4 4 8 10 3 5 10 4 7 6 5 6 4 3 2 5 6 9 3 5 1 3 3
49 47 44 42 43 44 41 37 34 30 26 22 21 19 18 19 18 11 5 8 5 5 6 4 7 7 6 5 2 4 5 4 4 5 2 5 4 3 5 2 6 3 2 4 4 2 2
51 49 45 43 43 43 41 39 34 30 28 23 21 21 21 17 4 12 7 3 2 4 4 5 6 7 7 6 4 3 5 5 5 3 3 2 3 2 2 2 4 5 5 3 4 4 4
53 52 48 46 44 44 43 41 37 31 30 25 22 20 22 24 13 5 4 3 8 7 6 5 4 5 9 6 6 7 5 5 3 4 3 4 4 4 1 4 4 1 5 4 3 3 4
56 53 50 46 45 47 45 42 39 33 30 25 20 20 19 26 22 9 2 9 7 6 4 4 4 5 4 4 6 4 8 7 8 7 6 4 4 2 3 2 3 3 2 3 6 3 2
57 55 52 47 47 44 45 42 38 34 29 27 21 14 19 21 28 4 6 17 7 5 3 5 8 6 9 7 7 8 9 6 6 11 5 6 1 3 4 2 4 2 6 1 3 2 3
59 57 53 49 48 46 47 44 41 40 30 28 18 4 17 23 20 3 12 11 13 13 4 3 3 5 8 8 10 7 8 5 7 3 6 5 4 4 1 5 9 2 2 3 4 5 4
62 58 55 52 48 46 51 46 41 40 32 28 11 7 29 36 7 5 13 7 4 14 2 3 3 5 6 8 8 9 10 10 10 10 9 8 6 4 9 3 4 3 2 5 4 4 1
61 60 57 52 48 47 52 49 43 41 43 25 7 5 28 30 12 15 7 12 9 9 7 6 5 3 1 7 5 6 7 4 6 8 9 7 1 2 7 6 4 1 4 4 4 3 6
61 62 58 53 48 50 49 49 48 43 45 22 4 7 7 10 17 18 20 16 19 14 12 1 3 2 2 3 2 8 6 3 5 5 7 9 4 7 7 8 4 2 3 4 5 3 3
61 62 59 55 54 52 51 50 49 45 43 29 5 8 8 14 21 19 19 14 25 13 17 13 5 7 3 4 1 3 3 3 3 3 2 6 5 4 3 3 4 5 5 6 7 5 6
59 64 59 57 54 56 55 53 47 45 41 27 7 5 7 1 18 25 18 21 26 23 10 9 15 7 13 10 8 8 7 4 6 3 3 2 3 3 3 3 3 4 7 6 5 4 7
60 63 60 58 55 56 58 57 55 49 41 8 17 5 3 11 20 18 29 24 25 17 19 8 19 11 6 14 10 8 5 6 10 10 5 5 6 4 4 2 2 6 8 7 7 6 6
63 61 59 57 56 58 55 52 52 52 51 20 22 3 4 8 15 25 21 19 24 27 14 20 21 7 5 5 5 6 9 12 9 7 2 6 6 3 3 3 1 7 2 7 5 2 4
63 59 56 55 55 56 54 52 51 52 48 36 22 11 2 4 18 15 23 23 15 17 18 18 7 9 9 3 3 4 5 5 4 8 5 2 6 3 4 4 4 4 4 6 5 3 3
58 56 54 54 54 52 50 48 47 45 47 44 20 24 4 4 9 13 19 19 17 16 8 8 9 3 6 3 3 6 5 6 3 3 4 5 6 4 3 5 8 8 4 4 6 2 5
53 52 51 51 50 49 46 45 44 43 44 34 15 24 13 2 4 12 13 16 12 11 8 4 7 3 3 3 3 3 3 5 7 10 6 3 4 5 2 3 7 8 5 5 6 7 8
47 46 45 45 44 44 44 43 43 40 36 37 25 21 11 2 6 4 4 5 14 13 13 6 4 1 3 5 4 4 3 6 4 5 7 7 7 4 3 3 7 6 5 8 6 2 7
40 41 41 41 39 40 41 41 38 35 35 43 12 18 14 1 4 13 21 26 17 10 9 5 6 6 5 4 0 3 3 2 5 3 2 2 7 6 8 6 4 3 4 3 5 8 6

GFSGBSN_925_spd_036.txt.gz
Wind_Speed
22 22 22 23 23 22 21 22 23 21 18 19 20 18 18 17 17 16 17 18 19 20 22 21 19 16 6 4 7 7 4 12 12 9 6 3 2 3 1 3 2 3 4 2 5 7 5
26 25 24 23 23 23 22 21 20 22 22 19 18 19 19 19 18 17 18 18 19 20 21 20 16 12 2 4 3 2 4 10 8 7 5 4 4 4 3 2 1 3 5 2 4 3 4
26 27 27 25 24 24 24 22 21 20 20 22 19 19 19 19 19 18 19 19 19 20 20 18 11 7 1 12 4 3 3 3 4 6 2 6 4 2 1 4 3 3 0 2 2 4 3
31 30 29 28 27 25 24 23 22 22 20 19 20 19 20 17 20 19 20 19 20 22 21 12 6 4 7 5 8 14 10 6 9 8 13 10 6 4 2 4 6 4 3 1 1 2 1
34 33 31 30 28 28 25 25 24 21 20 19 19 18 17 17 19 20 20 21 22 22 11 5 1 1 9 6 8 9 11 5 3 6 10 9 3 0 4 2 4 6 1 4 3 4 3
35 32 35 33 31 30 27 25 25 24 21 19 19 18 17 17 18 19 19 22 16 5 1 3 1 3 7 1 4 3 4 6 1 2 2 3 5 2 3 3 2 1 2 3 2 3 2
38 38 32 37 34 32 30 26 25 25 24 21 19 18 16 15 16 18 17 11 4 2 3 7 4 4 4 9 5 5 5 8 3 5 2 3 4 2 5 5 4 3 2 3 5 4 6
39 39 37 32 37 35 32 28 26 24 22 19 18 16 16 12 16 14 13 3 1 1 7 10 13 8 11 3 4 4 12 5 5 4 1 5 3 6 4 3 4 2 4 6 6 3 5
41 40 44 38 33 35 35 32 29 25 21 20 18 15 12 13 12 11 11 10 6 4 3 7 6 6 5 12 7 6 8 5 4 4 4 5 4 2 3 3 4 4 2 5 4 5 1
45 42 42 41 38 35 34 35 32 29 25 22 20 16 12 11 5 6 6 1 12 10 3 7 5 7 7 7 4 10 11 6 2 8 6 4 4 3 1 2 4 2 5 3 5 1 1
48 46 44 43 41 36 37 35 35 31 25 23 20 16 14 12 1 3 2 8 7 3 3 3 4 4 5 9 5 6 7 4 8 6 6 8 2 5 3 5 5 8 3 2 2 2 3
50 49 47 45 42 42 39 37 37 35 29 25 22 17 16 11 16 13 5 14 3 3 7 4 6 6 6 5 3 3 5 6 4 5 1 5 2 4 5 4 6 1 2 6 4 3 2
50 50 49 47 44 40 40 40 36 35 32 26 23 19 19 11 4 18 14 2 4 5 1 5 5 6 6 6 4 5 7 6 6 4 3 2 3 2 3 2 2 3 5 3 3 4 4
52 51 52 49 46 42 40 38 38 36 34 28 25 19 22 22 20 5 3 4 10 5 6 3 1 4 8 6 6 5 6 6 2 4 3 5 5 6 3 6 7 3 6 5 2 2 3
54 52 52 52 49 44 40 39 38 38 35 26 24 21 21 20 22 10 2 10 7 6 4 3 2 5 4 4 6 4 8 8 9 8 7 4 4 1 1 1 2 3 2 4 6 3 2
56 55 53 53 51 47 43 40 39 39 37 27 22 13 22 20 23 8 4 17 7 4 3 2 7 6 9 7 6 8 9 6 7 10 5 7 2 1 1 2 2 2 6 3 3 2 3
58 55 54 54 55 49 45 42 41 42 39 31 21 5 10 26 19 3 10 10 16 11 2 2 2 2 7 8 9 6 9 2 8 6 5 5 4 4 0 5 8 2 2 4 5 4 4
56 55 55 54 56 52 47 44 41 46 43 38 10 6 24 37 10 8 17 7 8 17 2 4 3 4 4 7 7 8 10 10 10 10 9 7 6 4 9 3 3 5 6 6 5 4 1
53 55 55 54 57 54 50 47 44 47 49 35 6 5 30 33 14 17 13 13 5 14 8 6 4 4 1 4 4 6 7 5 9 8 9 7 1 2 7 5 4 4 4 3 5 3 6
52 52 52 54 59 56 52 49 48 52 51 34 4 8 6 11 17 19 23 16 23 6 4 6 2 3 1 3 4 7 7 5 8 8 7 7 4 7 8 8 4 4 6 5 5 4 4
53 52 52 54 60 58 53 51 52 55 53 33 5 7 6 14 22 21 19 14 21 17 16 8 2 5 3 3 1 4 2 2 2 6 5 7 7 5 4 4 4 5 4 8 7 5 6
54 52 52 51 61 60 54 53 59 60 51 20 4 4 4 6 20 24 13 24 24 23 8 16 6 9 8 5 7 5 3 4 6 5 6 1 5 4 2 2 2 3 5 5 4 3 5
51 50 51 51 62 61 55 56 61 61 53 9 13 6 3 14 20 18 30 18 20 19 20 7 21 17 8 20 16 8 6 4 1 5 9 7 7 4 4 3 4 7 9 9 6 5 7
46 49 48 47 64 60 55 56 67 67 62 18 20 3 4 7 13 24 18 21 21 22 13 19 7 13 7 4 5 4 5 5 7 5 1 8 7 2 3 2 2 7 1 3 8 7 6
45 45 48 52 62 58 60 64 61 58 55 24 22 6 2 4 12 11 17 25 15 15 14 12 14 4 4 4 3 1 4 3 2 5 5 2 6 3 5 4 5 4 5 7 8 8 7
44 45 46 62 61 61 64 63 61 49 51 33 19 20 3 2 5 9 14 14 18 14 9 8 15 2 5 2 2 6 6 6 5 3 4 5 6 5 3 5 8 8 5 5 4 4 8
43 42 55 60 60 62 62 62 58 54 45 33 18 19 0 1 4 2 15 12 9 12 1 5 13 4 6 1 3 3 5 4 6 10 6 3 3 5 2 3 7 8 4 4 6 8 8
41 52 57 57 55 58 56 55 52 47 44 36 23 21 6 4 9 6 4 7 10 15 13 4 5 4 3 6 4 4 3 6 3 4 7 7 7 3 3 3 7 7 4 9 7 1 6
54 54 54 52 51 53 53 49 45 43 40 33 9 26 26 5 2 5 13 19 8 2 11 8 7 6 6 4 1 2 2 0 5 4 0 3 6 7 9 7 4 6 5 5 4 6 7

GFSGBSN_925_spd_039.txt.gz
Wind_Speed
20 20 20 19 19 17 17 18 19 20 20 22 20 19 19 20 19 20 20 19 20 21 21 22 22 18 8 3 6 3 3 12 14 9 7 4 2 2 1 3 2 5 5 3 5 4 4
25 24 22 21 22 20 18 18 19 19 19 20 20 20 19 19 20 19 21 21 21 21 21 22 21 14 2 4 2 2 8 13 7 7 6 4 2 2 2 4 3 2 2 1 2 3 4
23 27 26 25 22 22 21 19 19 18 18 19 20 20 19 19 19 19 21 22 21 22 22 22 17 8 1 12 3 7 9 4 8 7 4 4 2 1 1 4 2 2 1 3 2 1 2
30 25 25 28 26 24 22 22 20 18 19 19 18 19 19 19 19 18 20 22 23 24 25 20 8 3 7 3 6 11 9 5 9 7 6 4 1 2 2 4 4 2 3 1 1 1 2
29 31 31 25 29 27 25 23 21 20 19 20 18 16 17 18 18 19 21 22 24 26 14 4 2 1 8 3 5 9 15 5 7 8 5 3 2 1 1 1 2 5 1 0 2 3 4
30 30 30 33 29 28 29 26 23 21 20 20 19 18 16 16 17 19 21 22 23 10 1 2 1 2 6 2 1 3 9 9 3 4 2 2 3 0 1 1 3 3 1 1 1 2 3
33 31 31 30 35 29 28 29 26 23 20 20 19 18 14 13 15 17 17 10 4 1 5 7 2 3 4 7 3 5 6 9 3 3 2 1 2 5 8 5 4 4 3 0 2 3 3
36 36 34 33 33 34 29 27 29 25 21 19 17 16 13 9 10 13 11 2 5 2 8 11 13 8 12 0 4 4 10 5 4 5 3 1 3 3 3 5 5 3 1 2 1 2 6
41 40 38 35 33 31 31 28 28 29 24 19 16 14 14 10 8 9 10 11 9 9 3 6 7 6 5 13 8 6 10 5 4 5 5 4 3 2 3 3 4 2 1 2 3 1 2
43 41 40 39 37 35 31 33 29 29 27 22 18 14 12 9 4 7 6 3 7 8 4 6 5 6 7 8 5 11 13 5 2 9 7 4 1 2 2 4 3 2 1 3 3 1 2
45 44 43 42 40 38 36 31 35 27 28 24 20 16 12 10 3 3 4 13 7 4 4 2 4 5 6 9 8 7 10 3 8 6 5 4 4 3 5 5 5 4 3 1 1 2 2
48 47 45 44 43 41 38 34 32 36 29 27 21 18 13 12 12 10 5 13 1 1 7 2 6 5 6 3 3 4 5 5 4 5 1 3 2 5 5 3 4 4 2 4 3 2 1
48 47 47 46 44 43 41 38 35 37 31 28 26 21 19 13 6 16 13 5 2 6 5 4 4 6 6 6 5 4 7 6 6 5 4 0 3 2 3 3 1 2 2 1 1 1 2
50 50 47 47 46 45 43 40 36 33 37 31 27 24 23 22 16 5 7 3 10 5 10 3 2 5 8 6 4 4 8 10 2 4 3 6 3 7 4 5 6 5 4 4 3 3 1
51 51 50 49 48 47 46 42 38 34 35 33 27 27 22 25 24 10 3 10 8 7 4 3 2 4 3 3 5 4 7 14 10 8 5 4 4 1 2 2 3 3 3 2 6 2 0
54 53 52 51 49 49 48 45 41 37 33 31 26 17 21 27 25 9 5 21 10 7 1 1 4 4 9 6 4 9 8 5 7 9 4 6 1 1 2 2 3 2 6 2 1 3 3
53 55 54 51 50 49 51 48 43 39 34 34 19 5 15 27 23 6 15 16 21 9 2 2 2 2 4 6 7 5 9 3 8 8 4 5 2 2 2 5 7 3 3 4 3 1 3
43 48 52 52 50 51 53 52 47 42 37 38 12 8 23 39 12 8 18 16 6 16 4 5 2 3 3 6 6 7 12 9 9 12 9 5 4 4 7 1 2 3 6 6 3 5 1
47 46 48 47 49 53 53 55 51 46 44 32 6 7 24 34 14 17 16 28 4 15 14 6 7 5 1 3 4 6 6 5 9 9 9 7 2 2 2 1 1 4 5 4 4 2 7
50 49 50 49 47 50 55 58 55 51 51 31 5 8 6 13 17 23 19 20 26 6 8 9 3 3 1 2 3 5 5 4 8 7 6 9 4 6 10 7 4 4 5 5 5 3 4
54 53 51 51 49 51 56 62 58 54 56 35 6 6 8 13 22 22 21 19 25 17 13 11 5 7 5 5 1 4 3 2 3 6 4 6 7 6 4 3 5 5 6 11 9 6 7
54 55 54 52 52 53 54 65 61 57 59 25 4 4 4 5 25 22 16 19 26 25 16 16 14 13 12 4 6 6 5 2 2 1 6 3 4 5 4 3 5 5 3 9 10 2 8
52 55 55 53 51 52 53 67 63 58 62 12 11 3 8 15 19 20 25 21 17 19 18 5 13 2 8 18 10 3 1 3 4 5 4 4 7 4 4 1 1 4 8 10 4 5 6
51 54 54 52 50 51 48 67 64 62 69 19 17 4 6 11 13 21 19 19 22 25 11 17 7 16 4 4 3 3 4 3 6 2 4 6 4 2 3 2 7 2 1 3 11 9 10
46 50 50 50 50 51 50 67 64 64 67 26 19 5 2 9 12 16 17 24 9 18 18 7 10 4 6 2 4 3 3 2 1 1 4 3 5 3 5 5 4 2 5 7 7 15 11
33 48 50 46 48 43 58 66 63 63 66 25 22 8 2 10 5 10 19 16 19 9 9 6 5 3 6 2 3 6 6 4 4 4 3 5 3 3 3 5 9 4 3 5 4 13 8
32 42 43 45 47 40 64 63 60 62 61 33 15 21 6 4 2 1 12 13 13 11 4 4 6 3 4 2 2 3 4 4 5 8 6 3 2 5 3 3 6 6 4 6 6 12 6
33 37 41 45 41 53 61 58 59 59 55 31 14 26 14 3 3 2 3 1 8 16 11 4 4 4 2 5 3 3 4 6 4 2 5 7 8 4 3 2 6 8 6 10 6 2 5
34 38 42 42 52 59 55 54 56 59 51 33 10 15 18 1 2 9 6 10 8 12 13 10 7 6 6 4 3 2 3 2 5 5 1 4 6 7 9 7 2 10 4 8 4 4 5

GFSGBSN_925_spd_042.txt.gz
Wind_Speed
19 20 20 19 18 17 17 16 16 15 16 17 14 16 18 17 17 17 19 20 23 24 24 25 25 23 9 6 6 4 1 12 14 8 9 7 6 3 3 3 3 10 9 8 5 3 2
23 20 20 22 21 19 18 17 17 17 16 16 16 16 15 16 16 16 16 19 23 24 24 25 26 20 5 8 2 3 7 13 9 10 8 5 2 2 2 5 5 6 9 1 3 1 3
22 24 24 18 22 22 21 19 18 17 17 16 16 16 15 14 16 16 17 18 22 24 25 27 26 8 7 12 3 7 10 7 8 8 5 4 3 5 3 4 2 9 8 6 6 4 2
24 24 24 27 24 21 23 22 21 19 18 17 17 17 15 15 14 14 16 19 21 24 26 25 13 3 8 4 7 9 10 6 7 9 4 2 5 6 3 3 4 8 7 5 4 6 3
24 25 25 25 26 28 23 23 24 21 19 17 16 18 16 16 14 13 15 18 21 25 21 10 2 4 7 3 7 14 14 5 9 8 4 4 6 5 4 8 7 7 5 6 3 6 2
28 27 26 26 26 25 27 25 23 24 21 18 16 14 17 16 14 13 15 16 20 16 2 1 4 5 8 4 4 5 14 11 5 8 5 6 6 8 7 9 9 6 7 5 2 4 6
30 28 31 30 27 25 25 28 23 23 23 20 17 15 13 14 12 11 11 7 6 4 5 8 4 5 4 1 3 10 9 12 9 8 9 7 9 9 8 6 6 4 6 6 1 2 4
35 36 36 30 30 28 25 25 28 22 23 21 18 15 13 11 11 8 5 5 4 3 9 13 19 20 19 4 3 10 12 12 10 14 8 6 10 1 2 5 6 6 6 4 1 2 5
39 38 36 35 34 32 29 26 24 28 22 22 19 14 13 11 8 6 9 9 3 5 6 8 10 9 10 14 10 14 15 14 13 14 12 12 5 5 6 8 8 9 7 3 3 1 6
41 40 39 38 36 35 33 31 28 26 29 23 22 16 12 11 5 7 6 4 4 6 6 6 8 9 9 8 11 17 19 14 8 16 11 10 4 6 6 7 10 11 2 3 5 6 4
43 42 40 40 40 38 36 34 31 29 31 31 23 20 15 14 6 6 8 4 6 6 7 4 5 2 7 15 14 19 22 10 17 10 8 10 9 10 8 10 8 7 1 4 5 6 4
45 44 42 41 40 40 39 37 34 30 26 32 24 22 18 14 12 6 7 4 4 5 9 3 7 8 9 15 10 15 14 9 7 11 10 9 1 4 3 4 8 5 3 4 4 5 6
46 46 46 43 41 40 40 39 36 34 29 30 31 24 22 18 14 13 8 3 6 9 2 5 6 8 14 13 14 19 23 21 15 16 15 13 12 6 5 9 7 9 7 6 6 6 7
47 46 46 46 43 42 41 42 38 36 31 26 28 25 25 22 19 7 11 6 13 8 18 2 3 9 13 15 14 17 23 21 23 19 11 14 12 14 11 12 11 13 11 6 4 5 4
49 48 47 47 45 43 42 42 42 38 34 29 23 27 26 25 22 10 7 14 13 14 8 9 3 8 12 13 10 13 20 24 21 20 14 14 12 6 8 6 9 7 8 1 2 1 4
48 49 49 48 47 46 44 44 44 40 36 31 25 20 24 28 22 14 8 25 17 15 9 9 12 9 12 16 12 15 17 19 22 21 17 7 10 6 7 7 4 5 9 5 4 5 6
45 49 49 50 50 48 46 46 46 43 39 33 24 6 14 31 22 6 12 24 27 16 13 8 11 10 7 11 17 19 14 7 24 21 19 10 9 7 7 11 12 6 6 4 3 3 5
40 42 43 49 50 51 50 48 49 47 42 36 14 7 24 37 10 6 17 32 8 22 16 10 7 6 8 12 16 16 22 16 18 19 20 15 9 8 14 5 2 7 9 10 6 6 3
41 40 39 42 49 52 51 51 52 53 50 35 8 3 32 33 14 13 30 29 26 18 25 14 11 9 6 5 7 17 15 15 13 20 19 13 10 11 10 6 4 8 10 10 6 2 11
45 45 45 43 43 46 49 53 56 59 56 38 6 6 5 11 18 29 29 25 30 22 21 18 11 7 9 6 8 3 12 6 11 18 5 16 13 16 12 13 8 8 12 14 14 7 10
45 47 48 48 46 46 48 54 59 64 61 41 8 7 10 15 18 29 27 24 25 23 27 18 19 15 13 6 5 6 5 7 6 6 8 11 15 16 16 16 15 17 15 14 16 16 13
48 49 50 50 50 49 48 49 63 67 65 25 7 8 14 15 29 32 29 28 29 32 23 24 19 23 13 13 5 2 4 1 6 6 9 8 12 10 12 12 13 15 16 16 18 17 13
50 50 51 53 53 53 53 50 53 71 65 10 14 18 14 16 28 23 24 32 28 25 31 22 23 15 19 20 3 7 6 8 8 2 10 8 9 7 14 10 9 10 14 16 15 14 16
50 51 54 56 56 55 54 53 53 72 69 26 30 8 10 12 17 22 31 31 30 24 26 20 18 18 7 7 6 5 7 5 8 13 10 6 9 6 6 4 8 12 4 16 18 18 17
40 51 58 59 58 56 54 53 52 70 70 32 23 13 10 10 18 22 29 31 23 19 22 23 11 12 7 3 4 5 4 7 6 7 12 12 8 4 5 9 10 5 6 9 12 18 15
31 29 52 56 57 57 54 53 50 69 69 32 27 28 5 13 16 23 19 22 21 19 17 23 10 6 9 4 5 7 8 11 8 5 2 7 7 8 4 7 9 9 13 10 4 16 9
12 31 41 49 53 52 52 52 52 68 68 33 22 22 10 9 10 13 15 18 21 17 16 16 15 8 9 5 4 7 8 10 14 7 6 5 4 11 10 7 6 3 10 12 9 14 3
19 30 42 45 47 48 48 46 61 66 63 35 20 23 14 5 5 3 1 15 16 18 15 15 14 10 7 9 7 7 5 7 11 10 7 9 9 5 7 6 10 12 11 11 12 2 6
39 39 39 44 43 47 47 52 64 60 51 32 17 17 12 3 3 5 3 11 10 21 15 15 12 17 7 8 6 4 2 2 7 10 5 4 7 5 9 6 4 20 14 17 7 6 7

GFSGBSN_925_spd_045.txt.gz
Wind_Speed
19 18 15 17 19 19 18 17 16 15 15 16 17 16 18 17 19 20 20 19 19 20 21 22 24 25 16 8 14 1 5 9 13 10 12 10 10 12 13 4 3 9 8 8 5 2 4
18 19 21 20 17 17 19 19 17 17 17 16 16 15 17 19 16 18 19 21 20 21 21 22 24 22 9 14 3 2 6 13 12 14 13 11 7 6 11 9 8 7 10 4 4 2 7
19 18 20 20 25 22 16 19 19 20 18 17 16 16 17 18 18 17 18 20 22 21 22 22 22 9 9 18 5 6 9 11 12 14 10 9 6 9 6 12 3 11 12 8 6 7 11
20 19 19 20 21 22 26 23 19 20 20 19 17 16 15 19 19 18 18 18 19 21 22 22 17 6 8 5 7 11 13 10 10 13 8 5 7 10 12 8 12 13 14 5 7 9 5
23 22 21 20 20 23 21 24 26 19 20 21 18 17 16 17 20 19 18 18 18 22 21 15 4 7 8 3 10 17 17 14 14 11 10 8 9 13 10 13 14 13 5 7 16 8 14
26 27 24 24 24 21 22 21 22 27 20 20 19 18 16 17 18 19 17 16 17 22 6 6 9 7 9 7 9 15 20 14 13 12 11 11 10 13 14 13 13 9 12 12 6 13 9
27 27 28 29 23 25 24 21 20 22 26 20 19 19 16 15 17 16 15 13 7 7 12 14 2 11 2 5 5 12 20 17 14 14 16 16 12 14 17 14 16 9 10 10 5 5 4
33 34 32 31 30 30 25 24 23 20 23 25 18 18 16 16 17 15 9 8 5 5 11 16 21 21 22 5 5 15 21 16 17 17 17 12 13 15 4 8 8 10 10 12 2 1 7
36 37 36 34 32 31 29 27 26 24 20 24 20 17 15 14 18 13 13 12 4 7 8 15 21 24 19 22 14 17 21 21 19 19 18 15 3 6 7 9 11 10 13 3 8 7 10
39 38 37 36 35 34 33 30 28 28 25 19 23 16 15 10 12 13 14 10 7 5 7 13 9 9 19 14 15 24 29 23 15 20 18 14 12 7 11 11 12 12 12 4 9 11 6
40 39 38 36 37 36 35 33 31 28 27 23 21 22 16 14 15 9 7 5 8 4 7 2 14 3 8 18 10 25 28 24 23 19 14 16 14 12 13 12 10 10 1 6 10 13 14
42 40 39 39 38 37 36 35 34 30 28 27 23 21 18 15 17 19 3 2 9 6 15 6 8 10 12 21 22 15 25 25 21 19 16 17 13 14 16 12 6 8 6 10 10 11 9
43 43 42 41 40 38 38 36 35 34 29 27 24 21 22 19 17 15 14 7 7 13 3 13 9 11 16 15 22 19 27 26 22 21 21 19 15 15 9 8 11 10 13 9 8 6 10
44 43 43 42 41 40 39 37 36 34 32 29 24 21 25 24 23 15 9 7 17 15 29 4 3 12 15 15 23 20 23 24 27 24 14 16 18 20 13 16 14 15 16 7 5 7 6
45 45 44 43 43 42 40 39 37 36 34 29 24 21 25 29 24 14 4 14 24 28 12 28 5 11 14 15 15 23 26 26 28 25 22 16 19 13 19 14 18 18 18 13 4 8 5
47 46 46 46 46 45 42 40 39 37 35 32 25 23 29 29 24 16 5 15 26 25 25 13 27 12 14 16 18 23 24 25 26 28 20 13 10 12 12 10 16 13 13 10 9 6 9
46 49 49 48 48 46 44 42 41 39 35 33 23 6 14 26 24 7 13 20 31 28 21 24 18 24 14 14 20 20 16 12 26 25 21 18 13 11 12 14 16 13 9 9 6 8 6
45 45 46 47 48 46 46 45 43 43 39 39 12 8 21 36 9 8 15 35 30 27 31 20 22 19 19 11 17 21 22 20 10 22 25 22 11 10 16 18 22 15 19 17 10 12 7
46 44 41 38 41 42 47 48 47 48 49 36 6 6 23 32 12 16 28 42 31 30 27 25 19 16 13 14 13 17 17 14 8 20 21 20 12 12 14 10 11 12 13 11 13 9 12
42 38 39 40 40 40 44 47 50 53 56 38 6 8 6 13 18 26 32 38 36 31 32 26 21 19 17 13 14 5 18 10 6 12 11 15 16 19 14 18 15 18 18 17 16 9 12
36 36 38 40 40 41 41 45 51 56 63 42 9 7 9 14 20 32 33 22 34 36 30 26 25 26 24 19 16 15 7 9 2 7 5 14 22 21 22 20 15 20 20 21 21 18 17
39 41 42 44 44 45 45 46 49 59 67 30 6 9 14 14 25 30 27 32 32 33 31 31 27 26 22 20 15 14 8 3 6 12 13 17 16 21 22 21 18 17 18 19 19 18 18
43 44 45 46 46 46 47 48 49 50 64 9 10 22 13 18 27 23 25 33 39 31 32 32 30 21 22 19 7 6 3 4 3 7 11 17 13 17 16 17 18 17 18 20 18 18 16
46 48 48 48 49 49 50 50 50 52 74 16 21 20 10 13 17 24 31 32 35 34 32 31 23 25 23 10 2 6 2 1 4 7 10 9 12 13 10 3 18 10 16 20 21 21 19
48 48 49 50 52 52 52 52 52 54 65 41 31 18 10 11 20 25 27 25 28 28 21 29 23 19 14 8 6 7 4 3 7 12 11 12 9 9 9 12 14 18 14 11 15 17 18
46 45 44 46 49 52 55 54 53 51 46 43 38 35 8 11 14 25 21 24 19 21 20 23 21 12 10 7 7 15 11 10 10 5 11 12 12 10 7 14 18 13 16 14 14 15 16
27 46 41 42 47 54 56 53 53 49 47 44 26 34 16 10 11 9 14 18 21 21 18 18 23 16 14 10 8 13 13 14 17 14 5 3 5 12 12 8 8 10 13 12 15 11 5
10 20 37 45 50 53 55 54 52 51 49 43 28 38 19 9 5 10 14 12 18 18 16 14 16 12 12 11 9 9 7 11 12 16 15 9 8 6 9 13 16 4 9 12 15 17 7
6 11 14 26 56 56 56 53 50 48 56 36 21 31 22 3 2 4 3 0 7 16 17 14 19 19 11 10 7 7 5 4 11 9 12 14 11 7 9 6 9 14 13 17 16 13 10

GFSGBSN_925_spd_048.txt.gz
Wind_Speed
19 17 18 21 19 16 16 17 16 16 16 17 17 18 18 17 19 19 20 20 21 21 22 23 25 26 19 7 13 4 6 7 9 10 14 12 11 12 17 17 10 10 14 10 8 6 7
18 18 18 19 19 21 19 16 17 17 18 17 17 17 17 18 19 21 20 20 21 21 20 20 22 24 10 14 9 4 5 9 11 15 15 15 12 12 12 16 13 12 9 15 9 12 3
18 18 18 20 21 19 20 24 21 18 19 18 18 18 17 18 20 21 23 22 20 20 19 19 18 15 12 22 10 5 9 12 14 16 14 14 14 10 13 14 14 11 15 16 6 11 3
20 21 20 20 19 19 19 20 23 28 21 19 18 19 19 18 21 24 24 24 21 19 19 19 17 7 9 15 14 18 16 15 14 14 16 12 7 11 14 16 18 15 18 16 8 13 5
21 23 23 22 23 22 20 20 21 21 24 21 19 18 19 19 21 24 25 26 21 19 20 17 7 8 11 5 16 20 19 18 15 15 14 12 8 13 15 16 14 16 14 12 12 8 4
24 24 25 24 25 24 23 23 20 19 21 23 23 18 18 19 20 23 27 25 18 19 12 10 12 7 11 14 13 16 20 19 15 13 12 12 9 12 14 13 14 15 13 9 7 5 9
25 25 25 26 26 26 24 20 22 22 21 21 22 19 16 18 19 22 25 14 5 6 11 9 6 11 18 11 1 13 21 19 14 16 16 16 13 15 20 19 19 15 15 11 15 9 7
30 31 30 29 30 30 27 24 25 23 23 21 19 20 15 15 17 20 18 7 10 6 12 17 23 23 28 18 8 13 23 16 16 18 18 16 18 19 20 13 11 12 14 15 6 8 4
34 34 34 32 31 31 29 27 26 25 25 22 20 18 15 12 15 18 17 22 17 11 8 20 24 24 26 26 20 16 21 20 19 18 19 19 19 14 11 10 11 12 15 7 9 9 10
36 36 35 35 33 32 32 30 29 26 24 22 22 17 14 9 11 10 15 13 15 6 7 15 17 9 26 21 21 29 24 20 15 20 21 19 21 12 11 11 13 14 9 11 6 9 10
36 37 36 35 34 33 32 30 28 28 26 22 21 19 12 13 16 8 10 11 2 4 7 7 12 8 9 26 7 23 32 23 25 22 12 19 20 17 12 14 14 12 4 9 9 11 12
39 38 37 35 34 33 32 30 29 28 27 25 22 19 13 13 15 20 16 19 5 5 11 6 10 10 11 21 27 17 25 26 23 22 21 21 18 17 14 15 13 8 8 10 12 11 9
39 38 38 37 35 34 33 31 30 29 28 27 25 20 17 15 14 10 12 7 6 12 8 12 10 10 14 15 22 24 24 26 23 21 20 21 22 19 13 18 13 9 9 8 6 7 8
40 40 40 39 37 36 35 33 30 29 28 27 25 21 19 19 20 17 3 4 14 14 27 5 10 15 15 15 19 22 22 23 25 24 14 17 14 23 12 16 14 13 14 7 6 3 7
41 41 41 40 38 37 36 34 32 30 28 26 24 22 21 20 22 14 2 13 19 23 18 28 13 9 14 15 15 18 22 22 24 25 18 16 22 19 18 13 17 15 14 16 7 7 7
43 42 42 41 41 39 38 36 34 31 29 27 25 17 24 20 23 15 5 21 28 23 25 24 25 18 12 16 16 17 23 17 24 25 20 17 12 19 22 20 19 17 11 10 9 4 4
43 43 43 43 42 41 41 39 37 34 31 28 22 4 13 25 21 7 10 18 30 26 27 25 25 20 20 23 15 19 21 21 22 20 20 20 14 12 13 12 16 12 16 9 15 10 6
45 45 45 45 45 43 42 42 40 38 35 34 10 5 19 35 10 5 17 36 27 31 27 29 25 23 23 20 19 18 21 17 12 21 25 24 4 9 15 16 16 18 17 16 8 8 4
47 46 46 46 47 47 47 46 45 43 42 31 5 4 21 30 12 15 23 35 32 28 32 26 30 27 25 20 18 10 20 16 7 12 18 18 14 10 14 12 17 16 15 13 13 10 12
47 48 45 46 46 46 46 43 45 47 50 35 6 7 5 12 17 25 26 35 33 31 31 32 25 23 24 20 18 9 12 14 5 7 3 0 14 13 10 15 14 15 15 18 13 5 8
45 34 35 36 45 43 39 41 41 46 55 40 7 7 10 14 20 27 25 20 27 26 31 28 28 27 20 20 16 18 16 15 8 8 3 6 15 17 15 18 18 20 21 20 20 15 14
34 34 33 33 30 36 38 38 43 50 56 37 6 7 15 11 23 27 24 29 32 23 26 35 27 27 22 20 19 17 15 11 12 11 11 8 10 12 15 16 20 13 22 19 19 21 19
36 36 36 37 37 40 42 44 45 48 59 9 11 23 12 18 23 21 25 33 32 26 22 29 29 25 20 21 13 22 11 4 9 9 13 10 6 11 12 15 18 19 18 19 15 15 12
41 42 42 42 43 45 44 45 46 47 54 9 14 13 6 13 16 22 32 32 32 27 26 27 27 28 22 5 5 10 11 10 14 7 0 2 11 6 4 1 22 10 13 15 14 15 18
43 44 46 47 48 49 50 49 50 52 52 42 12 17 8 10 18 23 27 26 26 22 22 26 26 27 20 3 6 7 4 11 10 14 7 3 4 2 5 10 12 16 16 11 11 16 19
46 46 46 50 50 51 52 53 52 52 51 44 17 36 11 13 13 26 17 23 17 17 18 23 26 19 18 10 5 9 5 7 10 8 10 10 9 6 2 8 17 9 14 16 14 14 11
32 34 34 40 48 49 53 54 53 51 49 42 22 36 12 8 16 13 10 17 17 16 13 16 23 17 3 12 8 5 4 15 11 13 5 7 8 9 9 7 5 6 14 16 19 8 9
32 32 33 40 45 50 50 54 54 49 47 43 20 38 22 5 7 5 6 7 14 15 14 12 13 11 8 8 8 6 7 11 13 10 10 7 7 6 6 6 13 1 7 18 9 10 7
19 25 26 30 45 48 49 50 50 48 47 43 13 24 32 8 3 3 3 11 14 18 11 11 17 11 8 7 7 6 4 6 11 10 13 7 9 4 7 3 13 10 11 6 7 6 7

GFSGBSN_925_spd_051.txt.gz
Wind_Speed
14 15 15 16 17 17 18 18 16 17 17 17 18 18 19 19 20 22 22 22 22 22 21 21 21 21 15 4 10 15 8 9 9 10 10 8 10 8 10 6 8 4 6 6 9 5 12
14 15 15 15 17 19 18 18 21 21 18 18 18 19 19 21 21 22 24 25 24 23 19 19 19 18 4 8 13 14 8 9 12 13 9 13 8 11 7 9 7 7 7 7 8 4 5
17 17 17 19 18 17 18 18 21 21 23 22 18 19 20 21 22 24 25 26 27 25 20 17 17 12 8 18 14 12 11 12 11 16 7 21 23 5 6 9 8 14 8 9 11 4 5
19 19 20 21 21 20 20 18 19 21 21 20 20 19 20 21 23 26 28 29 29 25 21 19 14 7 9 19 17 21 20 22 16 17 24 23 11 4 2 7 10 9 8 6 12 7 5
20 20 22 23 22 23 24 22 21 21 18 19 20 19 19 20 22 25 30 33 29 22 17 14 8 6 10 14 11 27 22 18 20 24 16 17 6 2 6 5 6 5 10 12 14 7 6
22 22 23 23 23 24 23 22 24 21 21 20 18 20 20 20 20 23 30 36 25 19 7 4 9 4 9 6 12 17 20 20 9 6 6 5 2 4 4 1 7 8 7 8 5 6 9
23 24 23 23 24 24 22 22 22 23 21 20 19 19 19 18 17 19 27 15 2 1 6 8 9 7 11 13 18 9 18 14 8 5 10 6 4 9 12 12 17 17 15 9 5 7 4
26 27 27 27 27 27 25 25 24 23 23 23 20 18 18 16 16 16 19 5 8 5 10 14 19 21 31 20 10 9 18 8 8 15 9 9 14 15 16 17 18 13 5 8 4 4 5
31 32 30 29 29 28 27 26 26 25 24 21 20 19 18 15 16 18 17 18 22 27 5 15 24 16 22 23 19 19 13 13 7 11 11 14 10 17 20 20 8 7 6 7 3 3 6
33 34 33 32 30 29 29 29 27 25 25 22 19 17 16 13 11 14 10 13 16 18 5 9 9 9 13 16 8 27 18 12 7 16 14 12 17 19 17 10 5 6 9 4 9 0 3
33 34 35 33 32 32 30 27 26 25 23 22 21 17 14 9 14 8 11 22 21 3 5 8 6 10 9 17 7 11 34 7 20 13 9 11 9 14 14 7 7 10 7 2 4 6 5
36 36 35 34 33 32 29 28 26 25 24 22 20 18 13 10 19 20 23 28 8 1 10 6 6 6 9 19 10 4 12 15 5 14 15 14 10 14 13 7 9 8 3 3 3 2 4
36 35 35 34 32 31 30 28 27 26 24 22 20 20 17 15 6 12 20 9 3 7 7 6 5 9 8 9 19 17 9 12 12 14 17 16 19 16 12 6 5 6 1 3 5 3 6
38 39 37 35 33 31 31 28 27 26 24 22 21 19 21 22 20 17 14 3 10 8 16 4 3 12 10 8 14 17 18 14 17 15 6 13 12 17 13 12 8 7 7 5 5 2 4
39 39 38 36 35 33 31 29 27 26 25 21 20 20 20 23 20 12 3 9 8 11 14 12 14 8 9 12 8 16 18 18 16 21 16 10 17 7 19 6 8 5 5 8 5 2 4
41 40 38 37 36 34 32 31 28 26 25 22 20 13 18 24 18 12 6 22 14 9 16 12 9 7 4 3 11 9 9 12 16 21 21 5 6 14 18 13 10 11 4 3 2 5 4
42 41 39 38 36 35 33 32 30 28 26 23 17 4 12 25 19 4 14 18 16 22 18 6 8 13 11 12 10 7 5 10 10 20 20 19 10 11 7 11 15 5 9 3 5 5 6
43 41 40 40 38 36 35 34 32 30 29 26 7 5 19 33 7 6 20 13 20 13 18 18 9 14 14 14 13 8 11 11 10 14 20 15 4 11 21 17 20 13 11 9 5 5 2
42 42 42 41 40 38 37 36 36 34 33 20 4 3 20 30 11 16 20 27 20 18 18 11 17 8 8 14 5 8 7 12 8 10 14 12 5 10 7 6 8 10 9 5 7 5 6
43 44 43 41 41 41 40 40 39 38 39 29 5 5 5 11 11 24 22 23 21 12 24 23 22 19 20 18 13 10 16 7 15 6 11 15 9 9 14 6 4 4 7 10 8 4 5
45 44 42 41 41 41 42 41 42 42 43 37 5 6 7 14 21 19 19 4 21 17 17 13 13 22 21 14 14 10 7 11 16 19 7 7 8 17 8 11 13 16 14 16 15 9 7
44 42 41 42 40 33 42 42 45 46 46 33 6 6 7 4 16 24 20 26 28 16 16 15 20 21 15 17 16 10 3 4 4 15 9 5 4 9 12 11 7 13 11 9 6 10 12
42 38 34 31 32 33 37 41 44 49 49 18 14 11 6 12 12 15 29 33 24 15 21 16 19 17 19 24 16 1 6 5 5 8 11 7 6 5 7 7 4 14 10 15 13 12 9
33 34 35 35 36 36 37 36 38 47 61 23 12 8 6 5 18 24 23 24 23 18 21 14 12 17 35 3 2 4 4 5 7 11 9 11 4 5 4 4 13 7 9 6 16 14 9
38 39 40 40 40 40 40 39 37 37 44 34 13 10 9 12 17 19 24 18 19 18 18 17 19 18 4 7 3 4 5 6 5 12 12 15 1 3 6 11 5 11 3 3 5 7 4
40 41 43 43 43 44 44 43 44 45 47 43 17 23 3 14 14 22 16 18 13 15 17 22 19 7 3 7 5 7 4 3 3 6 13 13 4 4 1 7 14 3 6 7 4 11 8
41 42 42 46 48 47 48 49 48 47 46 38 16 31 1 3 11 12 15 15 13 11 11 12 11 6 5 3 9 6 8 5 5 2 2 9 3 5 3 3 6 5 8 4 8 3 10
30 32 32 34 39 46 50 53 52 49 47 44 15 33 20 2 7 10 3 2 10 11 9 3 4 6 3 8 4 4 4 10 6 7 7 8 5 3 3 3 7 6 6 11 4 11 13
24 28 34 35 40 38 38 47 51 49 46 43 11 34 33 3 4 2 11 20 4 3 4 3 3 3 5 3 2 1 2 4 7 3 17 12 6 6 8 7 6 4 4 5 8 5 2

GFSGBSN_925_spd_054.txt.gz
Wind_Speed
14 13 13 13 13 11 11 14 14 18 20 19 19 19 20 20 19 22 23 25 25 25 23 21 19 19 12 3 11 16 14 9 12 10 9 4 4 3 3 3 6 6 6 10 5 9 6
16 15 16 15 16 16 14 14 15 16 20 22 21 20 20 23 22 23 25 27 27 27 25 21 18 16 3 7 12 9 13 14 11 12 7 7 6 6 5 4 1 3 8 9 4 7 5
16 16 16 18 19 18 18 16 16 16 18 20 21 20 20 21 23 25 27 29 30 30 28 22 16 9 8 18 11 4 6 11 8 15 5 17 16 2 3 6 0 6 7 10 5 6 5
17 16 18 18 19 19 19 21 20 19 19 19 20 20 21 22 22 25 28 31 33 32 29 17 11 4 9 19 22 27 24 26 24 19 21 17 13 5 3 2 7 5 3 3 2 5 3
18 18 18 19 20 20 21 20 19 20 20 20 20 21 21 22 22 24 28 33 36 29 20 6 3 4 10 11 10 21 24 13 12 17 20 18 9 6 1 3 4 2 6 6 10 7 7
19 19 20 19 20 20 20 20 19 20 20 20 19 20 22 24 21 23 27 35 27 11 3 3 3 2 8 6 5 14 11 20 5 4 3 6 2 3 2 3 5 6 4 3 6 4 3
22 21 20 21 22 22 22 22 22 22 21 21 21 22 21 21 22 21 25 15 4 2 1 7 7 6 12 7 16 8 9 10 4 3 8 3 3 9 11 10 5 5 7 11 16 11 4
24 23 22 22 23 23 23 23 23 23 23 21 20 19 21 21 22 19 19 4 2 5 10 15 20 22 32 12 8 14 6 7 7 9 6 4 14 15 9 8 8 8 10 15 10 5 7
25 26 24 23 24 24 24 23 23 23 23 22 20 18 17 18 20 18 11 12 14 19 4 9 18 14 15 15 13 19 5 7 5 7 8 13 6 14 11 13 9 13 12 10 7 4 2
25 26 27 24 25 25 25 24 24 23 23 21 20 17 15 14 13 7 7 9 27 16 4 9 7 10 11 9 7 25 12 8 4 15 7 9 15 14 10 11 10 13 13 6 6 3 3
26 26 27 28 28 27 26 26 26 23 21 20 18 16 15 11 12 6 11 26 32 3 4 6 6 5 9 14 6 7 26 5 15 6 9 9 9 10 15 19 10 9 6 9 5 3 2
28 28 27 28 27 27 26 25 26 24 22 21 18 16 13 14 15 18 22 27 9 2 9 6 5 7 9 9 3 3 6 6 2 6 6 14 5 5 9 10 9 9 2 5 5 2 3
29 30 27 28 29 29 30 28 29 24 22 21 20 17 16 17 3 6 17 11 3 6 4 5 5 8 8 9 9 1 7 16 8 7 11 15 18 14 8 7 4 4 5 2 3 3 6
32 31 30 29 31 29 28 28 27 24 22 21 19 16 19 22 19 14 8 3 12 6 11 4 4 3 8 6 6 7 3 7 11 3 5 9 6 14 6 15 8 7 8 5 5 3 4
33 33 31 31 31 29 29 28 27 25 22 20 18 17 21 23 18 9 1 9 6 5 4 8 13 5 4 4 5 8 9 7 8 14 7 7 8 8 12 8 9 5 3 8 6 2 2
33 34 33 32 33 31 29 27 26 27 23 20 16 11 17 21 15 8 5 16 10 4 8 5 3 3 6 7 3 4 9 7 12 13 11 4 5 8 18 3 7 10 6 4 2 5 3
35 36 36 35 33 32 29 28 26 26 25 21 15 4 10 22 17 4 11 12 14 20 17 6 5 4 2 2 4 4 2 5 12 13 16 13 4 7 2 6 8 2 3 2 5 5 6
39 38 38 38 36 33 30 29 27 26 25 22 6 5 17 29 7 5 16 13 8 14 10 12 4 6 5 2 4 2 4 4 9 7 7 12 11 15 17 9 9 4 8 9 5 5 3
41 41 40 38 37 35 33 32 30 29 28 12 3 3 17 24 11 16 11 16 8 4 6 5 5 10 6 3 5 4 4 9 7 7 6 7 6 2 7 8 2 5 9 11 5 4 8
41 40 39 38 37 37 36 35 34 33 31 28 4 5 4 10 7 10 14 19 18 8 17 13 9 7 6 9 5 8 11 8 9 5 10 6 7 15 15 5 4 4 10 13 9 4 5
42 42 42 40 38 37 37 37 36 35 34 29 5 5 5 8 17 14 12 9 23 18 13 4 8 19 6 6 9 12 6 7 5 6 7 5 8 6 13 17 16 18 11 8 9 7 9
43 43 41 40 40 39 38 38 38 38 36 27 5 5 5 2 12 22 23 22 20 17 10 19 19 9 15 18 17 6 9 6 5 5 5 8 5 4 8 13 9 12 16 15 8 4 8
44 42 40 38 38 39 38 40 41 40 39 16 14 8 4 10 11 15 29 20 15 17 11 18 14 17 17 10 6 7 9 8 6 3 3 5 5 9 15 8 12 12 16 7 6 6 6
41 38 37 36 36 35 34 38 42 38 49 33 11 6 5 6 17 24 9 21 20 19 22 13 15 16 4 5 3 2 3 5 6 5 5 6 1 2 4 3 11 16 12 7 13 11 9
32 32 31 30 30 31 32 31 31 38 43 36 20 8 6 13 13 18 19 12 19 19 19 18 18 11 7 4 2 3 4 5 5 5 9 6 5 3 2 6 4 9 5 7 7 7 7
32 33 34 35 36 37 37 37 37 39 39 35 27 23 4 8 19 13 13 16 11 13 15 21 15 3 3 1 3 8 5 5 3 4 4 12 8 7 6 7 16 3 6 3 3 6 6
37 37 38 39 39 40 41 41 41 41 41 36 22 34 5 2 2 12 14 16 11 9 3 4 7 9 8 3 2 4 8 7 5 5 2 1 2 9 9 5 8 5 6 8 8 6 3
35 36 38 40 41 41 44 43 43 42 41 35 11 35 16 2 2 6 10 7 10 14 8 4 3 3 2 7 4 4 4 6 3 5 7 5 3 3 5 5 7 2 5 4 2 6 6
30 30 31 31 34 37 39 46 45 44 43 39 6 31 18 3 2 6 6 16 28 26 13 5 6 6 6 3 4 2 2 1 6 6 3 5 7 5 6 5 9 4 4 4 4 3 3

GFSGBSN_925_spd_057.txt.gz
Wind_Speed
14 13 13 13 13 13 12 12 14 16 15 17 16 17 20 23 23 26 28 28 29 28 27 26 23 20 12 3 10 11 16 10 10 10 8 5 5 4 4 3 3 5 4 4 7 2 3
14 14 14 14 15 15 15 15 16 17 15 14 20 16 18 23 26 25 27 29 30 30 29 27 22 16 4 7 6 7 8 8 11 11 6 7 5 7 3 4 3 5 5 9 4 6 5
15 15 16 17 18 17 18 19 18 18 19 17 18 19 16 18 26 28 29 30 31 31 31 28 20 8 8 18 5 3 1 4 7 10 3 11 7 1 1 5 3 2 5 6 4 6 6
16 16 16 18 18 18 19 19 18 19 19 19 19 20 21 21 23 31 30 32 34 34 34 28 11 4 9 19 17 19 17 22 18 17 20 17 11 4 4 3 6 5 1 2 2 5 3
18 18 18 18 18 18 19 20 19 18 18 19 20 21 20 19 25 28 31 34 38 35 25 7 4 4 11 10 10 10 14 10 15 18 16 9 5 6 2 4 4 2 5 2 7 8 2
19 19 20 19 19 20 21 22 21 20 20 20 20 21 22 23 25 26 31 37 24 4 8 7 4 2 9 5 4 9 10 17 5 4 2 6 4 4 3 3 6 5 4 2 5 3 2
21 22 22 20 20 19 20 19 20 21 21 21 20 20 20 20 22 25 30 17 6 2 3 8 7 6 7 6 8 4 2 8 5 4 6 5 4 10 15 8 5 1 2 4 9 10 7
23 24 23 21 22 21 21 20 21 21 21 21 20 21 20 19 20 22 21 2 4 4 11 15 19 20 33 10 8 15 3 6 6 6 6 3 13 8 6 5 5 5 6 10 9 11 8
23 24 23 22 22 22 22 22 21 21 20 21 21 18 18 17 19 17 5 6 6 15 6 10 10 11 12 15 13 21 6 4 5 8 9 8 5 14 9 5 5 8 7 8 8 8 3
23 25 23 22 24 22 22 22 22 20 20 21 20 17 16 14 13 6 4 1 19 17 5 8 7 9 7 8 7 22 17 7 6 14 7 8 14 5 5 9 8 8 10 13 8 4 4
25 25 25 25 24 25 25 22 21 23 24 21 19 16 15 12 9 5 7 24 20 2 5 4 5 2 8 13 3 8 17 5 10 7 8 10 8 11 14 16 8 10 5 10 11 5 3
26 24 25 25 25 24 24 25 24 23 24 23 19 16 15 12 13 18 16 22 8 4 9 5 4 6 7 7 3 4 7 4 5 5 3 14 2 6 8 8 11 9 3 1 2 3 2
25 25 25 25 25 26 25 26 26 26 27 24 20 17 17 16 4 7 13 8 5 7 6 5 0 6 5 6 4 4 8 12 9 7 8 8 6 4 1 3 3 4 3 3 2 1 6
26 28 28 26 26 26 26 26 24 24 26 23 20 17 21 21 20 16 7 3 13 4 8 6 6 2 5 6 5 6 7 10 7 4 4 10 5 11 6 13 5 6 9 5 6 4 5
28 28 29 29 27 26 27 26 26 26 25 22 18 18 21 17 18 8 2 8 4 4 5 9 8 4 3 1 2 3 5 7 11 7 6 6 6 4 5 6 9 4 5 7 6 3 2
29 29 30 30 30 28 28 28 27 25 25 21 17 10 18 15 15 9 3 11 5 2 6 7 3 4 5 6 4 3 7 4 7 18 7 4 2 4 6 4 5 6 5 2 2 5 4
32 31 33 33 32 31 29 28 27 25 23 20 17 4 9 20 19 4 9 7 10 18 11 4 4 5 5 4 5 3 1 7 4 4 14 10 3 5 4 5 8 2 4 3 2 5 6
36 35 35 34 32 31 31 30 29 26 23 21 7 6 22 32 6 4 10 7 9 12 3 3 4 3 3 6 3 2 3 4 8 7 5 9 5 13 19 8 3 4 7 8 5 4 2
39 37 37 36 36 36 34 32 29 29 25 9 3 3 21 24 10 12 4 11 10 6 8 3 3 5 4 2 3 3 6 6 10 9 0 2 3 10 8 4 5 6 5 7 3 3 8
40 39 39 39 39 37 34 32 31 32 29 27 3 5 4 7 2 15 8 9 13 12 7 3 3 2 1 3 3 5 5 5 14 6 8 4 4 7 12 7 4 4 8 7 10 6 4
43 42 42 41 40 38 36 34 33 33 31 25 5 4 5 7 14 9 15 8 15 12 12 1 5 13 5 2 3 4 9 12 4 4 3 4 2 7 12 10 13 8 7 8 7 10 12
44 44 43 42 40 39 38 37 35 34 33 26 5 4 4 2 14 20 15 15 14 16 6 9 13 7 5 11 8 6 12 5 6 3 4 1 2 7 6 8 8 14 16 20 14 7 8
45 45 44 43 42 41 39 38 36 36 37 15 12 7 3 8 13 16 20 18 14 12 10 20 8 7 8 14 9 10 10 7 9 11 4 3 3 4 4 12 9 10 12 17 8 6 7
46 45 45 44 42 41 40 39 38 39 43 25 10 6 5 5 13 13 15 22 23 18 19 4 11 9 7 5 8 7 8 13 11 9 6 4 4 3 1 6 4 7 6 12 15 14 8
45 45 43 40 38 36 37 37 37 39 43 37 20 8 7 9 8 16 16 19 19 19 16 16 13 7 4 4 3 4 3 4 8 9 9 6 4 3 3 4 8 18 6 4 8 19 13
34 31 31 28 27 31 30 31 38 42 45 43 30 18 5 5 15 10 17 16 9 10 12 8 11 3 3 1 2 4 3 4 4 1 8 5 4 4 3 3 6 5 10 14 6 14 6
32 33 33 32 31 31 31 31 32 32 35 45 18 38 5 5 6 14 15 14 8 7 5 6 6 6 7 2 2 3 5 4 3 4 4 5 2 6 4 3 7 7 10 13 5 13 4
37 38 38 37 36 35 35 36 36 34 33 32 11 22 21 5 2 3 15 6 7 11 5 5 3 1 3 5 3 3 3 5 5 4 5 6 5 4 4 4 8 5 7 4 12 8 4
35 31 30 31 34 39 40 38 37 37 37 36 8 25 22 3 2 5 8 8 18 24 12 6 6 5 5 4 3 1 2 1 4 3 2 2 5 5 7 6 6 4 5 7 19 21 7

GFSGBSN_925_spd_060.txt.gz
Wind_Speed
13 13 13 13 14 14 15 15 16 17 17 17 18 18 19 19 21 22 25 24 28 29 31 29 28 26 12 4 10 8 11 8 9 13 9 6 5 5 5 4 4 4 5 4 7 10 4
13 13 14 14 14 15 15 16 18 19 19 18 19 20 19 21 22 24 27 29 28 29 30 30 25 20 4 6 6 7 6 6 11 14 8 8 6 6 4 4 6 5 5 7 7 6 4
14 13 14 14 16 16 16 16 18 19 20 19 19 21 22 22 21 23 27 32 29 30 31 31 24 11 6 18 9 6 5 3 7 8 5 7 4 3 1 2 4 3 4 6 5 3 5
15 16 15 15 16 17 18 17 19 19 19 19 20 23 23 24 25 27 28 32 33 34 36 30 16 5 9 15 16 16 21 21 18 10 5 5 4 4 4 3 4 2 3 3 4 5 2
17 17 17 17 18 18 17 20 21 22 21 22 22 23 24 25 27 28 31 35 35 24 24 11 7 6 10 8 9 10 16 11 18 15 9 5 7 5 2 3 4 5 4 4 7 6 4
18 18 18 17 19 20 18 18 19 18 20 20 22 23 24 24 26 27 30 34 18 7 10 7 4 1 10 5 3 2 4 9 4 8 4 4 3 4 2 4 7 5 4 4 6 2 4
20 19 19 20 20 21 19 19 22 21 20 20 20 21 22 23 23 25 28 14 5 2 4 8 4 5 6 7 4 4 3 6 3 4 8 5 5 11 12 5 4 4 2 3 7 5 2
20 19 20 21 21 21 20 19 21 22 21 20 20 20 21 21 20 21 19 3 2 6 12 15 21 17 36 14 8 9 7 6 6 7 6 3 13 8 8 7 6 3 2 7 10 7 6
20 19 22 21 21 20 20 20 20 22 21 19 19 21 20 18 18 12 6 5 6 18 6 12 10 9 12 16 15 23 6 5 5 7 13 8 5 13 9 6 7 6 6 5 8 8 4
22 23 23 21 20 21 20 20 22 21 19 20 21 22 19 14 10 5 6 5 19 14 5 9 6 8 7 9 8 19 21 8 5 13 6 7 6 5 5 12 9 7 10 10 7 2 4
21 23 22 22 22 23 22 22 21 21 21 21 22 22 18 10 8 3 7 20 22 2 5 2 4 4 6 12 3 4 13 3 9 7 7 8 9 13 6 6 8 9 6 8 5 5 1
24 24 21 23 22 24 22 22 22 22 22 21 24 22 18 11 9 14 16 16 6 4 8 6 2 3 6 6 4 4 5 1 5 5 1 7 2 8 11 6 11 4 4 2 3 3 2
27 24 24 23 23 23 22 22 23 23 21 24 25 22 18 13 2 4 8 8 3 6 5 4 5 3 6 4 5 5 8 9 8 7 8 1 6 2 3 5 4 4 4 1 2 0 5
25 23 22 23 24 23 22 23 23 22 21 22 22 21 21 18 14 12 6 2 10 4 6 7 5 14 6 6 5 5 9 7 5 5 6 9 3 8 5 8 7 7 7 5 6 3 4
24 24 26 25 24 24 23 23 24 21 21 23 20 21 16 15 14 8 2 6 3 2 3 9 11 4 3 2 2 3 6 7 7 6 6 6 5 3 5 6 12 5 5 6 6 2 2
28 28 26 24 26 23 23 23 24 22 22 23 16 11 16 13 16 12 3 8 5 3 5 5 4 6 5 7 5 1 6 5 4 11 0 6 1 4 3 4 3 7 7 3 1 5 4
30 29 27 26 27 26 25 23 24 21 22 18 11 4 6 20 20 4 6 6 6 16 6 4 4 5 4 5 4 5 3 6 12 6 7 3 3 4 3 4 7 3 3 2 4 4 5
33 32 29 27 27 27 26 24 23 23 22 19 6 6 10 30 6 2 3 7 6 10 3 4 3 5 3 6 6 7 6 6 13 6 5 5 3 5 10 6 2 4 7 9 4 4 3
34 33 30 29 29 29 28 27 27 26 23 11 4 4 10 21 9 5 6 4 4 6 3 2 3 3 4 4 4 4 6 7 13 15 6 4 2 2 7 4 3 4 6 5 2 3 7
36 33 32 32 31 31 30 31 29 29 26 21 2 6 3 5 3 12 8 7 7 7 15 4 3 1 3 4 3 5 8 6 15 7 7 1 1 1 2 2 2 3 7 10 8 4 3
38 36 35 35 34 34 34 33 33 30 29 22 5 4 4 5 7 11 14 9 12 8 8 5 4 5 2 3 4 3 3 5 6 6 4 2 2 2 4 4 6 12 9 6 9 6 8
40 40 40 39 37 37 36 37 35 33 31 24 4 4 4 2 11 16 15 16 14 13 6 5 9 4 3 4 6 5 5 2 5 5 6 4 1 1 3 10 12 6 9 10 8 5 6
44 43 42 41 40 40 39 38 38 36 34 14 14 7 3 6 10 13 10 13 17 9 5 11 3 5 6 13 9 12 9 8 9 5 4 4 2 2 1 5 11 4 3 6 9 10 7
46 45 44 42 41 40 40 40 40 40 40 25 9 6 5 4 10 12 17 16 13 17 10 2 10 9 3 4 5 5 8 13 12 13 9 6 3 2 2 3 2 5 11 7 7 11 7
46 44 43 42 42 41 41 41 41 42 42 33 19 9 5 9 6 13 15 20 16 14 16 14 14 3 1 3 3 4 3 4 6 13 10 11 4 4 3 3 4 9 2 4 3 9 6
32 36 38 38 38 40 41 42 40 43 43 40 32 17 7 5 11 10 14 16 12 13 10 14 12 3 3 0 1 3 2 3 3 2 4 6 1 3 2 3 4 4 3 4 5 11 10
31 29 30 30 29 29 27 29 35 37 40 38 19 37 3 5 7 13 12 10 6 8 3 4 4 4 6 2 1 2 3 2 3 1 3 4 3 9 4 5 6 5 5 3 0 7 8
34 33 33 32 31 30 29 27 28 35 40 39 24 33 20 2 5 16 11 8 7 10 6 4 2 1 2 4 3 4 2 4 2 4 4 5 5 3 3 1 9 5 1 3 4 4 3
29 32 37 36 34 35 32 30 30 28 26 39 4 30 34 7 0 7 13 18 26 21 10 9 6 5 5 3 2 2 1 1 4 2 1 2 6 5 7 7 4 3 5 6 3 5 4

GFSGBSN_925_spd_063.txt.gz
Wind_Speed
12 12 12 11 12 13 14 15 15 16 17 17 17 18 18 17 18 22 25 26 28 27 25 23 22 21 11 4 10 12 12 6 11 14 7 6 7 6 7 6 7 6 9 5 10 7 6
11 12 12 12 13 13 14 15 16 16 16 17 19 19 19 20 20 22 25 29 30 30 29 23 20 15 3 6 6 8 6 5 11 14 7 6 7 6 4 5 7 6 7 9 7 9 3
13 13 14 14 14 15 16 16 17 16 16 17 18 20 21 22 22 22 27 30 33 33 32 26 14 2 4 17 10 8 8 5 9 8 4 9 4 4 6 3 4 1 6 7 8 4 4
13 15 15 15 15 15 15 16 19 19 19 18 19 20 21 24 24 26 27 33 35 33 28 18 9 7 8 16 18 20 18 22 16 12 7 4 5 3 3 2 2 3 1 5 1 5 1
17 15 15 15 14 15 15 17 20 18 18 17 18 20 23 24 25 26 28 34 36 17 13 8 8 8 10 9 8 15 17 11 14 15 10 3 4 4 3 4 2 0 6 6 6 4 3
18 19 18 17 17 18 18 17 19 20 20 17 18 20 22 24 25 25 29 36 15 2 6 4 9 3 8 4 7 4 5 9 2 9 4 4 2 4 4 10 11 8 5 4 5 1 2
19 19 20 17 17 16 17 18 19 20 21 19 18 18 20 23 23 24 28 14 6 2 5 8 8 4 2 10 14 3 3 5 3 5 10 5 8 15 19 14 5 7 5 4 5 5 3
20 20 19 18 18 17 17 16 18 19 18 18 16 18 20 23 21 21 12 3 5 4 12 15 22 17 30 5 8 10 6 5 6 10 10 5 19 14 8 8 11 6 6 9 10 2 8
20 21 21 19 18 17 17 15 18 19 17 16 14 17 19 21 18 10 8 2 11 14 5 14 12 10 12 17 18 24 5 2 7 9 18 19 5 15 14 8 11 11 13 7 10 6 3
21 23 23 20 17 18 18 18 18 17 16 15 16 17 17 19 8 7 7 2 18 10 5 7 4 6 8 9 10 28 17 9 6 14 8 14 8 13 12 16 14 15 12 8 7 4 4
24 21 19 19 20 20 20 18 19 17 16 16 15 17 17 13 10 3 7 17 16 1 6 1 3 5 7 11 4 4 22 13 19 7 7 9 10 12 13 11 14 11 9 11 7 6 3
23 21 21 21 21 21 18 18 17 16 16 17 17 18 17 14 6 10 11 13 2 2 7 6 1 1 6 9 5 2 8 4 7 4 3 9 3 10 19 7 18 8 5 4 3 2 5
24 25 23 23 21 18 16 18 18 18 16 17 17 16 14 12 3 1 5 5 2 5 6 5 6 5 6 6 6 6 10 16 9 12 12 6 8 2 4 6 7 5 8 3 4 5 5
27 26 22 22 20 21 20 19 17 19 17 17 18 17 16 14 12 11 1 1 7 4 6 8 8 12 4 3 6 8 9 12 11 3 9 10 6 11 5 6 9 18 13 6 8 6 4
26 24 22 20 20 22 20 18 17 17 17 17 18 18 11 17 12 12 3 4 3 5 4 9 15 3 4 5 4 3 7 3 9 8 7 9 9 3 5 5 8 6 10 6 5 2 1
28 27 27 28 27 22 18 19 16 16 16 15 11 8 13 17 14 12 7 9 6 3 5 5 3 6 6 8 10 5 5 8 4 9 3 6 3 5 11 2 3 5 9 5 0 7 8
28 27 26 26 23 20 19 18 16 17 16 13 6 3 6 14 19 4 5 6 5 12 7 3 3 5 5 5 5 6 5 5 11 8 6 3 0 1 6 7 12 7 8 2 4 3 8
29 28 27 27 26 24 19 18 17 18 16 9 3 4 5 22 6 2 3 7 6 4 2 4 2 4 3 5 5 6 7 6 10 13 3 3 2 3 4 2 4 4 8 10 5 5 1
30 30 27 27 27 25 21 19 19 20 15 5 3 3 8 13 6 10 3 5 5 5 4 0 1 2 2 3 4 4 5 7 13 10 6 5 3 2 4 3 2 5 5 4 2 1 12
29 31 30 29 28 27 23 21 21 22 19 15 3 3 4 6 6 11 8 7 6 5 4 4 3 2 3 3 2 4 4 6 9 6 10 3 2 1 4 3 3 2 3 9 11 4 5
32 32 32 31 29 27 25 24 23 25 23 13 4 4 4 4 11 11 14 12 13 8 7 3 4 11 6 5 4 5 6 5 8 9 5 5 2 4 5 4 3 3 8 9 9 11 10
31 32 32 30 29 28 28 28 29 29 26 17 3 4 4 6 4 16 12 13 14 11 8 4 7 2 7 7 6 4 5 4 3 7 7 8 1 1 2 4 2 6 8 6 6 4 7
40 39 38 38 37 35 33 33 33 32 28 11 12 6 3 6 6 7 5 12 15 12 4 11 5 6 9 11 7 10 9 9 10 7 5 4 1 1 2 4 5 1 2 1 1 1 3
44 44 43 43 41 39 38 38 37 37 36 26 6 6 5 9 9 11 10 12 13 18 12 8 11 12 1 4 9 7 7 10 11 11 9 5 2 2 1 4 2 2 1 4 3 1 4
43 39 43 46 45 43 42 42 40 39 39 33 18 8 5 7 10 11 13 14 12 7 15 14 9 3 2 1 3 5 2 2 7 11 14 12 4 2 2 5 4 8 2 3 3 3 9
35 34 33 28 40 42 40 40 40 39 39 36 29 27 4 7 14 13 11 15 11 9 6 9 4 7 5 3 2 3 2 2 1 3 6 11 9 3 3 3 6 4 2 3 6 2 3
28 28 29 29 26 33 37 39 39 40 40 39 16 35 13 3 3 14 11 7 7 8 3 4 5 5 6 4 3 3 2 2 2 1 3 5 4 10 2 4 4 5 4 4 3 3 9
32 32 31 30 28 28 25 29 33 33 40 38 30 36 26 2 4 10 11 9 8 9 5 5 4 2 3 5 3 3 3 3 1 2 3 6 7 4 4 4 5 2 2 3 6 5 6
36 37 31 31 33 29 28 28 26 24 30 38 11 33 37 5 3 6 9 15 28 21 7 9 5 4 5 3 4 3 3 1 4 2 1 2 4 3 6 4 1 1 1 4 6 8 7

GFSGBSN_925_spd_066.txt.gz
Wind_Speed
9 9 10 9 11 10 10 11 12 14 15 16 15 16 17 17 18 20 22 23 25 26 28 26 22 21 13 7 12 14 16 8 5 14 17 16 17 18 17 13 12 19 18 13 15 13 13
10 11 12 11 11 11 11 12 13 15 14 16 17 17 19 19 19 22 24 26 27 28 28 28 21 15 9 14 7 8 11 8 6 15 13 15 11 16 9 13 15 6 18 18 14 15 14
12 12 11 12 11 14 12 12 13 18 18 18 18 17 17 20 21 24 26 29 30 30 33 27 19 9 12 19 16 14 16 13 9 15 16 16 15 10 8 11 16 13 15 15 16 16 17
15 12 12 12 14 13 13 12 14 17 17 18 18 18 19 19 21 24 27 30 32 34 27 17 9 8 9 15 16 18 14 20 19 13 13 12 15 13 9 3 5 14 14 15 12 11 8
15 15 15 14 14 17 15 15 15 16 18 20 19 17 18 19 21 24 27 31 32 17 10 3 7 8 10 5 6 9 4 14 12 18 13 7 10 14 12 13 12 13 15 16 12 8 4
18 16 15 16 16 14 18 16 14 15 19 19 19 18 16 19 21 24 27 29 10 1 3 3 2 6 12 10 6 1 4 10 8 13 12 13 10 12 15 15 18 17 15 15 14 7 10
19 15 15 17 17 11 14 17 15 14 18 18 18 17 16 19 21 22 22 10 3 5 6 9 11 14 19 9 7 6 4 6 9 15 18 20 15 22 25 23 19 13 14 15 7 4 5
20 20 19 17 15 13 15 16 14 15 17 18 17 15 16 17 20 17 10 5 5 5 12 21 25 24 32 17 8 6 8 9 12 15 20 13 23 21 17 19 19 17 16 14 8 5 11
20 20 18 17 18 18 15 15 14 15 18 17 16 14 15 16 17 5 7 4 6 12 7 13 10 11 11 17 15 9 11 9 12 15 19 24 7 20 16 17 19 21 19 16 13 3 11
21 22 23 20 19 17 13 14 16 15 17 16 14 14 14 16 4 8 4 5 12 8 5 4 3 3 4 7 8 28 10 11 12 14 17 17 25 8 20 24 19 20 20 17 14 8 9
21 22 22 19 17 17 15 17 17 16 16 15 13 13 13 9 10 4 7 12 11 3 6 4 2 2 6 8 5 8 28 11 23 18 7 13 12 22 18 21 19 20 10 12 16 11 11
23 23 21 21 22 20 20 19 15 16 17 15 14 14 12 8 5 5 5 9 4 3 6 3 2 2 4 11 5 4 8 18 16 18 19 25 4 14 22 14 16 7 7 8 9 10 12
23 23 23 24 24 24 20 17 14 17 16 16 14 13 10 7 3 0 6 5 4 6 4 1 3 8 15 15 8 9 11 21 15 19 20 25 21 12 14 21 15 15 12 6 8 8 11
27 25 26 25 24 20 20 16 16 18 15 15 14 14 11 10 6 6 3 3 9 2 9 9 8 16 6 10 6 13 12 15 23 18 8 15 14 20 13 16 14 24 21 8 10 10 8
26 25 25 22 20 20 17 17 18 17 15 15 13 13 12 12 10 9 3 7 4 9 3 7 13 7 2 8 7 6 10 7 15 23 17 18 18 13 13 12 15 16 17 14 6 2 4
28 28 27 26 26 24 24 22 18 14 14 13 10 9 14 13 12 12 4 9 10 8 4 5 6 3 5 8 7 5 4 6 5 19 16 5 11 16 21 12 16 11 12 11 10 13 10
26 26 24 24 23 22 21 20 18 14 14 10 7 4 4 12 15 5 6 10 12 16 8 4 3 5 5 6 8 3 1 6 16 11 15 9 8 6 13 16 19 13 10 9 8 13 11
27 26 29 26 24 23 22 19 17 17 14 9 5 4 4 17 7 5 9 13 5 14 14 15 7 7 8 7 6 0 1 4 14 20 9 14 5 6 16 5 16 17 20 18 9 11 8
26 28 28 27 25 25 21 21 20 18 16 8 4 6 7 12 7 11 7 14 12 12 13 9 10 6 4 5 4 3 4 9 11 15 12 4 7 10 9 7 4 11 12 12 17 13 12
28 25 27 26 25 21 22 22 22 20 19 13 3 3 7 6 9 10 16 16 15 13 17 13 7 6 8 10 7 7 6 2 10 8 19 8 5 11 9 5 1 7 10 13 12 11 13
27 27 27 26 25 25 24 25 24 22 20 15 4 5 6 5 10 15 12 7 15 15 14 12 11 16 15 11 12 13 14 13 5 3 4 8 0 1 2 0 1 1 3 9 13 13 13
30 27 27 24 25 25 25 25 24 24 22 18 4 4 3 9 6 15 16 14 20 20 13 12 13 9 11 18 17 16 7 7 3 6 3 5 3 4 1 1 5 7 7 6 10 9 7
32 31 31 30 29 28 26 24 26 27 26 14 8 9 4 10 13 12 10 15 14 14 13 14 11 7 12 12 7 10 10 10 12 7 5 3 2 3 2 2 4 7 13 5 5 4 4
38 38 38 37 35 34 34 33 32 33 30 23 8 10 5 11 11 14 13 11 17 16 19 10 12 11 2 6 9 11 12 13 13 13 10 4 2 4 2 6 3 3 4 0 7 8 6
37 36 36 36 38 39 40 39 38 37 36 30 25 9 6 12 16 19 19 14 14 17 18 12 8 5 3 4 5 5 5 4 9 17 14 13 5 3 4 6 7 5 4 2 2 5 6
34 35 32 30 33 34 41 42 42 41 40 35 29 24 8 7 16 19 16 17 13 12 9 6 5 5 3 3 3 4 4 1 5 6 8 12 11 6 2 4 6 3 6 2 2 4 7
28 29 26 25 30 33 32 36 43 44 42 37 19 35 15 8 8 13 16 15 12 9 6 5 6 5 6 4 5 4 4 1 3 4 6 8 8 12 9 6 4 2 1 1 6 2 9
31 30 27 27 27 27 27 25 43 43 42 41 32 36 26 5 13 8 17 17 13 11 5 6 4 4 3 6 4 4 3 4 3 3 7 8 9 7 10 7 6 5 2 4 6 6 9
33 32 29 30 29 30 27 27 29 37 42 41 13 33 36 7 3 12 27 22 24 20 10 10 3 3 6 5 5 3 4 1 4 3 5 4 3 3 7 7 5 6 5 7 7 6 8

GFSGBSN_925_spd_069.txt.gz
Wind_Speed
11 12 13 11 11 12 12 12 13 12 14 14 18 19 18 18 19 21 24 26 27 28 27 25 25 21 15 9 22 19 14 11 3 8 19 19 23 21 24 22 22 22 24 21 18 20 17
9 11 12 12 13 12 13 13 14 13 16 15 17 18 18 18 21 23 25 27 29 29 29 29 24 15 10 17 16 15 10 8 6 9 16 21 17 19 20 23 22 20 19 22 23 19 18
13 13 9 10 12 13 16 15 14 14 15 16 18 18 18 20 21 24 27 30 31 31 31 29 19 10 12 22 15 17 18 19 13 12 16 20 22 14 20 18 19 19 21 19 19 22 21
13 14 14 14 13 13 15 15 15 15 16 16 18 19 19 20 21 25 28 32 32 33 28 16 11 11 9 14 17 23 22 20 17 14 18 23 22 19 19 13 15 16 21 19 21 23 20
14 15 16 15 16 14 15 18 21 17 18 18 19 19 19 20 21 25 29 32 32 20 11 9 7 10 10 1 8 14 21 18 10 11 17 18 20 18 19 17 16 20 16 22 21 11 10
16 16 16 15 16 17 16 15 18 19 18 18 18 18 18 19 22 24 29 26 20 11 7 8 11 7 7 7 8 4 5 2 8 2 15 16 12 17 19 17 18 19 20 19 19 12 13
16 17 18 17 16 17 14 13 16 18 15 19 18 17 17 19 21 24 23 25 3 7 8 13 12 13 26 15 10 11 8 8 4 2 16 21 17 22 25 24 22 22 18 16 11 12 10
18 17 17 17 18 16 15 15 17 17 14 16 18 17 16 18 20 19 16 6 4 7 14 19 22 23 28 24 22 15 3 10 6 16 16 22 25 23 23 23 25 25 23 18 17 6 8
18 18 18 20 18 18 21 20 17 18 15 16 16 16 15 17 18 12 9 5 8 11 8 10 5 7 6 9 21 21 12 7 10 13 19 24 22 23 22 22 26 23 23 20 19 7 10
19 19 18 19 21 21 20 17 15 17 18 17 16 14 14 16 11 7 10 5 11 10 6 7 3 2 3 4 4 19 21 11 6 10 13 18 29 11 22 27 22 22 20 20 18 14 13
19 19 18 19 21 18 17 18 17 18 19 15 14 13 12 10 14 12 8 10 10 6 6 4 7 4 3 6 9 5 18 16 14 8 5 9 17 20 23 24 23 21 17 16 18 16 16
22 20 19 20 20 22 24 24 21 20 17 16 15 13 11 13 12 11 10 10 9 6 7 3 3 1 7 10 7 3 16 15 4 9 19 23 27 16 19 23 17 17 18 17 11 14 15
23 23 23 22 22 24 24 24 23 18 15 17 16 14 11 11 11 3 6 11 6 7 3 3 1 6 13 17 5 12 11 19 10 4 14 19 23 23 25 18 21 25 14 9 11 13 14
25 24 25 24 24 24 24 23 19 16 16 15 15 14 14 15 14 12 9 8 10 8 10 3 8 12 17 10 6 13 11 14 18 12 7 9 13 20 17 19 18 20 21 12 11 11 13
25 25 24 23 23 23 22 19 17 15 17 15 14 16 18 17 15 12 5 11 7 10 11 4 11 15 14 3 4 7 15 13 11 19 9 8 12 16 20 13 17 21 21 20 14 6 9
25 25 24 25 23 23 24 21 21 18 16 13 14 14 18 16 17 13 6 15 14 9 5 5 11 7 11 5 6 5 6 3 4 5 16 16 18 13 18 15 18 20 15 20 15 9 8
25 25 25 23 22 21 21 22 20 20 17 12 12 4 8 18 17 6 11 17 15 16 10 9 12 12 11 11 7 4 1 4 10 11 17 22 17 8 22 15 21 17 18 14 14 13 8
25 25 24 23 23 22 22 21 21 17 17 12 13 5 5 17 9 8 10 18 18 11 13 17 16 15 15 15 11 7 1 4 5 12 12 15 6 13 15 25 23 21 19 17 10 16 15
26 25 24 22 22 21 20 21 21 18 19 14 5 8 7 16 9 13 15 17 19 15 17 17 18 20 16 16 8 10 4 4 4 13 10 9 8 13 6 9 18 24 23 20 14 10 9
26 25 24 24 20 23 23 21 22 21 20 18 3 4 8 8 10 15 17 16 18 18 20 16 16 15 16 14 16 8 5 7 7 4 16 12 11 13 13 7 12 17 18 19 18 12 15
26 26 25 24 24 20 22 20 20 21 21 18 4 5 6 8 14 17 17 8 20 18 14 16 18 19 14 13 17 18 16 14 6 7 5 10 6 10 15 8 5 8 10 14 16 15 13
28 27 25 24 24 24 24 22 25 22 22 22 5 6 8 12 13 16 19 19 16 14 15 15 17 18 17 18 17 18 12 8 8 3 0 6 3 10 13 10 5 8 10 11 13 10 10
32 32 30 26 25 24 22 22 25 24 26 14 14 17 7 7 15 11 11 19 17 18 18 15 21 15 15 12 12 13 11 10 10 8 2 4 3 6 2 1 4 8 12 8 10 14 13
35 34 32 31 30 28 26 27 27 29 30 23 14 12 7 10 12 14 17 14 16 13 16 11 18 12 1 5 9 11 12 14 14 15 11 5 7 3 4 6 5 5 2 16 11 3 4
38 35 32 33 34 35 35 34 33 31 31 30 25 12 7 11 15 18 16 13 9 9 10 18 14 3 6 6 6 9 10 10 15 18 16 14 6 3 2 3 6 9 3 4 13 8 6
35 32 27 28 31 33 36 38 38 37 35 33 30 25 7 3 13 18 16 17 12 10 10 14 4 6 6 3 5 6 7 8 8 7 18 16 12 7 6 3 4 4 12 7 9 5 7
30 28 27 25 24 26 32 39 40 41 40 37 26 31 14 6 15 9 12 10 13 13 7 9 8 5 4 3 5 6 6 4 5 11 13 12 11 13 9 5 4 10 3 1 10 4 6
31 30 27 26 26 26 26 32 34 42 43 40 33 28 26 3 15 18 16 13 14 7 5 7 5 4 3 5 4 4 4 5 3 4 11 11 9 7 10 9 11 5 3 4 6 7 9
34 32 31 29 26 25 26 26 31 37 47 46 22 31 27 7 5 15 32 24 16 9 6 6 2 2 4 4 5 2 4 1 5 4 10 6 7 5 9 7 8 11 14 10 8 8 9

GFSGBSN_925_spd_072.txt.gz
Wind_Speed
8 8 11 11 12 12 13 11 13 18 17 19 18 19 20 20 21 23 24 25 26 26 27 26 24 23 16 7 17 19 20 10 7 4 11 14 19 21 24 23 24 27 25 24 23 22 19
12 12 12 10 11 13 13 15 14 15 18 20 19 20 21 22 23 24 26 27 29 29 29 27 25 17 10 16 14 12 12 10 13 12 11 15 18 19 24 25 23 25 25 25 23 21 20
13 12 14 14 12 12 13 15 14 13 16 19 21 21 21 22 24 26 27 29 31 31 31 29 20 10 15 25 16 25 23 19 15 15 13 15 20 20 18 24 24 25 26 22 22 20 21
13 12 12 14 16 17 15 16 17 17 21 21 22 22 23 23 26 29 30 32 33 31 27 20 10 8 9 18 17 20 18 21 22 17 18 17 22 18 17 21 22 25 22 21 22 22 22
15 14 15 15 15 15 17 17 16 16 22 19 22 23 24 24 25 29 33 34 32 21 20 13 7 9 10 5 12 9 9 13 14 19 12 13 15 12 16 17 16 17 19 23 24 23 21
13 15 15 17 16 15 17 17 15 16 19 18 18 23 23 25 26 28 33 35 25 27 16 11 14 9 12 10 6 11 7 7 8 10 9 11 8 12 17 15 17 19 21 21 22 20 24
15 15 15 16 16 17 18 16 14 17 20 20 17 20 20 24 26 26 32 21 5 5 13 14 9 13 27 24 25 15 15 7 8 8 14 8 12 18 23 21 22 20 22 23 21 20 18
16 16 16 15 17 18 16 15 18 19 20 20 19 20 21 21 24 26 26 8 5 9 13 20 24 24 26 27 20 20 12 6 12 13 14 9 21 19 21 21 22 22 24 25 23 12 8
17 18 17 18 17 18 19 19 20 20 17 18 20 20 20 21 22 20 13 13 11 12 7 15 10 9 7 6 12 16 17 11 14 13 13 19 16 17 22 28 24 22 23 22 24 20 18
19 19 18 17 16 17 19 21 19 15 16 18 19 18 17 20 15 15 13 4 11 8 5 7 10 6 8 4 5 3 16 13 2 8 10 8 15 18 18 29 23 22 21 25 24 18 14
19 19 18 17 16 18 19 18 17 17 18 18 18 16 15 14 18 14 15 14 11 3 5 11 10 8 5 6 6 7 12 14 11 7 5 4 10 21 24 25 21 23 15 23 21 18 17
19 17 16 17 18 19 20 21 20 20 20 20 18 16 15 16 16 17 14 13 11 4 8 9 9 9 11 15 12 9 10 7 1 10 14 15 12 9 13 22 20 17 18 23 21 15 16
19 19 19 19 21 23 22 21 21 23 21 19 17 16 14 15 18 15 12 8 5 6 3 9 7 3 6 10 12 12 11 14 8 4 10 14 25 18 18 20 16 22 10 8 8 13 12
19 19 20 20 20 21 20 19 22 19 17 16 19 17 16 18 19 15 13 5 10 8 15 0 5 7 13 15 13 5 11 12 16 10 8 5 4 18 11 19 11 17 20 9 7 8 12
20 20 20 20 20 21 21 19 19 19 16 15 18 19 22 20 19 16 5 10 6 15 16 14 9 7 16 15 5 9 16 13 9 15 7 4 5 6 17 10 8 12 19 25 13 9 6
21 21 20 20 20 20 20 21 20 17 18 15 18 17 23 20 21 17 8 17 18 14 10 6 7 7 12 12 3 1 1 2 3 4 12 4 8 12 17 14 19 23 19 15 10 7 6
21 20 20 20 21 20 20 19 20 14 16 16 10 5 14 26 21 6 11 18 18 22 16 8 9 14 16 11 11 7 2 6 4 3 5 7 7 3 7 7 18 11 15 14 12 13 6
20 21 22 21 21 20 20 20 17 15 14 12 7 5 12 31 8 4 10 18 21 17 11 12 12 13 15 16 12 9 9 6 7 5 3 5 5 9 19 16 20 17 20 18 9 19 12
23 22 22 22 21 21 20 21 20 17 16 8 4 9 19 12 8 13 15 22 22 21 19 13 16 15 16 16 15 9 14 10 7 4 5 6 5 6 9 10 16 16 19 19 12 10 8
22 22 23 23 22 22 21 20 19 19 17 12 3 4 9 7 10 14 18 18 19 21 20 17 16 16 13 16 17 7 5 7 7 4 7 5 6 9 10 9 8 14 22 22 17 4 7
24 23 22 22 22 22 22 20 19 18 17 12 3 5 5 8 11 16 18 7 16 18 17 16 15 19 16 15 14 16 18 11 11 8 3 3 5 8 13 16 16 14 16 21 22 19 15
25 25 24 23 23 21 22 22 19 14 14 11 3 4 8 6 11 16 17 18 19 14 17 16 16 18 19 17 14 14 15 11 6 8 3 3 4 11 10 15 15 16 12 14 11 15 15
28 28 28 28 26 24 22 22 21 23 21 6 10 19 6 7 10 11 10 19 19 18 14 18 10 16 12 12 6 7 13 2 13 7 5 3 1 4 4 13 7 9 12 10 10 10 8
31 31 31 31 29 27 26 25 25 24 25 15 7 10 5 12 12 12 15 12 12 17 17 15 12 12 10 8 5 11 11 14 14 15 11 7 5 2 4 10 4 9 12 12 4 8 8
34 32 32 31 30 30 29 30 29 27 25 24 19 9 5 10 13 17 16 8 14 10 10 12 13 3 7 4 3 6 10 14 19 17 16 12 6 2 3 4 6 4 2 9 12 5 5
32 30 29 30 28 24 28 32 33 32 26 28 25 22 6 3 11 17 14 15 10 10 10 12 5 6 6 3 1 8 7 8 9 8 20 16 11 6 4 4 1 3 6 14 9 3 6
32 30 28 27 24 21 20 27 33 35 33 29 20 26 9 6 14 13 10 8 11 7 8 4 5 4 4 2 2 4 9 9 7 8 19 14 12 11 7 4 5 6 14 17 2 3 5
32 30 30 28 26 22 22 23 30 35 36 34 30 23 21 4 13 17 17 12 12 5 4 4 5 3 3 2 3 6 5 3 5 7 15 12 10 7 9 7 6 4 7 2 7 6 7
34 35 33 30 29 26 25 25 26 34 38 37 22 26 21 6 5 12 18 26 24 16 2 1 4 3 2 5 4 3 4 2 6 2 14 8 8 5 8 6 11 14 15 12 11 12 12

GFSGBSN_925_spd_075.txt.gz
Wind_Speed
9 9 10 10 9 10 11 12 14 14 14 17 18 20 21 22 21 21 24 26 28 28 28 28 25 22 14 4 11 13 18 22 6 5 8 8 7 7 9 9 11 17 18 20 21 21 23
10 10 11 12 12 10 12 12 13 16 15 17 21 23 22 23 24 25 27 29 29 30 30 28 24 15 6 10 11 10 15 13 13 13 10 8 6 10 12 14 16 16 18 20 19 20 15
10 12 11 11 12 15 16 16 15 15 17 19 22 21 24 25 26 29 31 32 33 33 30 27 17 8 8 21 10 17 16 16 19 21 5 18 11 5 9 11 14 18 17 17 18 17 12
9 12 12 13 16 16 15 17 17 17 15 19 21 21 25 27 28 30 32 34 36 34 27 19 9 4 8 23 19 22 19 19 16 20 18 19 21 6 4 7 11 10 13 15 13 11 15
11 13 13 13 15 16 15 17 18 16 16 18 23 21 24 26 28 31 34 38 36 31 19 15 4 7 9 16 7 12 17 8 10 12 15 18 9 5 4 4 5 6 9 12 17 14 16
12 13 13 15 15 14 16 17 19 15 17 19 22 21 23 25 28 31 34 40 23 7 3 6 8 5 9 7 2 12 9 5 3 4 4 2 3 4 2 2 8 4 7 9 14 22 17
11 13 14 15 15 15 16 18 16 18 20 21 19 21 24 26 28 30 33 18 6 3 7 7 6 9 16 16 28 6 18 8 5 3 4 6 5 8 8 10 14 13 15 19 18 17 16
12 14 16 16 15 15 17 17 19 19 19 20 18 21 23 25 27 28 23 4 8 9 10 14 22 24 30 23 13 12 16 4 3 6 6 4 6 7 11 15 14 13 18 23 23 20 16
14 16 17 17 16 15 15 16 18 21 21 15 17 21 21 23 26 14 19 18 18 15 4 16 12 11 10 14 12 13 9 6 6 5 7 10 7 5 12 18 15 14 17 19 19 20 24
12 15 17 16 15 14 14 16 17 16 16 16 18 20 21 22 12 20 11 29 24 11 4 8 6 6 10 4 6 12 12 8 3 0 3 3 4 10 15 17 13 11 11 23 17 12 9
13 14 15 14 15 16 15 17 17 18 18 19 19 19 19 15 19 8 15 30 22 4 5 8 8 16 10 8 4 5 9 5 8 7 5 6 4 5 14 17 16 9 15 22 7 9 13
13 14 16 16 17 18 18 20 20 19 18 19 19 17 16 17 13 21 22 28 10 1 8 8 9 10 10 11 4 5 5 3 1 5 9 11 7 5 2 11 8 8 15 6 7 4 8
14 16 16 16 15 16 17 18 18 18 18 19 18 15 14 15 9 20 19 12 2 6 10 10 8 16 17 7 12 10 10 7 5 3 5 6 13 12 7 7 8 9 9 1 3 4 6
16 16 16 17 17 17 17 18 17 17 17 17 15 15 20 16 18 16 16 3 9 9 13 9 6 5 3 4 10 8 12 6 7 5 2 2 5 5 11 11 5 12 6 4 5 3 3
17 17 18 17 17 17 18 18 18 18 16 15 15 17 20 20 15 16 2 6 5 8 7 13 11 6 1 11 10 5 10 4 4 11 6 3 3 2 5 9 14 5 8 5 8 5 4
17 18 18 17 17 17 17 17 17 15 14 13 10 10 17 22 16 13 5 14 12 11 17 17 7 5 3 6 4 3 4 4 3 7 3 0 5 5 1 11 10 8 3 3 3 3 3
18 19 17 17 18 18 18 17 16 15 13 10 7 4 9 14 18 4 10 10 11 20 20 7 12 9 9 10 9 6 6 2 1 5 6 5 2 1 3 6 6 7 4 6 2 4 3
19 18 19 19 19 19 18 17 15 15 11 10 4 4 11 12 6 3 14 7 9 24 24 17 11 8 8 9 8 7 4 5 5 4 6 1 3 5 11 11 14 13 11 11 4 4 5
19 20 19 19 19 19 19 18 16 15 13 4 2 4 18 8 8 12 8 15 21 20 20 12 10 9 8 7 4 6 7 7 7 4 4 3 3 4 6 5 9 4 12 15 9 4 6
20 20 19 20 20 19 18 18 17 15 13 8 1 3 4 3 1 7 12 15 17 17 23 19 16 14 11 8 6 5 2 5 4 4 6 2 4 6 6 11 3 4 8 16 17 3 5
20 20 21 21 19 18 18 17 17 15 14 10 3 4 3 3 5 12 10 1 10 17 17 16 16 12 12 8 7 5 5 8 4 10 4 3 4 6 11 14 11 12 14 15 22 17 5
25 24 23 22 21 19 18 17 17 14 12 8 3 2 3 3 7 5 9 7 15 15 8 9 11 8 7 7 7 9 1 4 3 3 4 4 3 3 8 9 7 15 17 15 17 20 17
25 25 25 24 23 23 21 20 18 15 14 5 6 9 3 4 5 5 3 4 9 10 8 8 4 9 6 9 6 3 2 4 5 4 5 3 2 3 3 7 12 8 7 12 10 9 14
25 25 26 26 26 25 23 22 21 19 21 12 6 2 0 4 5 7 16 8 10 14 9 7 3 14 2 6 6 5 6 8 6 8 7 5 4 1 4 6 4 4 3 3 8 5 5
26 26 28 28 27 25 25 25 24 24 22 24 15 3 2 4 5 9 13 11 10 8 8 6 5 3 2 3 2 4 4 4 8 12 12 11 4 1 2 5 9 4 6 3 6 8 12
28 28 26 26 26 25 24 22 26 26 24 23 21 15 2 2 4 10 10 8 5 6 5 5 4 3 5 3 3 2 3 5 4 4 18 9 7 4 2 4 3 4 7 5 3 4 8
29 27 26 26 25 22 20 17 21 27 28 25 10 24 5 4 4 6 3 4 6 5 4 5 1 0 1 3 2 4 4 4 5 5 4 10 8 10 4 2 7 4 7 1 4 4 8
30 26 28 28 25 23 20 18 17 25 31 29 21 17 18 3 6 8 10 8 7 4 4 7 3 2 2 1 2 3 3 4 4 6 7 9 7 5 3 4 6 12 8 3 8 9 13
31 32 31 29 28 26 23 21 21 21 29 32 14 22 21 4 3 13 12 16 12 9 2 1 4 3 2 2 1 3 3 3 2 3 1 4 6 5 6 3 10 14 14 13 13 14 13

GFSGBSN_925_spd_078.txt.gz
Wind_Speed
5 6 7 9 10 9 9 10 12 13 13 14 18 22 20 20 21 23 25 27 29 29 28 27 24 21 13 3 11 11 9 10 12 8 6 4 5 5 5 5 5 10 16 15 15 16 20
6 7 6 6 8 9 10 13 14 15 15 16 18 22 20 21 23 25 28 32 31 31 30 26 22 15 4 7 8 4 8 18 7 8 6 5 5 5 6 6 8 4 11 16 14 17 18
5 6 7 8 9 11 11 12 13 15 16 15 17 21 23 24 27 26 30 33 35 33 33 28 19 9 9 21 12 15 21 13 16 12 4 6 5 1 2 5 4 4 12 16 17 12 11
6 8 8 8 10 13 14 12 14 16 14 14 17 22 23 25 29 30 33 36 36 33 31 25 10 6 9 17 18 22 14 13 8 12 15 17 13 4 4 5 6 5 5 8 8 11 11
7 9 8 10 10 12 12 14 15 16 15 16 17 21 23 26 30 32 36 38 34 27 14 5 7 7 10 11 6 7 8 7 6 8 6 13 2 5 3 1 4 4 13 12 9 6 8
9 9 9 10 10 12 12 13 17 16 16 17 18 19 23 27 29 31 35 36 14 9 9 8 2 5 9 4 2 9 4 3 5 2 3 3 2 2 2 3 11 5 7 7 9 2 7
7 9 11 13 13 12 12 13 15 17 18 18 18 18 23 26 30 30 31 13 7 4 4 8 6 6 11 7 13 4 12 9 3 2 3 3 2 7 7 8 6 8 12 14 11 11 6
9 11 12 13 14 14 13 12 13 17 17 18 15 17 22 25 27 30 15 5 14 17 13 13 20 24 35 19 10 17 7 3 5 5 3 2 6 10 8 6 8 12 15 17 12 12 13
10 11 12 13 13 13 12 12 13 15 16 17 16 18 22 24 27 10 24 7 29 29 5 12 12 9 10 19 14 22 8 6 4 4 5 8 5 5 5 4 9 13 12 8 8 15 21
8 9 11 12 12 12 12 13 14 16 16 17 19 19 20 21 10 25 10 31 30 22 4 8 8 8 8 7 6 14 15 6 5 7 5 5 3 1 2 5 9 14 8 8 10 12 9
9 10 11 13 13 13 14 15 16 18 18 18 20 19 17 12 17 6 17 31 29 2 4 2 6 11 10 9 4 4 9 4 9 6 6 5 2 2 4 6 8 11 7 8 8 10 5
9 10 12 13 13 14 14 14 15 17 16 16 16 17 14 12 10 15 20 26 8 0 9 6 4 8 8 6 2 4 4 5 4 5 3 6 3 5 7 2 7 8 4 12 6 3 7
12 12 13 13 14 14 15 15 15 16 15 15 16 15 10 8 6 18 19 10 2 6 8 4 3 9 12 7 8 7 7 6 6 5 4 3 6 4 4 2 4 3 4 4 4 5 9
11 11 12 14 15 15 14 14 15 16 17 16 17 15 13 16 18 14 10 2 8 7 9 15 14 11 12 7 6 10 9 5 4 3 3 4 4 4 3 7 3 11 7 3 5 4 7
11 14 14 14 15 14 14 14 15 15 15 15 15 14 11 19 14 10 2 5 6 5 4 14 16 2 6 5 1 6 9 6 6 7 6 4 4 1 6 4 8 4 7 3 3 3 3
12 13 14 16 14 13 13 14 15 15 14 13 9 8 12 18 11 7 4 8 7 6 11 9 7 11 8 8 6 3 9 2 3 3 4 2 2 2 5 4 6 9 3 4 3 3 3
13 15 16 14 13 15 14 14 14 13 13 10 4 3 13 13 10 3 9 8 7 10 13 7 8 10 9 6 7 6 2 1 2 2 7 3 2 2 1 7 9 5 4 4 1 3 2
14 15 14 15 16 15 15 14 13 13 9 6 3 2 3 6 4 3 10 7 6 14 14 13 7 13 5 8 4 4 3 1 3 3 5 3 3 4 9 7 10 5 2 6 3 4 4
16 16 16 15 14 14 15 14 14 13 8 2 2 3 12 8 3 7 4 10 12 18 17 5 6 5 11 6 4 2 5 5 5 3 3 4 1 3 6 2 7 3 8 9 4 0 5
17 19 15 15 15 15 15 14 13 12 7 6 2 3 3 2 3 5 6 11 13 12 15 16 16 15 15 7 3 4 3 4 4 3 6 4 1 4 3 4 2 4 5 5 8 4 7
17 15 16 18 17 16 15 14 13 11 8 9 3 4 3 3 3 8 7 6 13 12 13 16 7 15 14 4 5 5 1 3 2 8 3 3 2 2 7 12 14 15 16 14 10 12 7
18 18 18 17 17 16 16 14 14 12 9 5 2 2 3 2 7 1 9 9 14 7 4 6 3 6 1 2 2 3 2 1 3 2 3 1 3 2 5 7 7 14 16 17 17 19 14
21 21 20 20 20 18 17 17 16 13 14 5 4 5 1 4 5 6 3 9 5 5 9 12 6 6 3 1 2 4 4 4 2 6 7 4 1 1 4 7 12 11 10 14 13 15 18
20 20 19 19 19 20 20 20 18 17 20 13 6 3 2 2 3 5 14 13 13 9 5 5 14 6 2 1 3 1 3 6 5 7 7 6 4 3 4 6 4 2 11 4 6 9 13
20 20 20 20 21 21 22 20 20 21 19 22 12 4 2 2 3 8 9 8 11 8 3 3 3 2 2 3 2 3 3 3 5 10 10 8 4 1 2 2 10 4 5 4 3 6 6
21 20 21 22 22 21 21 20 20 18 22 23 20 14 2 1 4 5 3 6 3 7 8 5 5 2 4 2 2 2 3 2 3 4 10 8 5 4 2 3 4 1 10 5 2 3 9
22 23 23 22 21 21 19 19 17 18 20 20 10 22 5 2 4 2 2 2 1 3 4 3 8 5 3 2 1 2 3 3 3 4 2 3 3 11 6 4 7 8 3 5 0 5 12
25 24 23 22 20 21 20 19 15 14 21 24 16 14 16 3 4 5 3 2 2 1 2 5 6 3 1 1 2 3 3 4 3 4 4 6 6 5 3 5 8 4 6 1 7 11 13
24 24 23 24 25 24 22 19 17 17 19 25 9 20 20 2 4 5 8 14 12 9 3 1 3 4 2 2 0 2 2 3 1 4 3 5 7 5 6 3 9 13 14 13 12 12 11

GFSGBSN_925_spd_081.txt.gz
Wind_Speed
4 4 5 5 6 7 9 10 13 14 15 15 17 19 20 22 22 24 29 30 29 30 28 25 22 20 12 3 11 9 8 6 6 7 8 4 4 4 5 5 5 9 8 6 8 8 9
5 5 6 5 5 8 10 11 11 14 16 17 16 18 21 22 24 26 30 33 34 34 31 25 20 13 5 8 7 4 5 8 7 7 5 6 4 6 5 4 6 5 6 10 8 12 8
3 4 6 6 8 10 12 12 12 14 16 14 15 18 23 24 26 30 34 37 38 38 34 27 18 8 10 22 10 13 19 21 10 9 3 8 4 1 1 5 5 6 9 8 7 3 7
3 5 6 7 9 10 12 12 13 15 15 14 15 19 23 25 31 32 35 39 37 33 29 21 12 7 9 16 19 23 16 14 14 14 18 14 9 4 4 5 6 4 4 6 1 8 7
4 5 6 7 9 10 10 11 13 15 16 16 17 19 22 27 32 35 38 36 30 16 10 5 9 6 11 10 8 8 11 5 7 7 11 11 6 6 2 2 4 2 11 11 7 7 7
2 3 4 7 10 11 10 11 12 15 17 18 19 19 20 29 33 34 37 30 11 6 11 9 5 3 9 3 3 8 3 4 4 2 1 4 3 3 2 4 7 4 7 6 4 4 5
4 4 6 8 10 11 11 11 10 13 17 17 17 17 20 26 32 34 28 11 7 3 7 7 7 9 11 7 9 2 1 4 3 3 5 2 3 6 8 6 4 5 9 16 8 8 9
5 5 7 8 9 11 11 10 11 14 15 17 18 18 20 25 29 28 23 4 8 10 14 16 22 26 39 22 9 16 3 3 3 6 4 1 6 8 6 6 7 7 9 11 11 9 8
5 5 4 7 9 9 10 11 12 13 15 16 19 20 22 25 27 10 20 2 24 23 6 11 15 13 11 20 16 24 6 4 5 6 6 6 4 3 5 6 7 10 8 10 13 6 10
4 4 6 7 9 10 10 11 12 14 17 17 19 19 20 21 9 23 11 26 28 15 5 7 6 8 9 9 7 22 20 7 5 11 6 5 3 3 3 4 5 9 6 11 11 5 6
4 6 6 7 8 9 10 12 12 14 16 16 16 17 16 13 15 7 16 27 26 1 5 3 4 5 10 9 3 4 11 4 9 6 7 5 5 3 4 5 4 5 9 13 3 4 7
7 6 7 8 8 10 11 11 12 14 15 16 14 15 16 11 10 12 20 23 6 2 9 7 0 3 5 7 2 5 4 5 4 5 2 4 2 5 6 4 4 4 7 4 2 2 7
6 7 8 7 7 10 11 11 12 14 15 16 15 13 13 10 5 13 18 7 1 5 8 7 9 9 11 4 3 4 6 6 6 5 5 2 4 2 3 1 4 4 3 2 2 3 7
8 6 7 9 8 10 10 11 12 14 14 15 14 13 14 18 17 14 8 1 9 9 6 11 12 17 9 5 6 6 7 4 1 4 3 5 2 7 4 6 4 6 5 3 5 3 3
7 7 9 9 8 11 10 11 12 14 14 13 13 10 14 21 10 6 3 7 4 3 4 11 12 7 9 11 14 5 8 8 6 6 5 4 3 2 5 5 5 3 8 3 6 3 3
11 8 8 10 9 9 10 11 13 13 13 12 8 6 11 15 3 8 2 11 3 4 7 5 5 7 6 11 13 5 8 0 4 4 3 3 1 1 2 3 5 5 5 2 4 4 3
8 11 11 10 10 11 11 11 12 12 12 9 4 3 5 7 8 2 4 6 6 8 10 6 5 6 6 8 16 5 2 1 4 3 7 3 2 1 1 6 6 4 3 4 4 3 2
9 8 11 11 10 11 11 11 12 12 9 3 1 2 3 8 1 2 6 4 3 9 5 5 5 8 4 8 11 7 4 4 3 1 4 3 3 4 9 3 5 3 2 5 3 3 4
11 11 12 13 11 10 11 11 11 11 6 2 1 2 7 6 3 1 4 9 6 10 11 4 5 2 4 5 6 4 4 1 3 4 4 3 3 3 6 4 2 1 1 5 6 3 6
12 11 12 13 9 10 11 11 12 12 6 6 1 3 3 1 2 3 5 8 7 10 13 11 10 11 13 7 17 4 2 2 4 5 7 3 3 4 3 4 1 6 8 7 5 4 4
14 14 10 12 13 13 13 13 14 11 6 8 2 4 4 3 2 10 4 4 9 9 10 11 4 12 8 4 11 4 3 3 5 6 3 3 3 3 6 10 11 14 15 14 15 14 7
14 13 13 13 13 13 12 13 12 10 7 7 2 2 2 3 4 3 1 3 11 16 5 5 12 7 6 8 7 2 2 3 3 1 3 0 1 1 4 7 7 12 18 15 14 18 16
14 16 17 18 15 15 15 16 13 13 13 4 5 4 2 3 4 1 2 5 11 12 9 9 2 4 4 3 3 3 3 2 2 4 3 2 2 2 4 6 11 8 4 6 9 17 15
14 17 16 16 15 16 16 17 17 14 18 12 7 2 2 2 3 4 8 13 14 11 3 3 2 3 4 4 4 2 2 2 3 6 5 6 3 2 3 5 3 4 6 8 12 7 10
15 15 16 17 17 16 17 18 18 16 17 20 11 4 1 2 2 7 9 9 11 10 7 4 2 3 9 4 2 3 3 3 4 7 10 7 4 1 2 3 8 8 3 6 7 5 11
15 16 17 17 17 18 19 18 16 15 16 24 18 15 2 1 4 2 3 6 4 7 7 4 6 7 3 3 2 1 1 2 3 5 3 5 2 3 1 2 4 3 0 2 8 6 16
17 17 17 18 20 20 19 17 16 15 16 18 11 24 4 2 4 2 3 4 3 3 3 4 8 6 3 2 2 1 2 2 3 3 3 3 2 11 7 4 6 5 8 4 4 5 11
18 18 19 21 22 20 19 17 16 15 13 23 14 23 15 3 4 3 4 3 4 1 1 4 4 3 3 2 1 1 2 3 2 4 3 5 5 4 3 3 8 11 6 3 4 9 11
19 20 21 21 20 19 19 19 17 15 13 22 6 20 26 2 4 6 15 17 11 14 3 2 2 2 3 2 1 2 2 3 3 3 3 3 3 3 4 1 8 11 13 12 8 12 11

GFSGBSN_925_spd_084.txt.gz
Wind_Speed
2 2 4 5 6 8 10 10 13 13 15 16 16 17 19 23 24 26 30 33 31 30 28 25 22 18 10 4 11 7 9 5 4 6 7 5 5 5 5 4 3 6 4 4 6 7 7
4 3 4 5 6 8 10 11 12 14 16 17 15 18 20 23 25 29 34 38 37 36 32 26 19 11 2 6 6 6 6 7 5 8 6 7 5 7 3 5 4 2 3 8 8 13 8
2 2 3 5 6 8 10 11 11 13 16 16 16 19 23 25 27 32 38 39 38 35 33 26 16 7 8 19 12 10 21 19 18 10 4 9 6 4 3 3 3 5 7 7 6 6 8
4 2 2 3 5 7 9 10 12 14 15 17 19 20 23 26 29 36 42 40 34 31 20 15 8 8 9 13 17 25 20 20 20 18 16 10 8 4 4 4 5 4 3 2 4 4 7
4 3 2 3 4 7 9 9 10 12 14 18 19 20 21 24 29 35 44 33 28 10 13 4 9 5 10 9 7 13 11 7 9 17 15 5 6 6 3 3 4 2 6 4 6 4 5
2 3 3 3 7 8 10 9 9 11 14 16 17 19 21 25 30 33 36 29 12 3 8 5 6 4 8 4 7 14 7 8 4 6 4 4 2 4 3 4 7 6 5 3 3 4 6
4 2 2 4 5 7 8 9 7 9 13 15 17 19 21 25 29 32 33 10 7 4 7 6 12 14 21 9 11 2 4 9 2 3 5 4 4 7 9 5 2 3 4 7 4 5 9
2 2 3 3 5 6 7 8 10 11 12 14 17 20 22 24 26 19 22 5 6 10 14 14 21 24 35 22 13 20 9 3 4 5 4 1 8 7 7 5 5 5 7 8 7 5 6
5 3 0 4 5 7 7 8 10 12 14 16 17 18 20 23 19 15 13 3 24 20 6 10 11 10 7 15 15 21 7 5 5 7 7 6 4 5 7 5 5 5 5 4 8 8 9
4 3 2 4 6 7 9 10 11 12 13 14 14 15 18 23 5 19 5 24 27 12 5 8 4 6 4 5 7 25 22 8 5 10 6 7 5 6 4 4 7 3 5 4 7 7 2
4 3 3 4 6 7 8 9 10 11 13 14 14 14 16 14 12 7 14 28 28 1 6 4 3 2 2 4 10 6 14 5 12 7 6 5 5 4 3 5 6 5 2 3 4 4 6
5 3 3 4 5 5 8 8 9 11 13 14 14 14 15 12 11 9 20 27 7 1 8 7 2 10 9 5 5 3 2 2 5 5 1 5 1 4 6 3 5 3 1 4 4 2 5
3 3 2 3 4 7 7 7 8 10 12 15 14 13 14 12 4 15 20 8 2 4 8 6 9 13 14 11 4 6 5 4 5 5 5 2 4 3 3 1 1 2 2 2 3 3 5
3 4 1 5 5 6 8 7 8 10 12 13 14 15 16 16 16 17 7 3 4 3 6 12 13 17 6 15 8 4 7 5 1 5 4 6 2 7 4 4 3 4 4 2 4 3 4
4 3 3 4 5 7 7 7 9 10 12 13 13 14 12 8 6 5 4 3 3 2 9 11 15 5 5 9 9 7 5 7 7 7 4 4 1 2 2 3 5 3 4 2 4 3 5
6 8 5 6 7 6 6 8 9 10 12 11 10 8 7 6 3 6 3 5 4 5 12 8 4 6 6 13 9 12 3 2 4 6 2 4 4 2 1 3 1 3 3 1 3 3 4
6 4 6 6 5 6 7 8 8 9 10 8 5 3 5 2 7 1 2 4 3 9 10 5 6 8 7 8 9 7 2 4 3 2 5 3 3 1 1 3 5 2 1 2 1 3 2
7 6 6 7 7 6 6 6 7 8 7 3 2 2 3 4 2 1 2 2 1 6 5 5 5 9 12 1 7 7 5 5 7 2 4 1 4 2 6 2 3 1 4 4 3 2 4
8 7 9 8 9 6 5 6 7 7 4 1 1 2 2 3 0 2 3 7 6 5 6 4 4 7 2 6 6 7 5 2 4 3 4 4 2 1 2 2 3 2 2 3 2 4 5
9 9 8 8 9 5 5 7 7 6 2 3 2 2 3 1 2 2 4 7 6 7 13 11 9 9 12 6 9 9 14 7 2 3 6 2 2 3 3 2 2 3 3 5 5 3 5
9 10 12 9 7 8 9 8 8 4 3 5 1 2 3 3 3 3 3 3 11 10 10 6 5 16 13 5 5 4 6 5 6 4 3 3 3 1 3 5 2 6 9 11 10 13 9
12 11 10 10 9 7 8 8 6 5 5 5 3 1 1 3 4 5 4 3 12 9 4 6 12 9 10 8 6 3 6 3 2 3 2 2 3 3 3 4 2 4 15 14 12 14 15
12 13 12 13 12 13 11 10 10 8 10 3 3 1 1 4 4 1 3 3 10 13 11 16 8 4 5 9 13 10 6 3 3 3 1 2 3 2 3 4 6 5 5 4 6 8 14
14 14 12 12 11 11 11 11 12 11 18 10 6 4 1 4 3 5 10 13 16 15 12 4 12 6 2 9 6 3 5 5 4 6 4 6 4 1 2 4 2 5 0 4 7 13 9
16 14 12 10 11 12 12 12 11 11 13 17 9 5 2 3 3 9 8 12 14 13 10 2 6 4 10 6 1 1 2 2 5 6 7 3 4 2 1 1 6 9 2 2 2 18 11
16 16 13 12 12 12 13 13 12 11 11 22 17 14 2 0 4 5 4 6 5 7 7 2 7 7 2 1 1 2 2 1 2 1 4 5 4 3 2 1 3 4 3 6 7 5 17
12 12 13 13 13 13 15 14 13 12 10 20 9 22 4 3 4 3 4 2 4 5 5 4 10 7 4 3 2 1 1 2 1 3 2 3 1 7 6 5 5 4 11 9 5 7 11
13 13 14 15 14 16 16 15 14 13 12 16 9 26 10 3 5 4 3 2 5 1 2 7 6 4 4 5 3 3 3 3 3 2 2 4 4 3 3 3 6 15 8 3 4 9 7
15 14 14 16 16 16 15 15 13 13 12 14 5 22 25 2 4 8 16 18 13 12 2 2 1 3 3 3 1 2 2 3 2 2 5 1 3 2 4 1 7 11 11 12 11 8 10

GFSGBSN_925_spd_087.txt.gz
Wind_Speed
7 3 3 2 2 4 7 7 8 10 13 14 15 15 17 19 22 24 27 33 33 30 27 26 19 15 8 3 10 10 11 5 3 5 6 6 5 5 6 5 5 7 6 8 8 12 11
5 3 2 1 1 3 6 7 7 9 12 13 14 16 18 20 22 25 30 33 33 28 29 24 17 8 2 5 6 7 7 7 5 5 4 6 6 6 4 4 6 5 4 6 8 13 12
7 5 3 1 3 3 5 6 8 9 11 13 16 17 19 20 22 28 33 35 29 29 21 17 10 7 5 16 10 13 19 15 13 8 4 9 6 4 3 2 2 3 7 7 7 10 10
8 5 3 2 2 3 5 6 7 9 11 14 16 17 19 21 25 29 33 31 27 19 14 11 3 7 8 10 14 19 17 18 18 20 18 12 7 5 3 3 2 3 4 5 2 3 5
8 6 4 4 3 2 5 5 6 8 11 14 15 18 20 23 27 30 29 27 21 5 10 8 5 2 9 11 5 10 7 6 4 9 12 4 3 3 2 3 5 1 8 6 6 2 3
8 9 7 4 2 3 4 7 4 7 11 13 14 18 21 24 28 28 28 22 8 2 7 3 5 3 7 6 8 18 7 7 3 5 4 5 3 5 4 7 10 6 6 5 7 2 12
8 6 4 1 1 3 4 5 6 9 10 13 15 18 21 24 28 23 24 7 8 4 9 6 15 10 22 28 23 10 3 9 4 4 9 5 7 14 18 16 13 3 4 8 6 8 12
8 6 3 5 5 4 4 5 6 8 11 13 15 17 20 23 23 21 15 7 6 7 12 19 24 22 32 22 12 16 11 2 4 10 5 4 16 11 9 10 11 13 14 14 8 9 7
9 8 6 4 3 3 4 5 6 8 10 13 14 15 18 23 10 20 11 9 18 9 5 10 6 5 6 8 7 14 10 11 8 12 12 13 5 10 11 7 10 11 13 8 9 8 11
11 9 5 3 4 4 5 6 6 8 10 12 13 13 17 23 3 16 3 19 23 3 4 7 3 3 2 3 6 10 16 9 10 16 11 11 7 5 9 11 12 13 9 9 6 4 4
12 8 5 4 3 3 5 5 7 8 9 11 12 13 14 14 8 6 13 24 20 3 6 2 3 2 4 4 13 1 6 16 12 9 9 6 7 8 12 8 9 4 4 4 4 5 4
10 9 5 2 2 3 4 5 6 7 9 11 12 13 14 9 11 7 20 24 1 1 7 7 4 13 18 17 5 1 2 4 6 4 1 6 2 4 4 4 7 5 2 3 3 4 5
7 5 4 4 3 2 3 3 5 7 9 11 14 14 13 10 5 15 18 6 1 4 7 5 8 13 18 10 9 12 4 12 5 11 10 3 3 2 2 5 2 4 3 2 2 4 5
7 5 6 2 2 2 3 4 6 8 9 11 14 15 12 7 10 10 6 2 5 2 5 10 12 17 9 11 7 9 10 9 6 3 8 10 5 9 5 4 5 9 5 3 3 3 2
7 7 5 3 2 1 2 3 6 7 9 11 13 11 6 9 7 1 3 1 3 2 3 10 13 6 4 9 11 9 7 12 6 7 4 7 2 2 3 3 5 5 4 0 2 4 4
7 7 7 3 2 1 2 4 5 7 9 9 9 5 4 9 4 3 3 4 4 4 8 8 5 5 6 12 14 12 5 5 5 7 2 5 6 0 3 3 2 2 4 3 2 2 3
3 6 5 3 2 1 1 3 4 5 7 6 3 2 8 8 3 1 1 4 5 8 7 4 6 9 10 12 8 6 6 12 8 4 3 4 3 4 5 4 7 4 2 2 1 2 2
4 4 5 2 1 1 2 2 3 4 5 3 2 2 1 9 2 0 2 3 6 11 7 7 6 10 13 11 7 4 7 7 16 19 5 2 3 4 3 1 4 2 4 4 2 2 2
7 6 4 3 2 2 2 1 2 2 3 2 2 1 3 1 2 1 4 6 6 8 6 3 5 7 10 6 6 8 6 5 16 6 5 4 1 5 3 3 2 3 4 2 3 2 5
6 5 5 4 5 4 3 2 3 2 1 2 2 2 2 0 1 2 3 6 5 6 11 8 11 10 15 9 10 7 7 8 10 6 7 2 3 1 3 5 3 2 3 2 3 3 5
6 6 6 6 6 4 4 4 3 2 5 4 2 1 1 2 1 3 2 3 9 8 4 9 6 15 13 4 5 6 5 7 6 10 3 3 4 4 2 4 3 3 6 6 7 12 7
6 8 8 5 6 5 5 5 3 6 9 4 3 1 2 4 4 0 3 3 9 8 5 9 9 17 12 9 9 6 2 4 4 5 5 4 2 2 2 1 4 6 11 10 10 10 13
11 10 8 8 8 7 8 7 5 11 7 3 3 3 1 3 2 1 2 4 10 14 11 13 18 16 12 12 8 12 8 10 7 6 2 2 3 2 3 2 7 4 1 4 7 8 9
10 10 10 8 7 6 6 7 8 12 11 6 5 4 2 4 3 4 8 13 13 14 13 17 10 9 2 7 10 7 8 11 11 5 1 3 3 1 2 4 1 2 8 3 5 12 11
13 13 11 9 7 9 9 9 8 9 15 14 9 5 2 3 4 10 9 8 10 10 8 4 8 6 11 4 2 2 1 2 3 2 3 2 3 2 1 1 4 2 4 5 9 15 14
14 13 13 10 8 8 8 8 8 8 10 21 17 13 3 1 2 4 5 9 7 9 9 5 12 6 4 2 1 0 1 2 2 2 7 4 2 2 1 2 2 2 10 11 8 3 15
14 12 13 12 9 10 9 9 9 9 9 18 8 21 5 2 3 3 2 4 4 4 6 6 13 7 5 4 3 3 2 2 2 2 1 2 1 3 2 2 5 10 15 10 3 5 9
13 12 12 11 12 11 11 11 11 10 10 15 6 21 10 3 4 6 3 4 5 3 5 9 6 4 5 7 4 3 2 3 3 3 3 1 2 2 2 3 3 14 5 5 3 2 8
13 12 11 13 12 12 12 12 10 10 11 14 5 13 18 2 3 4 15 19 13 12 2 2 2 3 3 3 3 3 2 2 2 1 5 2 4 3 4 3 6 8 9 9 11 7 10

GFSGBSN_925_spd_090.txt.gz
Wind_Speed
12 10 11 8 7 5 2 1 2 4 6 6 9 11 12 15 18 21 24 26 27 25 23 23 17 10 6 5 9 4 6 5 2 6 9 9 12 13 16 12 17 19 20 15 16 17 18
13 11 10 9 7 4 2 3 3 3 5 8 10 12 13 15 19 22 25 29 26 23 23 17 11 3 3 9 2 3 4 5 8 9 8 11 7 10 13 14 15 9 12 17 13 16 17
13 11 10 9 7 5 4 3 2 4 6 8 10 11 14 16 20 24 28 26 25 26 16 13 8 8 7 14 5 10 14 14 10 12 12 11 13 9 3 12 12 12 16 17 18 18 18
15 13 10 8 6 5 3 3 2 2 5 8 10 12 16 18 21 25 24 23 25 13 7 8 2 6 8 6 8 11 7 11 14 18 16 11 5 13 15 11 11 10 14 14 10 11 11
15 12 11 10 8 5 1 3 3 1 5 8 10 13 16 18 23 23 25 24 10 1 4 3 2 6 7 4 3 3 5 8 5 9 14 7 5 13 10 15 15 14 16 14 11 11 7
15 13 12 12 7 3 3 3 2 1 5 8 11 14 16 19 22 22 22 10 4 2 5 6 2 7 6 4 13 11 11 7 6 6 7 11 9 12 13 14 16 15 19 12 14 6 10
18 16 13 10 6 4 4 3 1 2 5 8 11 13 15 18 18 19 22 4 4 4 7 8 16 16 22 17 19 14 13 12 12 9 13 16 14 19 22 20 17 12 14 15 9 8 17
18 15 11 8 8 7 6 4 1 3 5 7 10 12 15 19 11 15 16 7 5 6 11 18 17 16 23 12 7 9 8 9 18 18 14 11 22 20 15 14 17 20 21 20 17 13 14
16 14 13 10 9 7 4 2 0 2 4 8 10 12 15 18 5 11 9 10 7 5 6 8 3 6 3 5 4 6 4 9 21 19 19 19 4 17 17 16 17 18 18 14 15 14 19
16 17 14 10 8 8 7 5 3 2 4 8 10 12 14 12 2 9 3 12 11 3 5 3 3 4 1 6 6 14 6 10 13 26 21 18 20 7 15 19 16 17 14 14 14 10 7
19 16 14 11 9 7 5 5 3 3 5 8 10 11 12 11 5 4 8 15 11 4 6 3 4 5 11 4 14 2 5 8 19 21 15 17 10 18 16 13 14 13 5 10 9 10 12
18 17 14 11 8 7 5 5 4 4 6 7 9 10 11 6 4 6 13 15 2 5 8 2 2 6 13 15 11 9 5 7 9 16 20 21 3 10 14 14 12 5 7 8 8 8 10
18 14 12 11 10 6 7 5 3 3 5 7 9 10 6 4 5 11 12 4 5 6 5 3 7 12 17 16 12 7 8 8 9 13 19 19 13 5 8 11 9 14 11 5 7 5 6
16 12 12 10 9 8 6 5 4 3 4 7 9 8 4 5 7 7 4 4 8 4 7 14 16 21 17 9 8 10 5 9 12 15 12 17 15 14 10 12 8 16 13 6 8 6 3
14 11 12 10 9 6 6 5 4 3 5 6 7 3 6 9 7 3 3 5 6 7 5 10 18 14 9 3 11 9 10 10 9 17 14 16 17 10 11 10 11 9 9 5 4 5 5
12 14 13 10 7 6 6 4 2 2 4 6 3 3 9 7 5 2 2 4 4 6 11 10 14 9 11 16 16 12 10 5 11 10 10 6 11 12 10 11 6 7 9 4 5 5 6
12 14 14 9 6 8 5 5 2 2 3 4 1 2 3 6 4 1 1 3 8 6 8 6 9 14 16 17 14 15 8 8 3 13 11 9 8 12 12 11 15 7 7 5 2 3 3
9 12 11 6 9 7 5 4 3 2 3 4 2 2 1 7 2 0 2 5 8 9 7 10 9 12 12 11 11 9 9 7 8 11 10 11 4 10 12 5 6 6 7 9 5 5 1
10 10 8 7 8 5 7 5 3 2 3 2 2 2 1 2 1 2 3 7 7 12 9 5 9 10 11 12 7 9 9 8 13 5 7 6 6 8 8 5 4 7 3 5 4 0 7
13 10 9 9 8 6 7 5 3 2 3 4 2 1 2 1 3 4 7 5 8 8 13 8 11 14 14 12 9 11 13 11 14 13 21 15 2 4 7 7 8 6 9 8 6 4 4
12 11 9 9 8 10 8 5 5 5 5 3 2 2 3 1 2 6 5 5 11 9 4 14 6 8 12 6 11 13 9 10 9 11 3 2 9 10 9 8 5 5 7 9 9 7 5
12 8 10 9 11 9 7 7 6 8 8 2 3 1 2 2 3 4 2 4 9 12 7 13 10 19 19 14 14 16 14 13 4 11 9 11 5 5 6 4 3 3 5 8 8 8 8
12 9 10 10 8 8 9 7 6 10 8 2 3 3 1 2 2 3 2 6 15 12 9 11 18 17 13 13 10 13 13 17 13 8 7 5 1 2 3 2 5 4 2 1 1 5 9
12 13 13 12 10 11 10 9 8 12 9 3 4 4 1 1 4 5 10 12 11 13 13 17 12 4 6 13 11 13 13 16 11 9 6 3 5 3 2 4 2 7 6 5 7 10 12
12 13 13 14 11 11 9 9 10 11 14 6 6 3 1 3 5 5 9 11 12 8 12 12 9 8 12 7 3 3 2 2 4 6 3 2 1 2 1 2 2 7 8 8 10 4 11
15 15 15 14 10 10 11 10 8 10 14 13 8 6 2 3 1 5 11 6 10 12 10 3 12 5 3 3 3 1 3 3 3 3 6 1 2 3 0 1 1 7 13 14 10 2 12
16 16 15 16 13 11 10 9 9 9 10 17 5 16 3 3 5 3 7 8 7 9 7 9 15 9 10 3 2 4 3 4 2 2 1 2 2 2 2 2 4 11 18 22 3 6 9
16 15 13 17 14 12 11 11 10 9 9 15 5 15 8 2 8 8 10 9 7 5 6 10 6 8 7 7 5 3 3 4 3 4 4 3 3 2 2 3 2 19 5 6 6 6 7
17 16 14 14 14 13 12 12 11 10 11 14 4 9 17 2 6 6 13 18 16 13 7 5 5 4 3 4 5 4 2 2 4 2 6 2 5 4 5 3 6 8 10 8 10 9 9

GFSGBSN_925_spd_096.txt.gz
Wind_Speed
25 24 22 20 16 14 12 11 10 10 9 8 10 11 11 12 14 16 18 19 19 19 19 20 19 15 10 8 14 4 3 5 4 8 15 14 14 15 19 19 21 26 25 25 24 23 23
31 27 24 20 17 15 13 11 10 9 9 8 9 10 11 13 16 17 19 17 20 22 21 19 12 9 6 13 3 4 4 6 10 14 15 16 13 15 19 19 20 20 24 24 24 23 23
33 30 28 23 20 17 13 12 10 9 8 8 9 11 13 15 17 18 18 19 21 22 17 10 8 8 12 21 9 12 12 12 13 16 16 20 18 16 14 16 22 21 23 22 23 21 23
33 31 26 24 21 17 14 12 11 9 8 9 9 12 15 15 16 19 17 18 22 15 9 5 8 9 8 8 7 12 13 14 13 14 19 20 20 19 20 19 22 22 19 19 22 23 24
32 29 26 23 19 17 15 13 11 10 9 10 11 12 15 15 17 17 19 17 17 11 7 4 4 8 9 3 9 6 7 10 11 10 12 15 18 17 17 17 18 20 20 25 27 22 23
34 31 28 24 21 17 15 12 13 12 10 11 11 12 13 15 17 16 23 20 14 11 7 8 13 7 9 8 7 14 16 20 17 15 15 11 9 17 18 16 20 21 23 24 25 21 22
36 30 27 25 23 20 14 11 14 12 10 11 11 12 13 14 15 13 25 9 3 6 12 11 10 12 19 21 14 18 13 14 15 18 18 16 13 22 23 23 27 24 26 25 23 18 19
37 31 28 24 23 18 14 14 13 11 9 10 10 11 12 12 8 11 12 6 7 5 12 19 22 22 23 16 10 16 3 6 11 18 19 18 23 24 22 25 26 27 27 27 22 22 17
36 32 29 26 23 18 15 15 12 9 8 8 10 11 10 10 5 7 4 9 7 9 6 13 9 8 4 9 11 14 6 10 13 17 18 21 27 24 26 24 26 26 26 21 20 19 18
35 36 29 26 21 18 17 13 10 8 7 6 8 10 10 8 4 6 2 7 7 6 5 5 6 5 5 6 12 9 12 17 19 20 21 23 21 26 28 26 24 25 23 18 19 16 16
37 34 30 24 20 17 14 11 9 7 6 5 7 7 9 6 10 4 9 9 6 2 5 5 8 5 3 5 13 14 17 20 19 22 22 25 25 24 27 30 24 19 22 16 18 18 17
37 31 26 22 18 16 16 14 11 8 5 4 5 6 6 5 5 6 9 8 4 3 6 4 3 2 9 13 18 22 21 19 22 26 24 26 28 28 26 27 26 12 16 15 17 13 15
30 27 23 21 17 14 13 11 9 6 4 5 4 5 4 6 7 10 9 6 5 5 5 3 6 12 16 21 22 19 20 19 17 20 19 26 25 27 27 26 11 14 10 8 7 10 13
26 26 23 21 19 14 12 10 9 5 3 3 3 2 3 4 8 8 7 5 6 6 8 16 14 18 19 18 13 11 14 15 18 9 9 16 21 15 19 18 9 23 18 7 7 7 13
27 25 23 19 18 14 15 11 8 5 3 2 3 3 4 4 7 7 6 5 6 11 12 12 16 15 11 17 13 8 13 15 14 10 5 9 14 17 22 8 6 17 23 20 12 14 6
27 25 21 20 17 15 12 10 7 4 2 2 5 7 4 3 7 10 4 5 5 9 9 11 14 11 18 18 18 16 16 14 14 7 3 4 11 17 9 14 20 12 12 13 7 4 4
24 23 20 18 18 15 12 9 7 4 0 1 5 4 3 1 5 6 3 2 6 10 7 7 14 17 17 18 17 16 7 16 5 8 9 13 7 13 12 7 15 11 4 4 7 10 2
22 22 19 18 15 14 11 9 5 2 2 4 5 2 2 3 3 3 3 4 2 6 9 11 9 12 12 14 16 17 18 14 1 9 11 9 5 7 15 19 28 19 14 17 4 5 7
19 21 20 15 13 14 11 8 5 3 1 7 4 3 2 3 2 2 5 6 3 6 10 12 11 11 15 15 15 13 15 16 4 5 5 6 4 5 4 13 21 19 16 11 14 2 6
20 21 19 15 15 14 10 8 5 3 1 3 1 0 4 6 2 5 3 3 7 9 12 12 16 18 12 12 14 8 17 9 12 9 19 11 6 10 10 10 12 16 15 3 2 4 4
21 20 17 16 14 13 11 7 4 3 1 3 1 3 2 2 4 3 2 3 8 12 8 16 7 13 15 17 17 17 10 14 13 15 6 3 7 9 23 29 13 10 11 7 7 5 3
19 18 17 15 15 11 10 6 4 6 3 2 2 2 2 2 5 4 6 3 8 11 10 10 10 17 16 16 16 17 14 13 8 7 4 3 3 10 9 4 21 12 8 16 9 9 9
19 18 16 16 13 14 9 6 7 6 2 3 2 0 4 6 8 6 4 5 8 4 8 11 13 15 15 10 15 18 16 19 17 14 6 4 1 2 11 15 19 15 10 11 19 20 15
19 16 15 15 14 11 10 9 7 6 3 5 7 5 2 4 4 2 4 8 9 5 4 11 10 11 9 19 18 16 18 18 18 16 5 6 11 1 3 4 9 11 17 19 21 18 18
19 17 17 14 13 11 11 8 5 5 3 2 5 3 3 4 4 3 6 8 10 1 6 5 8 8 10 8 5 8 2 4 3 4 4 6 8 3 3 9 9 14 18 15 11 11 17
20 17 15 14 13 11 12 8 6 6 6 1 1 3 3 3 3 8 6 7 7 9 7 3 10 4 2 3 4 3 4 3 3 4 6 7 6 3 2 6 3 9 18 16 8 4 14
19 15 17 14 14 13 11 9 7 6 6 5 2 1 3 2 3 7 7 6 7 10 8 7 17 8 2 3 4 4 5 7 4 4 7 5 6 7 5 5 6 17 22 15 2 5 10
17 16 16 15 16 12 11 11 9 6 6 7 2 1 3 3 8 7 8 9 9 8 7 13 7 7 6 7 6 5 4 6 4 11 7 8 6 6 7 5 4 23 9 7 5 7 9
17 17 16 14 15 13 12 11 10 8 6 7 2 2 1 2 6 17 18 16 13 9 6 6 2 8 5 5 6 4 4 5 10 3 12 5 5 3 6 4 8 11 11 10 10 9 11

GFSGBSN_925_spd_099.txt.gz
Wind_Speed
36 32 31 28 24 21 18 16 13 12 12 11 12 12 13 14 15 18 19 21 21 21 22 20 21 15 7 3 9 11 6 6 4 3 6 9 11 7 10 7 13 17 16 16 16 18 19
41 37 34 31 25 22 18 15 15 14 12 12 12 11 13 15 18 19 19 21 20 22 23 22 14 7 4 4 8 8 3 5 7 12 15 14 8 10 10 12 11 8 14 16 18 18 11
44 40 36 32 28 23 18 17 16 13 12 11 11 12 14 16 18 19 22 21 20 20 22 13 6 3 6 16 9 12 10 12 10 13 6 19 17 6 9 12 10 14 14 17 19 9 9
45 41 36 32 32 25 22 21 16 13 12 12 11 12 14 17 18 19 20 21 21 19 16 7 4 4 8 10 7 13 12 16 18 19 18 16 23 9 4 8 12 15 8 9 12 15 17
50 43 40 35 33 27 25 19 17 15 13 11 12 14 15 16 17 18 19 23 23 19 12 5 3 5 7 6 7 13 4 8 18 11 10 12 10 8 5 5 9 7 15 16 20 11 15
51 46 39 39 31 29 22 19 16 14 13 12 12 14 16 15 16 15 21 27 13 8 6 7 10 4 8 5 6 9 14 14 7 6 8 6 5 7 2 6 16 4 10 14 18 22 15
52 46 42 35 34 29 23 20 17 15 15 13 12 12 14 16 14 12 22 9 5 1 7 8 10 6 7 17 22 7 14 13 5 3 6 8 10 14 9 14 19 17 19 21 19 13 13
51 49 41 37 32 27 24 19 16 16 13 12 11 12 10 11 9 9 9 2 4 3 10 12 21 18 26 17 9 10 19 4 5 6 7 6 20 14 12 17 19 22 25 25 22 21 17
53 48 42 36 30 28 24 19 16 15 13 11 10 11 8 9 5 4 3 8 7 7 3 11 11 10 4 10 6 8 5 5 7 9 8 13 11 12 16 20 23 22 20 19 19 16 8
52 50 44 37 34 30 23 18 17 13 11 9 8 6 8 6 6 6 3 8 7 5 3 4 4 2 5 2 3 8 9 5 11 15 12 13 12 17 20 21 19 21 17 21 21 19 8
49 44 41 37 35 29 23 21 16 13 9 7 5 4 6 2 8 6 7 6 7 0 3 8 5 3 3 5 6 3 24 11 13 15 13 20 15 19 23 23 20 23 19 19 21 17 3
49 43 39 36 32 29 24 19 14 10 6 5 3 3 6 2 1 8 10 5 4 1 6 4 6 2 4 9 13 14 18 15 15 17 18 19 17 6 10 20 24 23 18 7 15 3 9
48 44 40 34 30 24 20 16 12 9 6 4 3 3 4 3 2 7 4 2 2 3 2 6 9 9 13 13 14 15 8 8 6 6 8 11 13 14 18 23 22 16 16 4 4 3 11
45 44 39 32 23 19 17 17 15 10 7 4 2 3 2 2 4 6 4 1 3 3 6 8 11 11 6 9 8 14 13 9 12 6 4 5 11 2 9 13 15 18 10 5 5 5 8
42 34 29 27 24 20 18 14 12 8 5 4 3 4 5 3 3 3 2 2 3 6 9 11 11 6 7 18 14 13 14 13 8 4 1 4 10 19 20 15 17 6 6 18 11 7 3
32 32 30 26 22 19 18 15 11 8 5 3 2 3 5 1 2 3 3 3 3 9 8 7 4 5 11 12 10 9 7 9 14 5 4 4 14 7 12 14 7 1 3 2 6 2 4
33 29 25 23 21 19 16 12 10 7 6 4 2 2 1 1 3 2 2 2 4 8 3 3 7 9 10 11 8 8 6 14 9 5 4 6 6 13 13 4 7 2 1 6 8 4 2
32 30 27 23 20 17 14 12 8 6 5 4 3 3 5 2 2 3 2 2 1 2 5 7 4 7 7 9 13 12 13 11 10 3 5 6 5 7 17 18 7 13 10 12 3 2 4
30 27 25 23 21 17 14 11 9 5 4 1 1 3 4 2 1 2 3 3 2 3 5 7 5 8 13 10 9 6 11 9 8 3 4 3 3 5 9 2 3 4 9 6 4 6 3
29 28 23 20 18 16 13 10 8 5 2 1 1 2 1 1 2 2 4 4 6 8 7 10 12 10 8 10 10 7 11 6 3 5 10 2 6 10 7 6 8 6 17 11 5 4 1
28 25 22 18 17 15 13 11 8 5 3 2 2 2 1 2 1 6 2 1 5 4 3 7 4 10 11 5 14 6 9 6 5 9 2 3 7 12 19 21 15 15 20 15 10 4 3
26 22 20 19 16 17 13 9 6 6 3 2 3 1 2 3 5 3 1 3 5 3 2 6 6 11 11 11 13 12 10 7 6 4 6 3 5 7 20 18 15 6 12 19 12 15 10
23 21 20 17 16 14 10 6 8 8 4 3 4 1 3 5 5 4 4 5 4 6 4 5 7 11 11 10 9 13 11 13 15 14 12 4 3 4 8 20 15 11 17 20 19 20 13
21 20 18 17 16 14 10 10 10 9 8 4 5 3 3 2 4 6 3 5 4 5 5 3 6 5 5 9 14 10 12 15 14 16 11 4 4 2 3 3 7 7 18 23 25 17 15
20 18 18 17 16 12 12 10 9 8 6 6 9 5 3 2 6 2 5 5 6 4 5 4 5 7 2 4 4 6 2 2 7 10 9 10 2 4 3 4 6 12 13 10 10 10 16
20 20 18 19 15 13 12 9 8 7 5 7 10 6 3 2 3 10 6 7 3 4 3 2 9 2 3 1 2 2 3 1 4 7 5 2 6 3 2 5 4 3 21 17 8 6 15
20 19 17 15 13 11 11 8 7 7 5 7 6 7 3 2 2 6 2 2 4 5 3 4 9 6 4 3 3 3 4 8 4 5 6 5 5 7 5 4 4 16 22 15 6 3 11
19 15 16 14 14 14 12 9 8 7 6 6 4 5 3 1 5 3 5 3 5 4 2 6 6 5 4 7 4 3 2 4 2 10 4 7 5 5 4 5 2 21 6 6 5 11 10
17 17 15 16 16 12 11 11 9 7 6 7 4 3 1 1 4 12 19 16 10 7 0 4 2 3 1 3 3 3 2 3 8 3 8 5 5 3 5 4 6 10 12 11 10 9 11

GFSGBSN_925_spd_102.txt.gz
Wind_Speed
37 36 34 35 32 27 24 20 18 18 16 15 13 14 15 16 16 18 19 20 20 20 20 20 19 13 5 2 10 7 5 5 2 2 4 3 2 1 4 5 5 9 14 12 14 16 19
42 42 40 38 36 31 26 22 21 19 17 15 14 14 15 16 17 19 20 20 21 20 19 18 12 6 1 5 5 7 7 6 4 5 4 3 5 4 7 5 5 7 10 12 11 14 14
47 46 46 43 38 35 30 27 23 21 17 15 14 12 15 17 19 20 19 21 20 20 18 14 6 1 4 15 4 8 11 13 9 10 4 11 6 2 6 10 4 9 12 15 17 7 9
50 50 48 45 43 39 32 30 26 22 18 15 14 13 15 17 19 20 20 21 20 20 17 9 3 1 8 9 15 14 8 10 11 12 17 17 15 3 4 4 8 7 6 5 3 3 6
52 52 50 48 47 41 36 32 28 24 19 17 16 14 15 16 18 18 18 19 24 23 12 4 2 3 10 14 5 10 7 2 5 3 8 9 6 5 1 3 6 2 13 11 23 2 6
53 53 53 49 48 42 40 32 28 23 19 17 16 15 14 16 16 17 18 20 4 2 5 3 2 2 8 3 3 3 2 7 4 4 6 4 4 1 3 4 9 1 6 7 14 12 8
53 54 56 53 48 43 38 32 28 23 20 16 16 14 14 13 13 11 18 2 4 1 4 8 6 5 4 5 5 4 9 7 3 2 4 4 3 5 6 9 13 13 16 19 24 25 19
49 52 57 52 48 43 37 32 28 23 20 18 15 12 13 12 8 7 8 1 2 1 7 11 18 17 24 16 9 14 8 4 5 5 2 3 8 10 10 8 12 15 18 23 21 22 20
46 56 57 53 50 45 36 31 27 23 23 18 12 11 9 9 6 4 5 4 3 4 1 7 6 6 6 11 5 5 2 1 4 4 6 8 4 8 8 9 9 13 19 20 22 24 22
35 53 54 52 48 44 37 30 27 25 20 14 11 9 6 7 3 3 4 4 1 1 1 4 3 3 2 3 3 2 4 1 3 3 7 12 7 8 10 15 11 16 13 13 18 18 16
39 49 50 47 45 37 34 32 28 23 19 13 10 7 5 2 3 2 3 8 4 1 4 7 6 2 2 5 6 4 15 3 3 11 3 14 15 12 16 16 17 20 10 15 19 19 8
38 53 50 48 42 38 34 29 25 20 14 12 10 8 5 4 3 2 5 3 0 1 5 2 6 7 5 5 7 3 7 8 5 6 7 17 5 6 9 8 9 11 12 15 14 2 8
46 55 53 49 42 40 38 31 24 18 14 13 10 8 6 6 5 3 3 2 1 3 6 5 6 5 4 6 5 7 7 6 3 7 7 10 7 6 7 5 5 2 4 7 4 5 12
58 56 53 47 46 40 33 29 23 18 15 11 10 9 7 5 1 4 3 2 3 4 4 5 3 3 2 9 5 10 9 6 8 4 4 4 7 4 6 1 7 11 5 5 8 4 5
57 52 46 49 47 36 29 22 20 19 15 12 10 8 5 6 3 2 4 2 1 1 3 4 2 2 3 9 3 5 5 6 1 2 3 4 5 15 17 16 3 2 9 15 10 8 7
52 55 50 42 36 29 26 22 22 19 16 14 10 6 5 4 4 3 3 2 3 4 1 3 3 3 4 5 4 5 2 6 8 5 4 3 12 8 12 9 10 10 5 3 1 4 7
53 44 40 38 32 30 26 23 20 18 17 14 7 3 6 6 4 3 3 3 6 3 3 2 1 3 5 5 3 2 5 10 9 5 4 3 5 8 9 6 4 3 1 4 3 3 4
41 38 37 35 33 30 25 21 17 15 17 12 5 3 8 6 2 2 3 4 2 2 1 3 2 2 2 5 4 5 7 5 5 2 5 1 4 7 14 23 16 13 6 4 3 4 6
37 35 34 34 32 27 23 19 17 16 15 8 4 3 3 2 3 0 1 2 3 5 4 4 3 5 3 3 3 4 4 5 4 1 3 2 3 6 12 2 8 4 2 2 6 2 2
36 35 33 31 28 25 22 19 15 16 11 5 3 3 2 1 1 4 3 2 3 4 2 4 3 2 2 2 4 5 10 8 1 6 10 6 6 10 10 10 7 6 12 11 4 2 5
35 33 31 27 25 22 19 17 14 13 9 5 2 3 4 2 1 5 4 2 2 2 3 4 3 3 3 4 8 6 4 5 5 6 4 4 7 12 19 21 15 14 13 13 16 7 5
33 31 28 26 22 20 18 15 13 11 7 3 3 3 3 3 4 5 3 2 4 2 3 2 3 6 6 5 8 11 10 2 6 2 2 4 5 9 19 20 11 5 12 9 18 15 10
30 28 27 26 22 19 16 13 12 9 4 3 2 2 4 5 4 4 3 5 5 6 3 5 5 3 10 12 11 14 13 12 13 6 4 5 4 5 13 14 11 11 11 14 22 20 7
28 26 24 24 21 17 14 14 13 10 8 6 4 3 3 2 3 4 5 5 3 5 6 3 3 3 6 2 11 12 12 14 13 15 11 8 8 2 2 2 6 6 8 18 24 17 13
26 23 22 21 19 16 16 16 14 12 13 16 8 3 2 3 1 5 6 4 5 5 1 4 4 6 4 3 3 5 2 2 4 8 6 11 4 4 2 6 10 3 10 9 7 10 12
23 24 23 22 18 18 16 15 14 13 12 17 15 7 4 4 3 3 4 3 2 3 5 3 4 2 3 1 2 3 3 3 4 4 7 6 7 2 2 4 4 5 18 13 6 5 11
24 23 22 21 20 19 15 14 12 12 14 13 11 8 6 3 1 3 3 2 2 2 1 3 7 6 3 3 2 3 3 7 5 5 6 4 3 7 5 4 4 13 17 5 5 1 8
23 22 21 18 18 17 14 13 12 11 10 10 10 11 5 3 3 2 3 3 3 2 2 4 3 4 4 5 3 3 3 3 1 4 4 6 4 4 3 4 3 18 5 5 5 7 8
20 20 18 18 18 16 14 14 13 12 11 9 6 7 6 4 3 3 11 11 9 8 3 3 2 2 2 3 3 2 2 3 4 3 7 5 5 2 5 3 4 7 10 9 7 8 7

GFSGBSN_925_spd_105.txt.gz
Wind_Speed
40 38 37 35 34 35 32 28 25 22 21 21 19 17 17 17 16 16 17 17 16 18 18 16 17 13 5 2 9 5 2 5 3 2 2 1 1 2 3 3 5 5 7 9 12 12 12
43 42 41 40 38 38 37 32 28 25 23 22 21 18 17 17 16 16 18 17 16 16 16 14 12 7 1 4 4 7 6 5 5 5 4 4 3 1 4 3 1 5 8 9 7 8 5
45 45 43 43 42 41 39 35 32 27 26 23 20 18 17 17 16 17 19 17 16 17 14 13 8 1 4 15 3 8 3 10 11 8 3 5 4 2 1 7 2 5 10 14 11 4 6
49 49 46 47 44 45 43 41 36 30 28 24 21 19 17 16 18 20 20 20 17 17 16 13 3 3 7 8 11 14 15 10 9 13 12 13 4 3 3 3 8 7 5 6 4 8 5
51 52 51 51 49 48 47 44 39 35 30 25 21 19 17 15 16 20 19 20 20 21 15 6 5 2 10 8 7 5 10 6 6 8 3 3 3 5 2 2 4 4 8 10 7 6 4
48 46 50 52 49 49 49 46 42 38 32 25 23 19 17 14 16 17 17 18 7 4 10 9 1 1 7 1 2 2 3 3 3 1 4 3 4 3 3 3 5 3 5 7 9 5 14
43 44 49 54 49 49 51 48 44 39 31 25 21 19 17 15 12 10 13 2 3 2 5 9 6 4 5 8 2 2 8 7 1 4 3 2 2 5 8 8 7 5 9 17 17 14 14
44 41 41 46 45 49 52 46 43 39 33 29 22 21 16 14 8 5 5 1 2 2 6 9 11 12 17 8 6 12 3 5 5 6 2 2 5 10 6 5 7 9 12 14 17 10 10
43 41 41 44 48 52 51 48 44 41 38 27 25 20 14 11 7 3 4 3 1 3 1 6 5 5 5 11 6 5 2 4 4 2 4 6 4 2 5 5 5 7 6 7 11 17 13
42 39 38 38 46 53 53 48 43 39 29 24 23 18 12 8 3 5 3 3 2 3 3 4 4 5 5 2 1 2 2 3 1 5 3 4 3 2 5 5 4 16 5 10 13 9 15
42 38 37 38 42 50 49 44 36 31 27 27 21 15 13 10 5 8 4 1 1 2 3 4 4 3 5 5 2 3 9 4 3 5 2 5 5 6 7 7 8 18 8 8 8 13 16
46 41 38 34 43 49 46 43 35 32 28 22 18 15 10 8 6 7 5 5 4 3 6 3 4 5 2 5 4 8 5 5 3 2 2 3 3 2 4 4 5 9 8 14 10 9 14
49 42 37 38 48 50 49 41 37 34 28 22 17 15 12 9 4 7 5 4 3 4 4 2 3 2 4 5 4 5 5 5 3 7 4 6 3 4 2 4 4 2 3 3 3 6 14
47 43 39 47 54 53 46 41 39 32 25 23 20 14 9 9 7 8 7 3 4 3 4 3 2 3 4 5 3 6 3 5 3 2 4 4 6 1 5 2 6 11 6 4 7 5 6
47 42 47 53 57 50 46 44 38 31 22 19 17 13 6 10 8 8 3 3 3 2 3 2 2 3 2 1 1 4 2 2 2 3 2 4 4 13 13 13 4 3 5 8 9 13 8
44 48 59 59 54 52 49 42 34 30 27 22 15 9 6 10 7 5 4 2 3 3 4 2 1 2 2 2 1 3 2 3 3 4 3 4 13 8 11 3 7 12 6 1 4 3 4
47 57 58 57 58 52 44 38 33 32 28 24 9 3 8 9 7 3 3 4 3 4 3 2 2 1 2 2 2 1 3 5 3 3 3 2 4 6 6 7 7 2 5 7 4 3 2
54 56 58 56 52 48 40 34 31 31 29 19 6 3 11 10 2 2 3 4 4 4 3 2 2 1 2 2 3 4 6 6 4 1 4 3 2 6 11 18 16 11 8 6 3 4 4
58 56 55 50 44 38 34 31 28 31 30 11 3 3 3 4 3 1 2 4 4 3 2 2 2 3 2 2 2 5 5 4 4 3 4 3 2 5 10 5 7 3 2 11 3 2 3
51 48 45 41 40 36 33 30 27 28 22 6 3 3 1 1 1 4 5 3 4 2 3 2 0 2 0 3 5 4 3 4 2 4 15 4 4 8 9 12 9 9 14 19 11 3 5
38 41 42 39 36 34 29 25 24 26 17 6 2 2 4 3 2 4 4 2 4 3 2 2 2 3 3 3 3 5 6 3 4 6 2 5 7 11 17 19 18 13 11 14 5 5 4
42 42 40 37 33 29 25 22 23 20 14 3 3 4 3 2 4 6 3 5 5 2 4 3 3 4 3 5 6 5 6 3 5 3 4 2 4 6 18 15 2 14 19 17 11 12 10
38 37 35 32 29 26 22 20 20 16 9 3 2 3 4 5 4 4 4 6 7 5 3 5 5 1 4 10 13 16 14 10 11 5 4 4 3 3 5 14 11 10 10 14 11 16 9
35 36 33 29 26 23 20 19 14 11 6 7 4 4 4 2 3 4 6 3 6 5 6 3 4 3 5 5 7 8 12 15 14 15 10 7 4 3 4 8 4 6 6 12 17 13 12
33 31 29 27 23 21 21 19 16 14 11 15 6 3 3 3 2 3 8 5 5 3 1 3 4 5 5 4 3 5 1 3 7 8 3 10 4 2 2 7 7 2 7 6 5 6 11
30 30 29 24 22 22 22 18 17 16 16 19 14 9 5 5 1 1 4 3 3 1 2 3 3 5 3 1 1 3 3 3 2 2 7 6 3 2 2 4 3 3 13 10 5 3 9
27 27 26 23 22 22 20 19 16 13 11 11 12 7 6 4 2 2 3 4 4 3 1 3 5 5 4 3 2 2 3 4 4 5 5 4 3 6 4 4 5 10 15 5 3 1 7
28 27 24 24 21 20 18 18 17 15 12 13 11 11 3 3 1 2 2 3 2 2 3 2 2 3 3 3 2 2 2 3 2 3 5 5 4 4 3 3 4 15 3 3 5 7 7
27 25 23 23 19 18 17 16 15 14 12 12 7 9 9 5 3 1 3 5 3 6 4 1 5 2 3 2 2 2 2 3 2 2 5 4 4 2 5 3 4 6 9 9 6 8 5

GFSGBSN_925_spd_111.txt.gz
Wind_Speed
34 32 34 33 35 33 32 31 28 29 26 28 23 21 17 17 16 15 13 14 15 16 14 14 15 17 7 3 7 1 2 5 6 6 3 3 3 3 3 3 0 4 4 4 5 11 8
38 35 37 36 35 35 34 33 33 32 30 30 27 23 21 17 17 17 14 13 16 16 13 13 12 12 4 5 4 4 4 6 5 5 5 5 4 4 2 2 3 2 4 9 7 10 10
34 40 40 40 38 38 37 37 34 35 33 32 30 26 23 18 16 17 16 14 16 15 15 11 8 6 3 14 5 5 6 6 6 6 3 3 4 2 3 2 1 2 6 8 9 0 2
34 37 33 45 40 36 40 39 36 37 35 35 32 28 23 19 16 16 16 16 16 15 16 14 7 2 8 7 8 9 11 9 7 9 7 3 5 3 2 1 3 3 1 4 1 7 3
34 32 34 34 39 42 43 41 38 38 36 35 34 30 25 19 15 14 15 18 15 10 9 4 6 4 9 7 6 4 13 6 5 5 5 5 3 1 2 1 3 1 4 3 5 5 5
33 34 33 35 36 40 42 37 36 38 38 36 35 32 27 19 13 10 14 14 4 2 7 8 3 3 6 2 2 2 7 7 3 4 3 2 3 2 2 3 6 4 5 3 6 4 14
28 31 34 34 32 32 35 39 39 32 33 36 35 30 25 18 12 7 12 1 1 1 4 7 4 4 3 5 2 3 4 2 3 3 6 1 3 8 11 11 3 3 5 10 9 12 10
27 28 30 33 33 32 33 32 36 37 31 35 37 29 25 19 9 5 7 2 2 2 7 12 12 8 5 2 3 2 1 2 4 7 5 2 9 10 4 4 5 5 7 8 8 4 9
25 27 28 31 34 33 33 34 32 32 34 35 38 31 26 17 11 5 5 4 3 4 3 6 5 5 5 10 5 5 7 3 5 7 9 8 2 4 6 3 4 4 5 6 11 8 11
29 27 29 30 31 33 34 33 31 29 35 38 38 33 27 19 9 8 4 3 3 2 2 5 4 5 5 5 3 2 1 4 2 9 7 5 1 4 5 4 5 7 9 10 7 7 7
33 32 29 30 32 32 33 33 31 29 32 41 38 36 27 19 16 7 13 9 7 4 3 3 2 2 3 3 4 5 4 1 4 4 4 2 6 3 4 4 4 5 5 8 8 9 10
36 35 35 32 28 33 32 33 29 28 33 42 43 34 28 20 12 11 18 15 6 3 8 2 2 0 4 5 2 4 4 6 2 2 3 0 2 3 3 2 2 3 5 7 8 5 7
37 37 36 35 33 30 33 33 30 28 40 42 39 33 30 20 9 19 14 7 3 5 2 2 2 2 5 2 3 3 3 3 2 2 2 2 3 1 1 3 3 3 4 3 4 5 6
41 38 38 37 35 34 32 34 32 30 44 43 38 34 21 13 21 25 13 2 7 5 4 2 4 4 4 1 2 3 2 3 3 3 2 3 3 5 1 2 1 3 3 4 5 3 4
42 40 39 38 38 35 27 34 34 44 48 43 37 23 19 15 23 20 3 5 6 4 4 9 3 3 2 1 4 2 1 4 5 5 4 4 5 3 6 2 4 3 7 6 12 13 9
45 43 42 41 41 36 30 36 47 54 52 49 23 12 11 19 17 11 1 8 4 2 3 2 5 3 6 5 4 3 4 4 4 4 3 1 4 7 6 3 6 13 1 3 4 3 5
49 47 45 44 42 38 34 46 59 60 55 39 17 4 15 23 17 4 5 5 3 3 2 3 4 3 3 4 5 5 3 1 2 4 2 3 4 2 4 6 4 3 4 6 4 6 4
51 48 48 48 44 41 41 58 65 63 56 30 7 4 27 28 5 3 5 6 5 5 3 2 3 4 5 7 6 5 5 2 3 4 3 2 2 4 8 8 7 9 4 3 2 2 3
49 50 52 50 47 48 63 63 67 64 53 26 4 4 12 7 5 6 3 3 2 4 4 4 3 3 2 5 3 5 2 2 4 4 4 5 2 4 2 4 2 3 4 4 6 7 12
56 56 53 48 51 63 72 66 69 64 45 24 5 5 2 3 2 12 6 5 5 3 3 3 4 4 4 3 1 2 4 1 1 5 7 3 4 5 6 6 5 5 7 11 8 6 8
63 54 50 55 63 72 69 68 66 57 43 20 3 5 7 12 6 5 4 6 7 5 2 3 2 4 5 4 4 4 3 2 2 3 4 6 6 9 14 16 12 8 4 3 7 16 7
47 52 55 67 71 70 70 69 64 49 38 12 4 5 4 12 7 7 6 7 9 5 6 4 4 9 6 5 6 7 6 4 4 3 6 5 3 1 5 11 6 7 7 2 8 7 10
56 63 67 67 66 62 65 63 51 42 27 6 2 5 7 11 7 7 7 8 7 8 1 6 8 6 7 11 9 8 7 6 5 4 5 3 2 1 4 14 10 4 5 4 3 11 2
65 67 64 62 60 59 60 55 45 35 18 7 5 5 4 6 9 9 10 5 12 5 8 5 6 4 2 1 1 1 5 9 10 13 8 3 5 2 2 5 2 4 8 9 11 8 8
56 60 58 59 57 58 54 47 38 26 9 11 8 5 3 4 6 7 13 8 9 4 3 5 3 3 3 1 2 2 2 4 8 9 10 11 5 3 3 2 3 4 1 1 3 4 5
47 49 50 50 49 46 42 37 32 23 12 16 11 8 5 8 2 9 8 9 5 3 3 2 1 2 2 2 2 3 2 2 3 4 5 2 10 5 3 3 5 3 2 2 3 1 3
43 43 43 41 39 38 36 32 25 19 17 13 10 10 9 4 1 2 4 5 4 4 3 3 3 2 1 2 2 1 2 1 2 2 1 1 2 6 3 2 2 3 6 2 3 3 5
38 39 40 39 40 37 32 28 24 21 17 16 11 9 7 3 2 3 3 5 3 2 4 4 3 1 1 2 1 1 1 1 1 2 1 2 1 1 1 2 4 7 2 3 7 9 10
35 36 37 36 35 32 28 24 21 18 18 21 9 19 18 6 4 7 12 8 3 6 5 2 3 2 3 3 2 2 1 1 2 2 2 1 2 2 3 2 4 5 9 6 7 12 9

GFSGBSN_925_spd_114.txt.gz
Wind_Speed
33 35 31 30 30 30 30 29 28 26 26 22 21 20 18 17 14 13 12 12 14 16 14 14 15 15 8 7 7 1 2 3 3 4 7 7 8 6 9 5 7 13 11 9 11 12 13
29 28 32 35 34 31 31 31 29 28 28 26 25 24 22 17 15 14 12 12 13 17 14 13 13 13 6 11 1 3 3 5 7 7 6 7 6 5 5 6 9 2 7 10 11 15 15
27 28 30 31 37 33 34 33 33 30 29 28 28 26 25 19 17 14 12 11 14 16 15 13 11 8 9 13 3 3 4 6 7 8 6 4 4 6 1 5 4 7 12 13 13 11 8
26 30 28 30 32 31 35 39 35 30 32 30 30 29 26 22 18 14 11 11 13 15 14 13 9 4 8 5 5 7 9 9 9 8 7 3 4 6 7 1 5 9 7 10 6 4 4
24 26 30 29 28 29 31 35 39 29 35 32 32 31 29 23 19 13 10 10 11 10 8 4 3 5 9 4 5 2 10 9 11 6 6 2 7 6 5 10 10 7 13 8 8 3 6
24 25 24 27 28 28 28 30 32 32 30 29 30 30 29 25 18 14 8 9 4 1 4 5 2 5 7 2 1 2 5 9 9 6 6 8 6 10 8 10 12 12 9 10 11 5 13
25 24 23 22 26 30 28 27 31 31 31 29 28 27 30 24 19 12 7 2 4 5 5 7 2 4 4 3 2 6 7 9 8 10 13 10 10 14 14 11 12 11 13 16 14 12 15
20 20 20 21 23 24 27 25 24 26 27 23 20 28 30 24 19 12 7 3 1 3 9 14 18 17 15 3 4 9 7 9 10 14 12 8 16 14 8 10 12 13 15 16 12 6 12
22 19 20 18 21 21 22 26 25 25 24 25 25 29 33 26 18 11 8 7 3 5 5 6 11 9 8 13 10 11 9 11 10 15 15 18 9 1 9 11 12 13 14 13 14 15 17
26 25 23 22 21 22 20 22 25 25 25 23 28 34 34 26 13 13 5 11 6 6 2 5 5 4 6 6 6 3 5 10 10 15 17 13 13 11 12 13 10 15 9 10 11 11 12
31 28 29 26 24 22 22 22 23 26 24 25 30 40 36 31 16 10 14 14 10 3 4 5 5 8 7 8 10 4 1 7 10 8 7 4 7 9 12 12 7 11 5 10 12 15 16
31 30 29 31 28 26 24 22 23 24 24 24 38 44 38 19 13 17 25 18 4 2 8 6 6 9 10 5 4 3 4 1 1 5 7 9 1 6 9 4 8 8 12 16 14 12 12
34 33 32 32 33 30 26 24 22 23 27 27 42 46 37 27 12 30 28 10 5 8 5 7 7 9 13 7 6 5 8 8 7 7 12 9 13 4 6 9 7 10 8 6 8 8 10
36 37 35 33 33 34 30 26 22 24 28 40 48 40 23 17 35 35 16 4 9 3 6 3 5 8 10 7 4 4 4 8 5 8 8 9 8 10 6 10 5 8 7 7 10 9 10
39 38 36 35 33 35 32 28 22 24 38 50 46 23 16 28 34 30 9 4 5 9 9 10 9 10 7 5 3 6 6 8 4 8 7 4 6 4 4 4 3 5 9 11 16 16 13
40 39 38 36 34 33 32 29 23 26 53 54 26 12 9 31 30 20 4 7 8 4 5 12 15 10 10 10 9 7 8 6 6 6 2 1 5 7 5 6 12 13 2 4 8 5 8
44 42 40 39 36 35 35 29 25 49 62 41 19 6 14 28 24 5 5 8 7 6 6 8 9 6 7 7 9 7 3 5 4 8 6 4 4 3 3 8 10 7 11 10 7 8 4
46 45 43 43 39 37 38 32 31 55 54 30 7 4 25 28 6 4 9 9 7 12 7 3 3 3 8 9 7 7 6 3 7 9 5 5 4 7 9 4 9 12 10 12 9 6 7
49 49 47 46 43 41 41 37 46 63 55 18 4 4 15 17 6 11 9 10 10 12 12 8 7 4 3 8 6 8 3 2 7 9 6 7 6 4 6 4 7 4 9 10 7 8 14
55 49 49 49 45 45 44 42 63 68 52 19 5 6 3 3 6 16 15 18 13 7 9 5 5 5 8 7 6 5 8 6 5 6 3 4 6 9 8 7 3 5 6 9 10 7 12
60 55 54 49 49 50 48 44 71 70 52 21 5 6 12 12 13 15 18 18 16 10 5 8 4 9 10 7 9 7 9 5 5 7 6 3 7 9 14 16 13 12 12 11 7 9 9
39 51 50 50 53 52 49 52 75 67 51 8 6 6 13 14 19 17 20 17 20 8 9 9 9 13 11 8 9 9 10 7 5 9 10 7 7 2 10 14 15 5 4 8 4 3 5
59 57 52 55 54 51 52 69 73 60 44 5 5 14 11 16 20 17 18 17 15 11 5 6 13 9 11 10 5 2 6 3 3 6 10 5 6 3 2 1 9 6 2 3 4 5 1
75 63 60 58 53 49 63 73 67 56 31 19 19 16 6 13 17 18 23 13 16 18 7 9 12 9 5 7 4 2 6 9 11 12 9 3 6 3 2 7 5 5 5 8 8 6 8
39 55 56 54 45 70 72 61 48 37 24 29 16 8 5 9 13 16 18 17 15 12 8 7 8 4 8 4 3 4 4 4 9 14 15 10 6 3 4 9 4 8 6 4 1 4 1
47 50 54 69 71 67 60 51 42 35 39 27 13 12 7 10 13 22 20 21 15 9 8 5 5 6 5 3 4 5 5 1 6 6 10 9 12 6 6 4 4 6 5 2 1 4 3
62 67 68 66 65 61 53 43 39 39 32 24 10 18 12 6 3 20 12 15 8 10 6 7 8 6 4 5 5 5 3 1 4 5 5 4 5 13 10 4 4 4 1 4 4 4 5
56 58 61 59 55 49 42 33 31 28 24 17 11 10 7 4 6 4 5 8 7 9 8 9 6 4 5 6 4 3 2 2 2 1 1 3 3 4 3 3 4 4 5 4 7 9 9
48 49 50 49 45 36 30 24 26 22 22 26 10 17 21 7 6 11 15 11 6 6 7 7 1 6 3 3 2 3 3 2 3 3 2 3 2 1 4 4 4 6 10 11 9 13 12

GFSGBSN_925_spd_117.txt.gz
Wind_Speed
25 22 32 32 32 32 30 30 27 26 24 23 20 19 19 17 15 12 12 12 13 13 12 16 16 15 10 7 9 3 1 4 4 6 9 8 9 11 15 12 11 14 17 18 14 15 15
27 26 27 26 28 24 33 29 28 28 26 25 24 23 22 20 17 14 13 12 13 13 13 14 15 12 8 9 2 2 4 6 10 9 11 9 10 10 12 16 15 16 13 16 15 16 16
19 25 24 26 28 30 30 35 31 28 27 25 25 25 24 23 20 17 14 12 13 13 13 13 15 8 9 13 4 6 6 9 9 10 10 7 7 9 6 12 8 11 18 18 18 18 16
19 18 19 25 26 26 27 28 31 27 28 28 25 28 27 24 22 19 15 13 13 14 13 11 12 8 7 5 6 10 11 11 11 11 10 4 7 11 12 12 12 18 19 18 16 4 9
18 19 19 20 21 27 25 25 28 30 27 30 26 28 27 24 21 19 15 11 12 13 9 7 5 10 9 2 5 3 9 13 11 12 11 7 11 14 12 11 15 16 17 19 14 14 7
19 19 20 20 18 20 25 24 25 24 25 27 24 23 24 23 20 19 13 9 10 7 1 4 9 7 7 2 1 4 6 10 9 11 11 13 9 13 13 12 15 18 17 16 12 11 13
18 18 19 19 18 18 18 24 23 23 23 24 23 23 24 22 19 19 10 2 6 6 11 9 7 12 8 3 4 7 7 10 13 12 16 15 14 15 17 17 17 16 18 21 21 17 20
18 19 17 16 14 17 15 18 22 22 22 20 22 22 23 22 22 17 9 3 7 5 10 17 19 18 20 6 8 10 9 10 14 16 17 15 17 17 18 14 13 16 20 22 22 20 12
21 18 19 16 16 14 14 14 15 19 19 16 18 18 23 25 20 15 9 7 3 2 8 13 18 17 14 16 13 15 15 15 16 16 18 20 16 7 7 15 15 18 19 20 21 19 21
25 25 22 20 18 17 15 13 12 16 16 18 19 24 29 28 14 9 5 11 5 3 5 13 7 5 8 9 8 22 12 15 15 18 16 18 17 16 19 16 15 20 14 17 14 15 17
26 25 27 25 21 20 17 15 14 15 16 17 21 30 30 26 14 10 8 14 9 3 6 6 8 10 10 12 7 8 8 14 20 18 11 17 11 11 15 17 14 16 12 10 16 18 20
27 28 26 25 26 21 20 17 15 15 16 17 25 30 32 17 13 12 21 18 7 3 11 7 8 9 12 13 7 7 10 9 5 13 14 16 2 8 12 11 8 12 11 16 18 17 17
32 29 29 27 26 27 22 21 18 15 14 16 33 36 37 25 9 27 26 11 3 7 3 8 7 11 14 8 10 10 11 13 9 10 14 18 17 13 4 14 12 11 13 11 13 12 16
31 33 30 29 27 26 25 25 21 17 13 18 34 36 27 24 26 33 25 3 8 11 22 2 3 10 15 9 10 10 9 13 10 10 9 10 12 15 11 14 15 15 14 12 19 15 17
35 34 34 34 30 28 27 26 24 18 13 22 40 18 18 22 41 37 7 5 8 16 15 8 9 12 13 8 5 11 15 14 11 12 8 8 12 3 3 8 6 7 14 12 17 18 16
42 39 35 34 32 30 28 28 25 17 12 47 24 10 5 38 41 18 3 8 13 9 6 14 17 15 15 16 11 9 10 5 8 5 3 4 8 11 8 5 13 14 10 6 7 6 12
43 41 39 36 34 32 31 29 27 19 27 41 15 4 10 29 25 3 5 12 14 10 11 12 16 14 14 11 14 14 6 6 5 9 7 7 7 6 4 10 15 12 12 13 13 11 9
46 46 44 41 39 35 33 32 30 21 47 30 7 4 21 34 6 3 12 11 9 12 12 8 8 12 10 10 11 12 10 6 8 5 6 9 5 11 16 11 9 14 16 15 11 13 7
48 47 45 43 40 39 36 36 34 30 57 18 4 4 12 18 7 14 13 17 11 14 17 12 10 9 7 10 8 10 4 5 5 9 6 6 7 7 8 7 10 9 14 14 9 9 15
50 48 46 45 44 43 41 42 40 40 55 24 5 5 2 3 4 14 20 16 17 16 14 12 10 8 10 8 9 5 9 6 8 11 6 2 8 9 11 10 5 5 7 9 12 11 14
51 49 47 46 45 46 45 48 45 48 55 23 4 6 11 11 12 13 17 15 21 12 14 14 10 16 13 11 13 11 9 8 7 9 6 8 10 10 15 16 15 13 12 12 11 15 10
53 54 52 50 48 49 50 52 49 55 56 17 6 6 12 10 20 19 19 16 23 19 17 20 12 14 12 14 11 7 13 11 8 12 13 12 7 7 11 16 15 15 15 13 9 8 5
59 57 56 54 51 52 52 56 52 58 57 7 11 12 13 15 22 17 19 20 23 17 13 15 14 12 13 12 6 2 6 11 6 9 13 10 5 6 7 3 4 7 9 8 3 3 5
61 61 59 58 55 58 56 57 56 68 69 14 18 12 6 7 17 22 23 22 20 18 8 9 13 14 4 8 6 2 5 8 8 9 9 6 7 6 5 4 8 4 4 4 5 4 7
53 50 56 58 56 59 60 57 58 73 69 26 20 15 4 6 19 22 21 20 16 12 8 10 9 6 10 10 6 6 5 4 12 16 14 9 5 4 4 9 6 8 7 7 7 6 6
66 62 56 58 51 56 54 56 57 68 64 30 27 8 4 9 16 23 22 22 14 14 11 10 7 9 8 6 4 6 7 8 7 6 16 12 12 9 5 7 3 9 11 5 6 6 10
35 81 60 61 52 49 49 53 58 58 46 31 21 12 6 5 7 17 19 20 18 15 10 15 11 8 9 6 6 8 7 4 6 9 8 4 4 14 12 8 4 6 6 5 5 5 9
51 67 56 48 48 48 49 52 55 51 41 36 18 17 9 4 12 16 19 20 15 11 10 14 8 7 8 7 6 5 3 2 3 2 5 8 5 7 10 6 5 2 7 4 6 8 10
64 59 54 53 57 60 60 57 52 50 37 36 15 16 20 8 12 19 19 9 1 7 8 14 2 17 6 8 4 2 2 2 3 3 4 4 3 4 5 4 4 3 7 10 9 12 12

GFSGBSN_925_spd_120.txt.gz
Wind_Speed
26 25 23 19 29 31 29 29 27 26 24 24 23 22 20 19 16 15 13 12 12 12 14 17 18 19 12 5 12 2 1 4 5 5 8 9 9 12 14 14 16 14 16 16 16 17 11
23 26 27 24 24 22 27 27 27 26 26 27 27 26 25 21 19 16 14 13 12 13 14 16 16 16 8 6 1 2 3 7 8 8 8 11 9 12 12 16 15 18 20 17 17 18 19
19 19 20 24 25 26 27 21 25 24 26 28 26 29 27 22 22 19 16 14 13 13 13 15 14 8 8 14 5 7 7 10 9 9 10 10 9 8 10 14 10 12 17 18 18 20 21
12 16 17 16 18 27 26 26 25 25 24 27 20 26 25 22 22 21 18 15 12 13 14 12 11 6 8 10 6 11 12 14 12 10 12 12 6 11 13 14 18 19 19 19 19 19 3
13 15 16 15 16 19 21 25 23 24 24 24 23 21 24 20 22 20 18 14 12 13 12 9 5 7 9 2 7 4 11 13 12 9 10 10 6 12 14 14 14 15 17 20 19 9 6
14 15 16 17 17 18 16 17 23 21 21 21 23 19 16 21 18 17 16 10 10 14 7 5 12 7 9 3 0 5 7 9 11 8 9 10 7 13 12 11 14 17 18 20 19 11 9
14 14 15 16 16 15 14 15 16 19 19 17 17 17 15 20 16 15 11 3 4 3 9 9 4 11 16 15 6 9 8 7 12 10 13 13 11 14 17 17 20 20 21 21 19 19 19
18 16 14 14 13 12 11 12 13 15 17 17 17 17 18 18 19 15 10 3 2 2 9 17 22 22 26 20 12 12 12 8 12 15 15 15 17 19 17 17 19 21 19 20 21 21 19
22 22 18 14 13 13 11 10 10 11 14 15 14 14 17 18 20 17 12 8 6 6 7 14 22 25 16 20 22 19 17 13 15 16 16 19 15 16 11 12 15 20 18 19 22 21 20
23 23 22 21 17 14 13 12 10 10 11 12 14 12 22 24 15 9 6 13 7 1 6 15 12 3 11 6 10 19 23 15 14 18 18 17 17 18 20 19 17 20 17 21 22 17 15
21 21 25 21 22 20 15 13 12 11 10 11 11 20 21 25 13 10 6 12 9 3 5 2 6 7 8 12 2 4 19 10 17 18 15 15 12 14 16 15 16 21 15 14 16 15 16
25 24 22 23 22 22 19 16 14 12 11 11 14 19 20 19 10 8 18 16 4 4 9 7 9 9 11 15 9 6 6 7 9 16 19 22 18 14 12 12 13 10 11 15 15 14 14
26 26 24 25 22 23 22 20 16 14 11 10 18 23 30 25 10 23 25 9 3 6 4 10 8 12 14 12 15 9 11 12 9 7 12 16 19 17 15 12 13 13 9 8 8 10 14
27 27 28 26 28 22 21 23 21 17 13 10 19 28 32 24 22 31 13 2 6 14 22 2 3 11 14 13 12 11 12 13 16 15 12 10 11 8 5 13 11 15 12 8 16 14 17
31 30 29 26 25 25 24 23 22 21 15 11 16 26 10 18 33 37 5 3 10 15 17 16 9 11 14 16 7 12 13 15 14 12 13 8 13 5 5 2 4 7 11 14 17 14 13
34 33 32 29 27 26 27 26 23 22 17 13 24 11 3 24 33 23 5 7 16 20 7 14 18 12 13 16 12 8 11 7 15 4 4 3 12 12 16 14 9 11 11 10 5 8 13
37 36 35 33 32 31 29 28 25 23 18 24 14 5 5 27 16 5 6 13 16 19 15 12 14 16 14 15 15 14 9 4 3 4 4 5 9 12 14 12 14 11 12 11 11 10 10
40 39 37 36 34 32 29 27 28 25 22 31 6 3 18 34 4 1 10 17 17 17 21 13 10 13 16 17 15 12 13 7 9 3 6 5 4 10 17 15 15 16 15 15 9 10 11
44 43 42 40 38 37 33 31 32 30 39 17 4 3 7 19 7 6 11 21 21 17 15 13 15 12 14 11 10 12 12 9 6 4 3 3 4 6 6 11 13 14 13 14 10 8 16
49 48 46 45 43 40 38 37 37 35 42 22 4 4 1 2 2 12 14 19 24 16 18 15 13 12 10 10 8 5 11 6 5 5 5 3 5 7 10 6 9 6 11 11 12 9 12
45 49 48 47 45 43 41 41 42 39 45 25 4 6 10 9 13 13 8 10 19 20 17 14 15 15 13 9 14 12 11 8 4 5 4 4 7 7 11 17 17 16 15 13 9 12 9
46 46 48 47 49 46 44 43 44 41 46 19 5 6 12 6 20 18 10 14 22 21 15 18 16 14 13 15 13 7 12 10 6 9 11 9 7 4 10 17 17 17 16 17 12 8 10
53 50 48 47 49 49 49 47 48 45 49 8 14 21 11 11 18 14 19 14 19 16 15 17 16 10 16 11 6 9 2 7 8 12 11 9 5 2 6 10 4 10 8 11 8 7 8
65 59 55 52 52 51 51 48 51 47 52 20 23 12 6 10 15 20 22 22 20 17 10 14 13 12 2 4 8 6 3 4 9 7 10 4 4 5 7 6 9 2 2 3 6 3 6
66 66 62 60 56 54 52 52 52 48 52 41 19 17 7 11 14 20 23 22 22 11 12 8 8 11 9 7 4 4 4 5 13 13 11 7 6 4 4 8 1 5 5 7 7 6 9
53 61 63 64 62 57 55 54 54 50 52 51 22 28 7 8 14 20 22 22 14 15 13 11 11 8 9 5 4 8 7 8 7 5 17 12 9 6 6 6 3 5 9 8 6 5 12
47 56 60 63 63 59 56 56 56 52 53 51 13 27 13 5 7 16 18 16 16 15 11 12 11 6 7 6 6 6 10 5 7 10 9 10 7 14 10 7 1 7 7 4 4 4 13
56 54 57 58 62 60 57 55 53 50 53 57 13 25 7 3 2 11 17 11 13 10 10 12 7 7 7 7 7 6 6 3 3 5 12 12 8 7 8 6 9 4 7 4 4 8 9
69 55 52 58 58 59 56 52 49 49 50 45 16 18 17 4 4 8 15 17 8 16 8 15 6 14 5 7 6 3 4 3 2 3 8 5 1 2 2 3 4 2 4 7 8 10 13

GFSGBSN_925_spd_123.txt.gz
Wind_Speed
23 23 20 19 17 15 16 26 27 25 23 22 21 20 19 18 18 16 15 15 15 16 17 18 21 21 10 5 6 3 3 4 3 6 12 8 5 5 5 4 8 6 5 9 10 10 8
20 24 24 26 28 24 25 17 20 22 25 26 23 22 21 20 20 18 18 17 15 16 16 17 19 18 4 4 2 3 4 6 5 8 18 11 5 6 6 5 4 5 10 10 10 9 7
14 16 16 17 20 22 24 23 25 17 18 16 18 19 20 23 21 19 20 19 16 15 16 15 16 11 4 12 5 11 7 8 12 13 8 18 15 1 6 7 6 7 10 10 10 13 10
11 11 12 14 17 16 18 20 27 26 24 20 23 18 15 19 22 20 18 21 17 13 14 14 10 3 7 11 12 16 10 14 12 12 15 15 14 5 2 6 7 7 6 4 12 14 18
11 11 11 12 13 13 15 16 20 25 23 21 24 20 19 18 19 18 18 19 14 13 12 11 4 3 9 8 5 10 9 12 15 17 11 12 6 2 5 5 5 6 5 9 11 11 4
13 11 10 12 12 14 16 15 16 17 21 19 19 18 19 16 17 14 15 14 10 12 6 4 7 3 8 5 11 5 8 13 5 4 4 5 2 3 2 3 4 5 7 9 9 5 6
14 12 11 10 11 11 13 12 13 15 15 17 16 17 16 16 15 14 13 4 3 2 6 10 7 7 5 9 3 7 8 11 4 4 6 5 3 7 11 12 13 13 11 10 8 8 13
18 15 15 11 10 10 9 9 11 12 12 15 14 14 14 15 15 17 14 3 4 4 6 17 21 20 27 20 11 9 9 6 7 7 6 6 10 15 14 14 13 8 8 10 11 8 8
20 19 17 17 14 10 9 8 7 8 10 12 14 13 13 15 18 19 15 10 4 2 3 9 20 14 14 21 15 16 8 7 7 6 8 11 10 10 13 12 15 7 6 8 14 6 5
22 20 19 19 17 15 12 10 8 7 8 8 11 14 13 19 18 13 4 12 6 1 3 7 8 6 14 7 6 8 18 9 6 11 11 11 13 15 10 9 9 5 6 11 10 7 5
25 22 20 20 20 19 18 13 10 8 7 7 10 14 15 21 13 10 8 11 7 3 3 4 4 3 5 10 3 2 10 5 10 10 7 8 5 5 6 5 5 4 6 5 5 7 6
24 23 23 21 18 17 18 16 12 10 8 6 8 13 16 16 11 8 12 19 9 2 8 4 4 5 5 5 3 3 3 4 3 3 9 13 9 8 8 3 2 6 4 7 6 1 6
25 25 25 24 22 20 16 17 15 11 8 5 7 16 23 21 9 19 23 11 3 5 6 6 6 8 10 8 7 5 5 4 4 3 5 8 14 13 11 5 3 2 3 3 3 1 8
29 26 23 24 23 21 20 16 16 15 11 7 8 21 27 21 16 29 16 3 6 9 14 8 6 12 10 6 9 10 7 6 10 9 4 3 7 5 6 7 8 6 5 3 4 3 9
28 27 28 24 23 22 22 23 17 14 13 9 5 23 9 18 25 34 5 5 9 9 6 12 13 6 8 11 6 8 10 7 7 14 8 4 5 4 7 4 4 1 2 1 2 9 9
29 27 26 26 24 23 22 21 22 20 15 10 8 10 5 21 28 11 6 12 9 11 15 10 5 9 6 10 8 6 6 6 14 3 5 1 3 3 2 1 3 6 3 3 3 4 7
30 29 28 27 25 25 22 20 19 20 17 13 11 2 5 20 19 2 4 9 9 14 13 9 10 9 10 7 11 8 8 1 3 4 6 3 4 3 5 1 4 3 2 4 6 4 3
32 31 31 30 28 27 25 25 25 23 20 18 8 5 13 26 3 1 8 6 10 14 13 11 5 3 5 5 4 3 10 2 6 7 6 2 2 2 5 9 13 6 6 6 4 6 5
33 34 34 34 32 32 31 28 27 28 27 14 5 2 11 7 8 5 5 11 9 7 14 2 8 5 3 4 3 4 7 5 7 5 5 2 1 2 7 5 4 3 3 6 3 2 9
36 35 35 36 36 35 34 33 31 29 29 21 4 4 1 1 0 9 9 15 15 10 18 7 8 8 3 5 4 2 6 1 4 6 7 7 2 6 6 3 5 6 10 6 3 3 3
38 39 37 40 38 38 38 36 36 35 33 24 4 4 7 6 11 10 11 8 18 13 17 12 14 8 6 5 1 4 6 5 4 7 3 4 3 1 4 8 11 12 12 12 7 9 4
42 42 40 41 40 43 42 41 39 40 36 28 7 4 4 5 10 14 7 11 15 18 8 12 8 8 8 6 6 3 6 4 5 5 4 1 2 3 5 11 14 17 14 13 10 9 2
46 45 43 43 41 40 43 44 45 45 39 16 13 14 7 8 11 13 18 18 13 8 7 10 8 7 6 6 4 6 5 3 9 8 6 5 4 2 5 7 6 8 13 12 8 6 4
51 50 47 45 42 42 45 47 48 50 47 30 22 11 4 5 13 19 18 18 17 15 9 7 7 8 4 10 9 7 7 2 7 8 9 5 5 2 3 5 4 5 3 4 4 5 10
56 54 52 50 47 46 46 48 50 52 47 36 19 12 4 5 12 14 17 21 17 11 3 1 3 6 9 7 4 4 2 2 4 6 8 6 4 2 2 3 3 1 2 3 3 5 9
63 62 59 54 51 50 48 50 52 51 48 40 41 18 3 3 5 15 18 11 12 10 5 3 1 7 7 3 3 6 5 5 5 4 11 7 5 4 2 3 3 3 4 5 1 4 12
60 64 64 63 60 56 53 52 53 50 49 42 23 37 4 3 4 7 12 12 8 6 6 5 4 3 5 3 4 3 4 7 5 7 8 6 5 12 6 4 4 5 6 7 1 4 13
60 56 53 55 64 66 57 54 53 49 49 44 31 26 9 3 1 6 7 7 7 8 9 9 5 3 2 5 4 4 3 4 4 5 7 8 6 4 4 4 7 3 4 4 3 4 7
58 53 53 54 61 67 61 57 53 48 47 42 18 29 13 2 1 4 2 19 21 8 8 9 5 7 4 4 3 3 1 1 3 2 6 4 5 4 4 2 1 2 3 1 4 5 3

GFSGBSN_925_spd_126.txt.gz
Wind_Speed
19 19 18 16 14 14 13 15 17 19 21 22 21 20 18 16 17 15 13 13 14 15 17 19 21 21 11 5 6 3 5 6 7 6 6 4 4 3 3 5 7 5 3 7 7 6 6
17 23 26 25 25 23 21 19 16 13 17 20 24 23 21 19 18 18 16 16 16 16 16 17 18 16 3 4 3 4 5 7 8 6 9 8 5 8 5 4 1 5 8 8 8 11 4
14 16 17 21 21 21 19 20 23 26 21 15 20 22 18 16 16 18 17 18 17 15 15 14 14 10 2 11 5 6 6 9 9 11 4 11 10 5 5 7 2 7 6 8 13 5 7
12 13 15 13 11 15 18 17 19 19 19 22 15 18 16 15 16 14 16 19 16 13 14 12 11 4 7 9 11 14 12 15 13 13 13 13 10 3 2 4 7 6 3 1 6 1 7
13 13 12 12 11 13 13 14 17 17 19 20 19 19 20 15 15 14 15 16 13 13 13 12 5 4 8 9 8 6 10 7 5 10 13 14 4 2 4 2 4 3 3 4 7 4 2
14 15 14 12 11 13 12 14 15 15 16 22 20 19 21 17 14 11 15 12 10 11 5 3 5 3 7 5 6 6 9 9 6 3 1 2 3 1 2 3 4 4 3 3 5 6 3
16 17 14 13 11 11 11 12 13 12 12 15 18 15 15 14 13 13 13 4 3 2 4 9 5 5 1 4 9 7 9 8 4 2 4 2 3 8 10 9 7 6 9 9 6 6 6
19 17 16 16 13 11 10 9 7 10 11 10 12 13 13 12 13 12 16 4 5 1 7 18 18 15 24 13 6 5 8 5 6 6 4 2 6 13 9 10 8 10 13 11 5 4 5
21 19 18 15 16 13 10 8 8 8 8 9 12 13 11 12 11 17 15 12 4 1 3 6 13 9 11 16 12 17 9 6 6 7 6 8 8 5 9 11 12 12 10 5 3 4 4
21 20 19 18 17 18 15 9 7 8 6 6 9 12 14 15 13 14 7 18 4 2 3 6 6 7 9 8 5 15 17 10 6 13 4 7 11 16 15 10 7 4 3 0 3 5 3
24 26 23 20 19 17 18 14 9 7 5 4 8 13 18 21 12 11 13 14 10 2 3 4 5 9 6 8 4 2 8 5 14 6 6 8 3 1 3 5 2 3 1 3 2 2 4
25 25 24 25 20 19 19 18 13 8 6 5 8 12 21 20 11 13 15 19 8 4 9 4 3 5 6 4 3 3 4 4 4 4 4 9 2 4 6 4 4 4 4 6 3 3 4
30 28 26 25 24 20 16 14 13 11 8 5 7 13 22 19 6 18 20 11 4 6 4 6 4 6 4 5 4 4 5 4 5 4 3 4 6 9 5 5 4 3 5 3 4 1 6
32 31 30 27 26 25 21 18 13 13 11 6 6 15 25 17 12 23 20 3 7 8 8 4 5 5 7 6 6 8 6 4 5 3 2 3 5 2 2 3 7 5 8 5 6 3 4
33 32 30 31 28 24 23 20 18 13 13 10 7 13 10 20 16 25 7 5 8 6 5 4 2 4 5 6 6 5 9 8 8 9 8 5 4 1 4 2 4 1 1 4 1 0 3
31 34 33 29 28 27 24 21 21 17 12 12 8 9 7 15 18 15 5 10 6 4 5 4 2 7 10 7 7 9 9 6 6 9 7 4 2 3 1 3 3 5 4 1 2 4 8
32 33 34 33 30 28 26 23 21 18 15 12 8 3 9 17 20 3 6 6 10 7 5 1 1 4 3 5 7 6 9 2 6 4 7 4 4 3 2 3 4 2 1 1 3 4 4
33 35 36 34 32 30 26 24 23 19 18 16 7 4 14 30 5 2 6 8 5 8 4 7 3 4 5 3 6 7 9 1 7 8 8 2 4 2 6 5 4 3 4 5 5 6 4
33 32 32 33 32 31 29 27 24 21 22 12 3 3 11 6 7 7 3 13 4 3 12 4 4 6 6 3 3 2 4 4 5 4 8 6 1 2 7 5 3 4 0 2 3 2 7
36 34 34 35 34 33 31 28 26 25 27 21 3 3 1 2 1 15 10 11 13 7 11 5 3 4 3 4 3 2 2 4 4 3 6 8 4 6 7 4 3 3 5 5 3 2 3
37 35 35 35 33 34 34 34 31 29 29 24 4 4 5 8 9 16 10 6 15 12 10 4 6 9 6 3 5 3 2 2 5 3 4 5 5 3 3 4 4 5 11 13 8 12 6
37 37 37 37 36 36 36 36 35 34 31 22 5 4 1 3 12 16 13 14 15 14 8 7 13 8 8 7 10 8 9 4 5 2 3 1 2 3 4 7 8 12 17 15 16 11 6
39 38 39 40 40 38 38 40 40 39 36 6 15 5 4 8 12 12 18 26 16 6 6 17 8 5 9 9 5 5 6 8 9 8 5 5 4 3 4 4 7 8 10 11 4 7 7
43 43 42 42 42 40 39 40 42 44 43 16 14 3 3 4 12 20 23 20 14 13 10 4 10 7 5 8 6 6 7 6 9 5 6 6 5 3 3 3 4 6 3 4 6 2 4
47 48 47 46 45 44 44 42 41 48 46 31 19 10 3 3 13 11 14 16 13 11 4 6 4 7 9 5 4 4 4 3 3 6 6 6 4 2 2 3 6 3 3 4 4 4 8
51 52 51 50 49 48 47 43 41 50 48 39 30 20 3 4 9 12 13 9 9 10 4 1 4 4 3 3 3 5 4 4 4 2 7 6 4 4 3 3 4 4 2 4 2 5 12
57 56 55 54 52 51 49 45 44 49 49 40 22 39 6 2 3 9 7 12 6 5 4 4 5 4 5 3 3 3 4 7 5 6 5 4 2 10 6 4 6 3 5 4 4 4 12
63 60 57 59 56 54 52 48 47 48 48 43 34 27 22 2 3 1 3 5 5 5 5 6 4 1 3 3 4 4 3 5 3 4 6 8 7 4 4 4 10 2 4 6 3 3 12
64 61 63 62 59 58 55 51 49 49 48 45 15 24 29 7 3 2 4 2 4 8 6 5 5 6 5 3 3 3 2 2 5 4 3 5 6 4 7 5 1 2 3 2 4 6 5